     2              OBSERVATION DATA    GPS                 RINEX VERSION / TYPE
TRRINEXO V2.4.6 UX                                          PGM / RUN BY / DATE
                                                            COMMENT
Original Marker Name: l589                                  COMMENT
Campaign Name: STRC 1995                                    COMMENT
4-Character Station Name: L589                              COMMENT
6-Character Antenna Code: TRMSST                            COMMENT
Vertical Measurement Point: TGP                             COMMENT
Vertical Offset to Rinex Ref. Point: 0.0629                 COMMENT
Radial Measurement Point: NGP                               COMMENT
Radial Offset to Rinex Ref. Point: 0.2334                   COMMENT
Antenna Height from Field Measurement: 1.0650 m             COMMENT
Original XYZ: -2328497.0278 -4825000.3586 3449382.5404      COMMENT
New XYZ position is based on association with SCEC monument COMMENT
E1C8Y1T1+0011. Position of that monument is believed to be  COMMENT
valid to within 1 m horizontally; vertical accuracy         COMMENT
should be no worse than 3-times this value.                 COMMENT
                                                            COMMENT
Revised Rinex header created by UCSD GPS archive for        COMMENT
GSAC on 10-Apr-1999 (1999:100) 07:33:40 GMT                 COMMENT
For assistance contact dagnew@ucsd.edu or hjohnson@ucsd.edu COMMENT
                                                            COMMENT
L589 1967                                                   MARKER NAME
BM L 589                                                    MARKER NUMBER
K. Feaux UNAVCO                                             OBSERVER / AGENCY
1054 TRIMBLE 4000 SST 4.81                                  REC # / TYPE / VERS
272 TR 4000SST L1/L2 GEO                                    ANT # / TYPE
 -2328467.0000 -4825011.0000  3449366.0000                  APPROX POSITION XYZ
        0.9762        0.0000        0.0000                  ANTENNA: DELTA H/E/N
     1     2     0                                          WAVELENGTH FACT L1/2
     3    C1    L1    L2                                    # / TYPES OF OBSERV
    30                                                      INTERVAL
  1995     2    14    16    10   30.000000                  TIME OF FIRST OBS
  1995     2    15     0     7   60.000000                  TIME OF LAST OBS
     0                                                      # OF SATELLITES
                                                            END OF HEADER
 95  2 14 16 10 30.0000000  0  6 25  1 14 15 29 22
  21338565.570          -0.19317
  24498480.125          -0.20515
  21720737.102          -0.71317
  21653939.680          -0.61416
  23371959.742          -0.60515
  23052257.164          -0.75515
 95  2 14 16 11  0.0000000  0  6 25  1 14 15 29 22
  21346761.578       43065.449 7        -0.39719
  24509718.789       59028.057 5        -0.36114
  21704675.195      -84406.724 7        -0.15018
  21662849.633       46837.709 6        -0.18617
  23358493.180      -70769.463 5        -0.46615
  23033766.453      -97184.412 5        -0.45915
 95  2 14 16 11 30.0000000  0  6 25  1 14 15 29 22
  21355021.680       86475.320 7     33825.451 9
  24520942.844      118002.432 5     45953.582 4
  21688652.852     -168600.678 7    -65605.829 8
  21671848.906       94120.445 6     36843.459 7
  23345039.047     -141476.285 6    -55096.686 5
  23015304.258     -194198.646 5    -75595.941 5
 95  2 14 16 12  0.0000000  0  6 25  1 14 15 29 22
  21363349.312      130226.999 7     67917.641 9
  24532165.273      176975.980 5     91906.895 4
  21672683.969     -252524.413 7   -131000.955 8
  21680934.430      141880.916 6     74059.371 7
  23331596.172     -212105.240 5   -110132.222 5
  22996886.289     -290987.762 5   -151016.002 5
 95  2 14 16 12 30.0000000  0  6 25  1 14 15 29 22
  21371731.953      174278.789 8    102243.681 9
  24543383.148      235945.361 5    137856.950 5
  21656761.867     -336186.084 7   -196191.875 8
  21690114.797      190104.478 6    111636.115 7
  23318167.648     -282688.393 5   -165132.073 5
  22978506.094     -387579.919 5   -226282.588 5
 95  2 14 16 13  0.0000000  0  6 25  1 14 15 29 22
  21380171.531      218640.500 7    136811.224 9
  24554607.547      294921.355 5    183812.144 5
  21640894.047     -419583.738 7   -261177.061 8
  21699380.781      238792.125 6    149574.500 7
  23304739.820     -353239.983 6   -220107.319 5
  22960160.328     -483979.773 5   -301399.328 5
 95  2 14 16 13 30.0000000  0  6 25  1 14 15 29 22
  21388676.102      263324.910 7    171630.217 9
  24565831.828      353909.056 5    229776.477 5
  21625069.859     -502733.501 7   -325969.093 8
  21708733.727      287937.287 6    187869.374 7
  23291318.867     -423760.367 6   -275058.253 5
  22941854.195     -580189.586 6   -376368.001 6
 95  2 14 16 14  0.0000000  0  6 25  1 14 15 29 22
  21397246.883      308361.395 7    206723.557 9
  24577056.383      412898.094 5    275741.851 4
  21609292.891     -585650.736 7   -390579.928 8
  21718172.781      337543.272 6    226523.341 7
  23277908.211     -494233.274 5   -329972.188 5
  22923580.375     -676215.900 6   -451193.690 5
 95  2 14 16 14 30.0000000  0  6 25  1 14 15 29 22
  21405892.164      353795.252 7    242126.531 9
  24588281.422      471869.117 5    321693.175 5
  21593554.203     -668348.004 7   -455019.370 8
  21727699.250      387611.786 6    265537.716 7
  23264512.344     -564634.749 6   -384830.456 5
  22905344.422     -772055.515 6   -525873.898 5
 95  2 14 16 15  0.0000000  0  6 25  1 14 15 29 22
  21414616.203      399643.927 7    277852.737 9
  24599493.289      530807.526 5    367619.092 5
  21577859.070     -750836.840 7   -519296.391 8
  21737315.242      438133.965 6    304905.602 7
  23251128.414     -634964.225 6   -439632.632 5
  22887141.047     -867689.114 6   -600393.593 5
 95  2 14 16 15 30.0000000  0  6 25  1 14 15 29 22
  21423418.641      445899.375 7    313895.918 9
  24610706.711      589711.233 5    413517.973 5
  21562197.273     -833130.835 7   -583421.590 8
  21747015.477      489104.711 6    344623.016 7
  23237759.305     -705221.618 6   -494378.633 5
  22868987.914     -963108.212 6   -674746.146 5
 95  2 14 16 16  0.0000000  0  6 25  1 14 15 29 22
  21432294.641      492544.711 7    350242.900 9
  24621909.562      648592.288 5    459399.208 5
  21546579.133     -915207.723 7   -647377.614 8
  21756801.359      540530.849 6    384695.277 7
  23224406.406     -775398.293 6   -549061.747 5
  22850873.562    -1058286.555 6   -748911.101 5
 95  2 14 16 16 30.0000000  0  6 25  1 14 15 29 22
  21441240.953      539552.700 7    386872.465 9
  24633111.523      707472.257 5    505279.588 4
  21531005.766     -997046.106 7   -711147.791 8
  21766670.508      592404.898 6    425116.562 7
  23211063.797     -845500.042 5   -603686.469 5
  22832811.047    -1153226.220 6   -822890.062 5
 95  2 14 16 17  0.0000000  0  6 25  1 14 15 29 22
  21450252.281      586904.689 7    423770.087 9
  24644322.594      766373.851 5    551176.818 5
  21515482.242    -1078625.698 7   -774716.312 8
  21776623.820      644728.464 6    465888.122 7
  23197739.203     -915532.189 6   -658256.948 5
  22814787.633    -1247921.788 6   -896678.828 5
 95  2 14 16 17 30.0000000  0  6 25  1 14 15 29 22
  21459325.180      634582.843 7    460921.863 9
  24655530.180      825294.944 5    597089.234 5
  21500008.227    -1159935.407 7   -838074.532 8
  21786666.586      697495.530 6    507005.265 7
  23184425.539     -985491.591 6   -712770.768 5
  22796814.250    -1342383.283 6   -970285.194 5
 95  2 14 16 18  0.0000000  0  6 25  1 14 15 29 22
  21468460.852      682593.579 7    498332.795 9
  24666746.641      884228.560 5    643011.405 5
  21484591.836    -1240954.098 7   -901205.983 8
  21796796.195      750710.039 6    548471.067 7
  23171129.492    -1055371.478 6   -767222.607 5
  22778884.016    -1436600.919 6  -1043701.538 5
 95  2 14 16 18 30.0000000  0  6 25  1 14 15 29 22
  21477662.258      730943.280 7    536007.860 9
  24677962.391      943158.404 5    688930.658 5
  21469229.250    -1321683.456 7   -964111.978 8
  21807002.539      804373.689 6    590286.843 7
  23157850.695    -1125165.473 6   -821607.510 5
  22761001.852    -1530569.351 6  -1116923.692 5
 95  2 14 16 19  0.0000000  0  6 25  1 14 15 29 22
  21486923.641      779616.075 7    573934.684 9
  24689171.102     1002048.709 5    734819.091 4
  21453915.406    -1402157.582 7  -1026819.096 8
  21817302.844      858468.676 6    632438.729 7
  23144581.102    -1194887.777 6   -875936.569 5
  22743168.359    -1624291.312 6  -1189953.806 6
 95  2 14 16 19 30.0000000  0  6 25  1 14 15 29 22
  21496245.234      828602.349 7    612105.783 9
  24700364.602     1060890.280 5    780669.549 4
  21438649.406    -1482386.840 7  -1089335.406 8
  21827673.828      912987.381 6    674920.782 7
  23131326.273    -1264543.473 6   -930213.715 6
  22725376.102    -1717774.078 6  -1262797.510 5
 95  2 14 16 20  0.0000000  0  6 25  1 14 15 29 22
  21505628.109      877899.037 7    650518.763 9
  24711553.742     1119688.993 4    826486.613 3
  21423429.250    -1562363.630 7  -1151654.984 8
  21838128.117      967930.806 6    717733.781 7
  23118082.812    -1334127.226 6   -984434.798 5
  22707636.680    -1811015.875 6  -1335453.452 6
 95  2 14 16 20 30.0000000  0  6 25  1 14 15 29 22
  21515066.297      927505.862 7    689173.399 9
  24722740.336     1178463.734 4    872284.993 3
  21408261.094    -1642072.841 7  -1213766.063 8
  21848668.969     1023305.296 6    760882.677 7
  23104857.914    -1403628.120 6  -1038591.340 5
  22689938.242    -1904016.675 6  -1407921.600 6
 95  2 14 16 21  0.0000000  0  6 25  1 14 15 29 22
  21524567.023      977437.289 7    728080.973 9
  24733926.430     1237232.157 5    918078.441 3
  21393145.852    -1721510.381 7  -1275665.451 8
  21859286.406     1079099.544 6    804358.653 7
  23091647.016    -1473055.209 6  -1092690.357 6
  22672280.984    -1996794.628 6  -1480216.100 6
 95  2 14 16 21 30.0000000  0  6 25  1 14 15 29 22
  21534135.180     1027713.829 7    767257.464 9
  24745110.195     1296015.418 5    963883.451 4
  21378085.125    -1800648.355 7  -1337331.412 8
  21869982.727     1135318.586 6    848165.644 7
  23078454.937    -1542394.500 6  -1146720.956 6
  22654672.047    -2089347.084 6  -1552334.877 6
 95  2 14 16 22  0.0000000  0  6 25  1 14 15 29 22
  21543770.422     1078342.243 7    806708.153 9
  24756302.211     1354807.275 5   1009695.191 4
  21363083.156    -1879486.144 7  -1398763.462 8
  21880759.695     1191957.180 6    892299.550 7
  23065273.812    -1611646.162 6  -1200683.277 5
  22637104.008    -2181661.550 6  -1624268.208 6
 95  2 14 16 22 30.0000000  0  6 25  1 14 15 29 22
  21553476.898     1129350.673 7    846454.952 9
  24767490.086     1413612.047 5   1055516.974 1
  21348136.938    -1958031.586 7  -1459967.709 8
  21891618.211     1249019.964 6    936763.999 7
  23052112.805    -1680802.186 6  -1254571.085 5
  22619583.992    -2273719.135 6  -1696001.377 6
 95  2 14 16 23  0.0000000  0  6 25  1 14 15 29 22
  21563254.188     1180733.750 7    886493.677 9
  24778681.672     1472417.457 5   1101339.258 1
  21333243.500    -2036302.291 7  -1520957.875 8
  21902554.148     1306494.001 6    981548.909 7
  23038968.898    -1749872.242 6  -1308391.901 6
  22602113.852    -2365511.066 6  -1767527.551 6
 95  2 14 16 23 30.0000000  0  6 25  1 14 15 29 22
  21573098.039     1232455.037 7    926795.948 9
  24789861.430     1531201.531 5   1147144.947 1
  21318399.352    -2114293.219 7  -1581730.035 8
  21913568.812     1364375.320 6   1026651.173 7
  23025840.914    -1818870.309 6  -1362156.614 6
  22584705.789    -2457021.675 6  -1838834.509 6
 95  2 14 16 24  0.0000000  0  6 25  1 14 15 29 22
  21583001.758     1284502.763 7    967352.582 9
  24801052.234     1589964.119 5   1192933.848 1
  21303611.258    -2192006.316 7  -1642285.704 9
  21924661.492     1422668.832 6   1072074.618 7
  23012722.641    -1887802.527 6  -1415870.038 6
  22567349.109    -2548234.159 6  -1909909.167 6
 95  2 14 16 24 30.0000000  0  6 25  1 14 15 29 22
  21592964.703     1336865.082 7   1008154.357 9
  24812231.289     1648713.725 5
  21288879.594    -2269434.523 7  -1702619.376 9
  21935834.828     1481375.991 6
  22999617.703    -1956670.551 6  -1469533.417 6
  22550044.672    -2639152.340 6  -1980754.504 6
 95  2 14 16 25  0.0000000  0  6 25  1 14 15 29 22
  21602981.383     1389508.296 7   1049175.008 9
  24823409.352     1707458.945 5   1284488.047 2
  21274203.203    -2346556.713 7  -1762714.590 9
  21947087.047     1540492.990 6   1163885.534 7
  22986524.516    -2025486.742 6  -1523156.418 5
  22532798.555    -2729774.424 6  -2051369.127 6
 95  2 14 16 25 30.0000000  0  6 25  1 14 15 29 22
  21613053.875     1442430.233 7   1090412.843 9
  24834584.453     1766208.421 5   1330266.809 1
  21259586.031    -2423364.735 7  -1822564.991 9
  21958413.016     1600020.897 6   1210270.852 7
  22973440.758    -2094243.661 6  -1576733.220 6
  22515614.484    -2820096.447 6  -2121749.924 6
 95  2 14 16 26  0.0000000  0  6 25  1 14 15 29 22
  21623176.352     1495622.585 7   1131861.392 9
  24845761.836     1824959.029 5   1376046.376 1
  21245024.242    -2499880.952 7  -1882188.016 9
  21969814.578     1659944.383 6   1256964.413 6
  22960368.633    -2162940.042 6  -1630262.856 5
  22498484.203    -2910123.485 6  -2191900.878 6
 95  2 14 16 26 30.0000000  0  6 25  1 14 15 29 22
  21633349.570     1549094.479 7   1173527.768 9
  24856945.523     1883719.701 5   1421833.799 1
  21230522.242    -2576094.918 7  -1941575.527 9
  21981298.586     1720263.854 6   1303966.536 6
  22947309.352    -2231560.549 6  -1683733.370 6
  22481409.141    -2999845.982 6  -2261814.523 6
 95  2 14 16 27  0.0000000  0  6 25  1 14 15 29 22
  21643583.477     1602859.082 7   1215422.231 9
  24868134.477     1942493.402 5   1467631.407 1
  21216077.094    -2652009.455 7  -2000729.716 9
  21992845.484     1780975.891 6   1351274.554 7
  22934267.227    -2300094.811 6  -1737136.667 5
  22464392.320    -3089250.472 6  -2331480.376 6
 95  2 14 16 27 30.0000000  0  5 25 14 15 29 22
  21653873.680     1656943.424 7   1257565.842 9
  21201686.344    -2727633.906 7  -2059657.859 9
  22004477.445     1842081.046 6   1398888.896 7
  22921241.797    -2368524.420 6  -1790458.426 6
  22447441.719    -3178337.151 6  -2400898.578 6
 95  2 14 16 28  0.0000000  0  5 25 14 15 29 22
  21664229.273     1711358.909 7   1299967.488 9
  21187349.625    -2802965.289 7  -2118357.634 9
  22016177.469     1903577.112 6   1446807.842 6
  22908244.422    -2436852.236 6  -1843700.857 6
  22430551.297    -3267114.351 6  -2470075.630 6
 95  2 14 16 28 30.0000000  0  5 25 14 15 29 22
  21674652.922     1766132.340 7   1342648.054 9
  21173075.758    -2877984.271 7  -2176813.981 9
  22027954.672     1965467.730 6   1495034.234 7
  22895259.555    -2505072.700 6  -1896859.642 6
  22413712.312    -3355587.670 6  -2539015.887 6
 95  2 14 16 29  0.0000000  0  5 25 14 15 29 22
  21685140.203     1821253.876 7   1385599.865 9
  21158860.023    -2952688.378 7  -2235024.978 9
  22039808.297     2027739.690 6   1543557.775 6
  22882294.664    -2573204.571 6  -1949949.386 6
  22396930.367    -3443768.453 6  -2607728.198 6
 95  2 14 16 29 30.0000000  0  5 25 14 15 29 22
  21695697.453     1876724.399 7   1428823.616 9
  21144711.812    -3027035.421 7  -2292957.738 9
  22051731.062     2090406.769 6   1592389.190 6
  22869349.836    -2641240.061 6  -2002964.037 5
  22380209.023    -3531645.152 6  -2676203.551 6
 95  2 14 16 30  0.0000000  0  5 25 14 15 29 22
  21706311.391     1932501.301 7   1472286.108 8
  21130628.430    -3101039.735 7  -2350623.442 9
  22063724.164     2153436.984 6   1641503.579 6
  22856410.477    -2709220.699 6  -2055935.943 6
  22363544.641    -3619225.375 6  -2744447.884 6
 95  2 14 16 30 30.0000000  0  5 25 14 15 29 22
  21716981.281     1988576.557 7   1515981.084 8
  21116615.039    -3174687.276 7  -2408011.140 9
  22075792.180     2216838.731 6   1690907.469 6
  22843485.375    -2777146.432 6  -2108865.055 6
  22346942.430    -3706474.903 6  -2812434.539 6
 95  2 14 16 31  0.0000000  0  5 25 14 15 29 22
  21727707.289     2044939.894 7   1559900.540 8
  21102666.820    -3247980.720 7  -2465122.916 9
  22087929.383     2280615.248 6   1740603.390 6
  22830572.539    -2845013.106 6  -2161748.150 6
  22330406.367    -3793374.074 6  -2880148.179 6
 95  2 14 16 31 30.0000000  0  5 25 14 15 29 22
  21738485.703     2101581.989 7   1604037.211 8
  21088787.195    -3320926.835 7  -2521964.050 9
  22100136.016     2344767.330 6   1790591.953 6
  22817668.914    -2912814.023 6  -2214580.008 6
  22313934.336    -3879919.006 6  -2947585.779 6
 95  2 14 16 32  0.0000000  0  5 25 14 15 29 22
  21749316.570     2158495.163 7   1648385.106 8
  21074965.875    -3393558.099 7  -2578559.844 9
  22112412.906     2409289.714 6   1840869.069 6
  22804776.289    -2980554.566 6  -2267364.811 6
  22297533.023    -3966107.400 6  -3014745.553 6
 95  2 14 16 32 30.0000000  0  5 25 14 15 29 22
  21760198.773     2215680.636 7   1692945.177 8
  21061202.461    -3465881.930 7  -2634916.075 9
  22124760.914     2474176.749 6   1891430.322 6
  22791897.906    -3048234.653 6  -2320102.509 6
  22281197.227    -4051967.719 6  -3081649.697 6
 95  2 14 16 33  0.0000000  0  5 25 14 15 29 22
  21771133.250     2273141.282 7   1737719.667 8
  21047498.539    -3537891.929 7  -2691027.764 9
  22137177.359     2539423.213 6   1942271.652 6
  22779035.391    -3115834.420 6  -2372777.616 6
  22264919.672    -4137515.306 6  -3148310.146 6
 95  2 14 16 33 30.0000000  0  5 25 14 15 29 22
  21782118.367     2330876.559 7   1782708.157 8
  21033855.969    -3609581.932 7  -2746890.112 9
  22149663.203     2605031.960 6   1993395.296 6
  22766189.688    -3183349.967 6  -2425387.095 6
  22248700.633    -4222735.764 6  -3214715.689 6
 95  2 14 16 34  0.0000000  0  5 25 14 15 29 22
  21793162.117     2388906.761 7   1827926.463 8
  21020276.969    -3680952.013 7  -2802503.164 9
  22162216.484     2671002.213 6   2044800.611 6
  22753355.094    -3250779.397 6  -2477929.471 6
  22232548.039    -4307610.054 6  -3280851.484 6
 95  2 14 16 34 30.0000000  0  5 25 14 15 29 22
  21804262.508     2447234.211 7   1873376.389 8
  21006760.531    -3751972.489 7  -2857843.806 9
  22174836.820     2737331.650 6   2096485.813 6
  22740547.070    -3318109.284 6  -2530394.272 6
  22216465.391    -4392127.461 6  -3346709.191 6
 95  2 14 16 35  0.0000000  0  5 25 14 15 29 22
  21815415.359     2505840.589 7   1919043.661 8
  20993311.500    -3822645.932 7  -2912914.024 9
  22187524.812     2804014.169 6   2148446.149 6
  22727754.461    -3385331.258 6  -2582775.010 6
  22200457.289    -4476260.424 6  -3412267.326 6
 95  2 14 16 35 30.0000000  0  5 25 14 15 29 22
  21826618.258     2564718.616 7   1964922.607 8
  20979929.391    -3892976.866 7  -2967717.360 9
  22200284.531     2871049.793 6   2200681.629 6
  22714978.680    -3452454.012 6  -2635078.421 6
  22184522.109    -4559997.304 6  -3477516.835 6
 95  2 14 16 36  0.0000000  0  5 25 14 15 29 22
  21837875.273     2623876.452 7   2011019.578 8
  20966614.992    -3962944.251 7  -3022237.406 9
  22213107.148     2938433.267 6   2253188.166 6
  22702223.781    -3519483.173 6  -2687308.908 6
  22168657.594    -4643357.045 6  -3542472.456 6
 95  2 14 16 36 30.0000000  0  5 25 14 15 29 22
  21849182.969     2683292.269 7   2057317.581 8
  20953369.625    -4032541.064 7  -3076468.698 9
  22225990.656     3006153.761 6   2305957.314 6
  22689489.320    -3586421.938 6  -2739468.969 6
  22152866.305    -4726353.093 6  -3607144.686 6
 95  2 14 16 37  0.0000000  0  5 25 14 15 29 22
  21860539.578     2742979.770 7   2103827.291 8
  20940197.391    -4101773.000 7  -3130415.673 9
  22238946.469     3074216.011 6   2358992.763 6
  22676762.703    -3653274.098 6  -2791561.539 6
  22137141.172    -4808987.797 6  -3671535.342 6
 95  2 14 16 37 30.0000000  0  5 25 14 15 29 22
  21871954.258     2802954.184 7   2150560.573 8
  20927095.375    -4170621.967 7  -3184064.226 9
  22251959.812     3142617.326 6   2412292.420 6
  22664057.141    -3720061.966 6  -2843604.023 6
  22121478.828    -4891271.494 6  -3735652.483 6
 95  2 14 16 38  0.0000000  0  5 25 14 15 29 22
  21883422.562     2863231.194 7   2197529.649 8
  20914071.680    -4239061.969 7  -3237394.113 9
  22265044.859     3211360.896 6   2465858.766 6
  22651362.742    -3786776.846 6  -2895589.627 6
  22105892.859    -4973188.342 6  -3799483.768 6
 95  2 14 16 38 30.0000000  0  5 25 14 15 29 22
  21894949.078     2923788.704 7   2244717.294 8
  20901118.477    -4307118.017 7  -3290424.803 9
  22278185.773     3280437.812 6   2519684.866 6
  22638679.414    -3853420.000 6  -2947519.344 6
  22090377.820    -5054731.262 6  -3863023.679 6
 95  2 14 16 39  0.0000000  0  5 25 14 15 29 22
  21906523.695     2984630.354 7   2292126.348 8
  20888243.938    -4374784.178 7  -3343151.684 9
  22291398.367     3349850.535 6   2573772.633 6
  22626007.766    -3919996.500 6  -2999397.129 6
  22074932.961    -5135900.106 6  -3926272.098 6
 95  2 14 16 39 30.0000000  0  5 25 14 15 29 22
  21918153.023     3045733.227 7   2339738.944 8
  20875442.570    -4442056.790 7  -3395571.908 9
  22304664.953     3419585.405 6   2628111.416 6
  22613352.281    -3986514.849 6  -3051229.598 6
  22059555.734    -5216698.208 6  -3989231.627 6
 95  2 14 16 40  0.0000000  0  5 25 14 15 29 22
  21929829.297     3107087.842 7   2387547.705 8
  20862714.805    -4508952.745 7  -3447698.628 9
  22317997.117     3489638.082 6   2682697.847 6
  22600704.211    -4052964.289 6  -3103008.375 6
  22044252.164    -5297120.654 6  -4051898.438 6
 95  2 14 16 40 30.0000000  0  5 25 14 15 29 22
  21941548.328     3168685.060 7   2435545.521 8
  20850051.938    -4575488.918 7
  22331390.516     3560007.313 6   2737530.942 6
  22588069.719    -4119350.344 6
  22029020.758    -5377169.345 6  -4114274.016 6
 95  2 14 16 41  0.0000000  0  5 25 14 15 29 22
  21953318.469     3230530.126 7   2483736.461 8
  20837460.938    -4641654.725 7  -3551102.785 9
  22344839.297     3630695.199 6   2792612.335 6
  22575452.586    -4185666.834 6  -3206412.934 6
  22013861.859    -5456825.621 6  -4176343.812 6
 95  2 14 16 41 30.0000000  0  5 25 14 15 29 22
  21965137.125     3292633.076 7   2532128.354 8
  20824940.867    -4707446.590 7  -3602369.175 9
  22358350.984     3701710.497 6   2847948.856 6
  22562853.125    -4251886.879 6  -3258012.964 6
  21998783.133    -5536056.537 6  -4238082.166 6
 95  2 14 16 42  0.0000000  0  5 25 14 15 29 22
  21977000.445     3354979.596 7   2580710.028 8
  20812489.164    -4772889.963 7  -3653364.011 9
  22371925.141     3773040.019 6   2903530.215 6
  22550269.609    -4318009.456 6  -3309537.040 6
  21983786.836    -5614861.014 6  -4299488.241 6
 95  2 14 16 42 30.0000000  0  5 25 14 15 29 22
  21988910.133     3417561.585 7   2629475.181 8
  20800100.992    -4837974.974 7  -3704079.604 9
  22385561.875     3844679.394 6   2959353.021 6
  22537708.812    -4384025.516 6  -3360978.116 6
  21968871.992    -5693241.594 6  -4360563.979 6
 95  2 14 16 43  0.0000000  0  5 25 14 15 29 22
  22000864.438     3480383.845 7   2678427.557 8
  20787791.930    -4902673.053 7  -3754493.690 9
  22399251.344     3916620.768 6   3015411.151 6
  22525165.930    -4449924.601 6  -3412328.049 6
  21954037.000    -5771197.587 6  -4421308.888 6
 95  2 14 16 43 30.0000000  0  5 25 14 15 29 22
  22012868.078     3543463.847 7   2727580.766 8
  20775556.773    -4966963.187 7  -3804589.902 9
  22413000.289     3988869.250 6   3071708.588 6
  22512649.812    -4515695.268 6  -3463577.912 6
  21939285.187    -5848725.365 6  -4481720.120 7
 95  2 14 16 44  0.0000000  0  5 25 14 15 29 22
  22024918.805     3606797.201 7   2776931.396 8
  20763401.148    -5030838.997 7  -3854363.262 9
  22426803.195     4061413.190 6   3128236.242 6
  22500156.227    -4581361.716 6  -3514746.562 6
  21924611.148    -5925839.296 6  -4541808.876 7
 95  2 14 16 44 30.0000000  0  5 25 14 15 29 22
  22037021.484     3670395.561 7   2826488.513 8
  20751329.484    -5094280.226 7  -3903797.998 9
  22440664.117     4134250.420 6   3184992.445 6
  22487678.852    -4646933.804 6  -3565841.695 6
  21910012.133    -6002541.931 6  -4601577.139 7
 95  2 14 16 45  0.0000000  0  5 25 14 15 29 22
  22049175.867     3734264.975 7   2876256.845 7
  20739337.922    -5157289.443 7  -3952896.093 9
  22454582.109     4207381.441 6   3241977.575 6
  22475217.758    -4712421.334 6  -3616870.929 6
  21895499.367    -6078822.435 6  -4661016.472 7
 95  2 14 16 45 30.0000000  0  5 25 14 15 29 22
  22061380.070     3798394.235 7   2926227.645 7
  20727426.664    -5219895.448 7  -4001679.997 9
  22468552.781     4280804.459 6   3299190.234 6
  22462766.680    -4777831.849 6  -3667840.150 6
  21881061.414    -6154685.002 6  -4720130.138 7
 95  2 14 16 46  0.0000000  0  5 25 14 15 29 22
  22073627.906     3862755.685 7   2976379.365 7
  20715585.562    -5282107.943 7  -4050157.267 9
  22482577.148     4354507.740 6   3356621.267 6
  22450331.328    -4843186.024 6  -3718765.470 6
  21866703.180    -6230138.929 6  -4778925.385 7
 95  2 14 16 46 30.0000000  0  5 25 14 15 29 22
  22085919.617     3927351.644 7   3026713.825 7
  20703824.586    -5343909.776 7  -4098314.546 9
  22496655.258     4428496.416 6   3414274.682 6
  22437911.352    -4908462.624 6  -3769630.344 6
  21852426.141    -6305177.896 6  -4837397.278 7
 95  2 14 16 47  0.0000000  0  5 25 14 15 29 22
  22098256.008     3992173.284 7   3077224.141 7
  20692145.531    -5405296.865 7  -4146148.649 9
  22510788.445     4502772.774 6   3472152.278 6
  22425502.844    -4973652.028 6  -3820427.260 6
  21838225.719    -6379787.178 6  -4895534.352 7
 95  2 14 16 47 30.0000000  0  5 25 14 15 29 22
  22110632.437     4057219.151 7   3127909.179 7
  20680541.664    -5466258.575 7  -4193651.286 9
  22524978.773     4577335.418 6   3530252.944 6
  22413119.656    -5038747.917 6  -3871151.317 6
  21824114.688    -6453961.036 6  -4953332.137 7
 95  2 14 16 48  0.0000000  0  5 25 14 15 29 22
  22123053.414     4122494.976 7   3178773.409 7
  20669028.164    -5526782.528 7  -4240812.812 9
  22539222.969     4652177.666 6   3588571.485 6
  22400748.148    -5103757.431 6  -3921808.075 6
  21810080.328    -6527686.953 6  -5010780.883 7
 95  2 14 16 48 30.0000000  0  5 25 14 15 29 22
  22135522.500     4188014.332 7   3229827.399 7
  20657589.047    -5586873.215 7  -4287636.729 9
  22553517.477     4727297.074 6   3647105.990 6
  22388395.625    -5168669.374 6  -3972388.799 6
  21796140.242    -6600957.491 6  -5067874.784 7
 95  2 14 16 49  0.0000000  0  5 25 14 15 29 22
  22148035.055     4253769.355 7   3281065.029 7
  20646237.570    -5646552.755 7  -4334140.260 9
  22567862.375     4802684.360 6   3705849.220 6
  22376056.789    -5233500.066 6  -4022906.204 6
  21782282.117    -6673769.310 7  -5124611.246 7
 95  2 14 16 49 30.0000000  0  5 25 14 15 29 22
  22160596.625     4319775.442 7   3332498.291 7
  20634956.008    -5705811.796 7  -4380316.138 9
  22582257.812     4878340.237 6   3764801.765 5
  22363737.859    -5298257.630 6  -4073366.628 6
  21768516.844    -6746122.798 6  -5180990.563 7
 95  2 14 16 50  0.0000000  0  5 25 14 15 29 22
  22173201.969     4386020.114 7   3384117.462 7
  20623762.906    -5764645.280 7  -4426160.401 9
  22596707.672     4954257.081 6   3823957.647 5
  22351425.273    -5362945.858 6  -4123773.035 6
  21754832.195    -6818026.750 7  -5237019.603 7
 95  2 14 16 50 30.0000000  0  5 25 14 15 29 22
  22185848.688     4452478.649 7   3435903.269 7
  20612646.359    -5823051.159 7  -4471671.474 9
  22611202.688     5030435.034 6   3883316.988 6
  22339132.570    -5427560.286 6  -4174121.926 6
  21741236.273    -6889478.847 7  -5292696.541 7
 95  2 14 16 51  0.0000000  0  5 25 14 15 29 22
  22198534.984     4519144.000 7   3487850.239 7
  20601618.648    -5881016.705 7  -4516839.436 9
  22625746.203     5106872.638 6   3942878.656 6
  22326849.781    -5492098.293 6  -4224411.264 6
  21727723.945    -6960473.041 6  -5348016.675 7
 95  2 14 16 51 30.0000000  0  5 25 14 15 29 22
  22211257.562     4586009.449 7   3539953.136 7
  20590672.164    -5938537.669 7  -4561660.974 9
  22640342.586     5183563.951 6   4002638.026 6
  22314582.047    -5556560.084 6  -4274641.222 6
  21714302.812    -7031011.929 6  -5402982.030 7
 95  2 14 16 52  0.0000000  0  5 25 14 15 29 22
  22224018.188     4653060.862 7   3592200.939 7
  20579811.789    -5995624.869 7  -4606144.497 9
  22654983.969     5260508.229 6   4062594.516 6
  22302329.602    -5620933.324 6  -4324802.176 6
  21700964.109    -7101089.228 6  -5457587.697 7
 95  2 14 16 52 30.0000000  0  5 25 14 15 29 22
  22236817.000     4720320.974 7   3644611.366 7
  20569025.758    -6052288.883 7  -4650298.274 9
  22669675.312     5337703.693 6   4122746.722 5
  22290097.992    -5685212.438 6  -4374889.784 6
  21687723.875    -7170695.946 7  -5511826.673 7
 95  2 14 16 53  0.0000000  0  5 25 14 15 29 22
  22249659.648     4787808.167 7   3697198.728 7
  20558323.984    -6108532.086 7  -4694124.144 9
  22684410.727     5415147.120 6   4183092.150 5
  22277882.844    -5749390.872 6  -4424898.941 6
  21674565.539    -7239840.539 7  -5565705.549 7
 95  2 14 16 53 30.0000000  0  5 25 14 15 29 22
  22262545.289     4855522.362 7   3749962.981 7
  20547700.641    -6164361.201 7  -4737627.353 9
  22699194.766     5492832.808 6   4243626.351 5
  22265692.117    -5813473.563 6  -4474833.507 6
  21661492.656    -7308527.212 7  -5619227.609 7
 95  2 14 16 53 59.9990000  0  5 25 14 15 29 22
  22275472.815     4923453.149 7   3802896.007 7
  20537155.886    -6219768.015 7  -4780801.500 9
  22714021.894     5570746.989 6   4304338.590 6
  22253517.628    -5877441.716 6  -4524678.814 6
  21648510.761    -7376757.530 7  -5672394.062 7
 95  2 14 16 54 29.9990000  0  5 25 14 15 29 22
  22288440.331     4991597.122 7   3855995.161 7
  20526694.073    -6274737.635 7  -4823634.974 9
  22728891.753     5648892.714 6   4365231.266 6
  22241371.128    -5941296.618 6  -4574435.874 6
  21635614.245    -7444523.736 7  -5725198.871 7
 95  2 14 16 54 59.9990000  0  5 25 14 15 29 22
  22301441.581     5059928.279 7   3909240.183 7
  20516323.034    -6329251.604 7  -4866113.395 9
  22743806.315     5727264.457 6   4426300.055 5
  22229238.620    -6005047.841 6  -4624112.141 6
  21622805.558    -7511819.063 7  -5777636.764 7
 95  2 14 16 55 29.9990000  0  5 25 14 15 29 22
  22314481.722     5128451.121 7   3962634.557 7
  20506039.003    -6383290.734 7  -4908221.815 9
  22758762.628     5805861.840 6   4487544.669 6
  22217125.565    -6068688.339 6  -4673702.145 6
  21610096.206    -7578626.956 7  -5829694.837 7
 95  2 14 16 55 59.9990000  0  5 25 14 15 29 22
  22327557.604     5197158.619 7   4016172.821 7
  20495842.979    -6436853.726 7  -4949959.225 9
  22773758.870     5884678.615 6   4548960.236 6
  22205037.948    -6132229.736 6  -4723214.914 6
  21597475.565    -7644941.904 7  -5881368.795 7
 95  2 14 16 56 29.9990000  0  6 25 18 14 15 29 22
  22340667.073     5266056.548 7   4069859.482 7
  24596663.394          -0.52713
  20485745.222    -6489942.919 7  -4991327.433 9
  22788803.089     5963717.328 6   4610548.741 5
  22192952.729    -6195704.095 6  -4772675.448 6
  21584952.159    -7710753.333 7  -5932650.400 7
 95  2 14 16 56 59.9990000  0  6 25 18 14 15 29 22
  22353818.417     5335163.641 7   4123709.127 7
  24579612.769      -89617.037 2
  20475732.128    -6542562.576 7  -5032329.772 9
  22803882.308     6042975.506 6   4672308.254 5
  22180888.925    -6259107.287 6  -4822080.530 6
  21572522.644    -7776062.870 7  -5983540.920 7
 95  2 14 16 57 29.9990000  0  6 25 18 14 15 29 22
  22367008.448     5404475.842 7   4177718.596 7
  24562559.089     -179226.640 2        -0.05711
  20465802.956    -6594723.175 7  -5072974.406 9
  22819008.636     6122445.446 6   4734232.779 5
  22168842.479    -6322431.459 6  -4871424.039 6
  21560192.479    -7840871.796 7  -6034041.360 7
 95  2 14 16 57 59.9990000  0  6 25 18 14 15 29 22
  22380235.245     5473980.529 7   4231878.059 7
  24545510.651     -268817.587 2    -69811.076 2
  20455965.253    -6646424.787 7  -5113261.386 9
  22834169.534     6202128.561 6   4796323.421 6
  22156799.925    -6385692.262 6  -4920718.162 6
  21547959.011    -7905170.226 7  -6084144.005 7
 95  2 14 16 58 29.9990000  0  6 25 18 14 15 29 22
  22393496.315     5543671.786 7   4286182.900 7
  24528464.495     -358383.297 3   -139602.452 1
  20446214.026    -6697660.266 7  -5153185.153 9
  22849371.253     6282025.508 6   4858580.673 5
  22144781.636    -6448871.609 6  -4969948.820 6
  21535818.019    -7968960.708 7  -6133850.859 7
 95  2 14 16 58 59.9990000  0  6 25 18 14 15 29 22
  22406790.042     5613530.502 6   4340618.228 7
  24511422.909     -447948.188 3   -209393.220 1
  20436553.401    -6748432.166 7  -5192747.682 9
  22864617.737     6362123.475 6   4920994.578 5
  22132775.323    -6511950.496 6
  21523773.581    -8032260.820 7
 95  2 14 16 59 29.9990000  0  6 25 18 14 15 29 22
  22420115.276     5683553.668 6   4395181.686 7
  24494385.964     -537493.831 3   -279168.996 1
  20426984.620    -6798734.224 7  -5231944.100 9
  22879896.901     6442420.665 6   4983563.701 5
  22120787.034    -6574948.820 6  -5068190.790 6
  21511815.995    -8095073.541 7  -6232120.573 7
 95  2 14 16 59 59.9990000  0  6 25 18 14 15 29 22
  22433473.628     5753751.642 6   4449881.358 7
  24477349.323     -627002.678 2   -348916.116 2
  20417502.300    -6848558.366 7  -5270768.125 9
  22895213.792     6522919.621 5   5046290.061 5
  22108815.894    -6637864.689 6  -5117216.139 7
  21499956.964    -8157405.629 7  -6280691.022 7
 95  2 14 17  0 29.9990000  0  6 25 18 14 15 29 22
  22446866.089     5824134.579 6   4504725.169 7
  24460322.144     -716488.367 2   -418645.162 2
  20408111.839    -6897911.994 7  -5309225.505 9
  22910572.440     6603618.011 5   5109171.820 5
  22096862.909    -6700671.110 6  -5166156.200 6
  21488185.120    -8219262.239 7  -6328890.967 7
 95  2 14 17  0 59.9990000  0  6 25 18 14 15 29 22
  22460297.722     5894708.527 6   4559717.817 7
  24443291.378     -805964.403 3   -488366.679 2
  20398806.636    -6946804.265 7  -5347323.384 9
  22925964.628     6684507.287 6   5172202.312 5
  22084929.995    -6763385.837 6  -5215024.806 7
  21476506.714    -8280633.008 7  -6376712.331 7
 95  2 14 17  1 29.9990000  0  6 25 18 14 15 29 22
  22473762.206     5965474.379 6   4614859.989 7
  24426273.073     -895417.859 3   -558070.581 1
  20389588.261    -6995235.591 7  -5385062.091 9
  22941392.237     6765579.193 5   5235375.128 5
  22073010.925    -6826023.196 6  -5263833.134 7
  21464924.565    -8341506.536 7  -6424146.243 7
 95  2 14 17  1 59.9990000  0  6 25 18 14 15 29 22
  22487262.980     6036415.871 6   4670139.033 7
  24409252.409     -984852.018 3   -627759.519 2
  20380461.198    -7043198.639 7  -5422435.900 8
  22956854.839     6846836.703 5   5298692.562 5
  22061113.089    -6888540.267 7  -5312547.729 7
  21453441.776    -8401854.095 7  -6471170.306 7
 95  2 14 17  2 29.9990000  0  6 25 18 14 15 29 22
  22500794.284     6107527.807 6   4725550.883 6
  24392237.190    -1074269.063 3   -697435.115 1
  20371424.331    -7090682.624 7  -5459436.418 8
  22972354.956     6928281.120 5   5362155.634 5
  22049242.581    -6950928.713 6  -5361162.095 7
  21442063.706    -8461644.630 7  -6517760.319 7
 95  2 14 17  2 59.9990000  0  6 25 18 14 15 29 22
  22514356.823     6178794.491 6   4781083.312 7
  24375226.480    -1163670.529 3   -767098.611 1
  20362484.284    -7137669.188 7  -5496049.336 8
  22987885.206     7009905.513 5   5425758.957 5
  22037390.456    -7013212.166 6  -5409694.647 7
  21430793.347    -8520870.901 7  -6563910.646 7
 95  2 14 17  3 29.9990000  0  6 25 18 14 15 29 22
  22527945.847     6250205.518 6   4836728.216 6
  24358214.323    -1253061.148 3   -836753.574 1
  20353640.292    -7184145.791 7  -5532264.875 8
  23003451.019     7091703.184 5   5489497.285 5
  22025558.159    -7075383.024 6  -5458139.465 7
  21419626.472    -8579548.290 7  -6609633.267 7
 95  2 14 17  3 59.9990000  0  6 25 18 14 15 29 22
  22541561.690     6321763.863 6   4892487.909 6
  24341206.097    -1342450.760 3   -906407.781 1
  20344895.472    -7230123.600 7  -5568091.742 8
  23019051.198     7173675.387 5   5553371.630 5
  22013748.636    -7137443.938 6  -5506498.612 7
  21408560.190    -8637685.107 7  -6654934.668 7
 95  2 14 17  4 29.9990000  0  6 25 18 14 15 29 22
  22555213.362     6393500.815 6   4948386.783 6
  24324197.440    -1431832.192 3   -976055.610 2
  20336239.237    -7275597.189 7  -5603525.708 8
  23034682.862     7255821.330 5   5617381.342 5
  22001955.190    -7199434.475 6  -5554802.914 7
  21397594.604    -8695302.378 7  -6699831.231 7
 95  2 14 17  4 59.9990000  0  6 25 18 14 15 29 22
  22568899.534     6465418.738 6   5004426.667 6
  24307187.276    -1521207.773 4  -1045698.854 2
  20327679.565    -7320578.476 7  -5638576.066 8
  23050343.526     7338127.328 5   5681515.772 5
  21990168.097    -7261372.840 6  -5603066.563 7
  21386724.769    -8752428.747 7  -6744345.266 7
 95  2 14 17  5 29.9990000  0  6 25 18 14 15 29 22
  22582621.956     6537526.117 6   5060614.182 6
  24290188.112    -1610555.845 4  -1115320.691 1
  20319212.019    -7365073.757 7  -5673247.722 8
  23066038.987     7420597.872 5   5745778.428 5
  21978390.519    -7323237.785 7  -5651273.000 7
  21375948.542    -8809075.869 7  -6788485.860 7
 95  2 14 17  5 59.9990000  0  6 25 18 14 15 29 22
  22596377.784     6609822.642 6   5116949.085 6
  24273186.878    -1699871.308 3  -1184917.105 1
  20310833.034    -7409089.515 7  -5707545.717 8
  23081765.183     7503233.794 5   5810169.947 5
  21966637.886    -7385028.583 7  -5699421.666 7
  21365263.050    -8865224.935 7  -6832238.365 7
 95  2 14 17  6 29.9990000  0  6 25 18 14 15 29 22
  22610170.933     6682298.370 7   5173423.619 6
  24256198.831    -1789149.358 3  -1254484.339 1
  20302553.065    -7452599.976 7  -5741449.979 8
  23097518.745     7586029.153 5   5874685.695 5
  21954894.784    -7446741.075 7  -5747509.317 7
  21354674.972    -8920870.044 7  -6875598.175 7
 95  2 14 17  6 59.9990000  0  6 25 18 14 15 29 22
  22623990.690     6754920.911 6   5230012.553 6
  24239216.925    -1878393.994 4  -1324025.623 2
  20294369.081    -7495608.223 7  -5774962.899 8
  23113304.253     7668977.585 5   5939320.714 5
  21943169.597    -7508344.888 7  -5795512.279 7
  21344184.909    -8976006.279 7  -6918561.462 7
 95  2 14 17  7 29.9990000  0  6 25 18 14 15 29 22
  22637835.167     6827675.353 6   5286704.273 6
  24222239.870    -1967608.198 4  -1393543.145 2
  20286283.175    -7538113.032 7  -5808083.529 8
  23129116.542     7752074.786 5   6004071.673 5
  21931467.198    -7569837.398 7  -5843428.519 7
  21333792.151    -9030610.091 7  -6961109.878 7
 95  2 14 17  7 59.9990000  0  6 25 18 14 15 29 22
  22651705.854     6900572.314 6   5343507.050 6
  24205265.878    -2056799.734 4  -1463043.013 1
  20278293.854    -7580105.230 7  -5840804.728 8
  23144958.073     7835320.669 5   6068938.471 5
  21919786.159    -7631221.149 7  -5891260.003 7
  21323507.776    -9084648.798 7  -7003217.953 7
 95  2 14 17  8 29.9990000  0  6 25 18 14 15 29 22
  22665604.433     6973607.369 6   5400417.439 6
  24188298.542    -2145971.952 3  -1532527.778 1
  20270400.253    -7621584.488 7  -5873126.233 8
  23160826.651     7918705.838 5   6133913.818 5
  21908123.120    -7692506.861 7  -5939015.102 7
  21313329.917    -9138129.652 7  -7044891.338 7
 95  2 14 17  8 59.9990000  0  6 25 18 14 15 29 22
  22679531.979     7046789.663 6   5457442.559 6
  24171333.284    -2235117.589 3  -1601991.870 1
  20262598.370    -7662567.333 7  -5905060.919 8
  23176718.831     8002233.445 5   6199000.158 5
  21896485.112    -7753684.477 7  -5986685.967 7
  21303265.769    -9191026.464 7  -7086109.623 7
 95  2 14 17  9 29.9990000  0  6 25 18 14 15 29 22
  22693485.050     7120123.292 6   5514585.609 6
  24154375.229    -2324248.345 4  -1671444.377 1
  20254893.894    -7703058.482 7  -5936612.467 8
  23192640.925     8085897.371 5   6264192.709 5
  21884857.769    -7814766.021 7  -6034281.967 7
  21293314.026    -9243332.080 7  -7126867.235 8
 95  2 14 17  9 59.9990000  0  6 25 18 14 15 29 22
  22707468.261     7193605.901 6   5571844.739 6
  24137416.034    -2413365.121 3  -1740885.976 1
  20247284.245    -7743063.623 7  -5967785.307 8
  23208586.722     8169693.715 5   6329488.449 5
  21873256.347    -7875747.697 7  -6081800.155 7
  21283465.808    -9295064.595 7  -7167178.272 8
 95  2 14 17 10 29.9990000  0  6 25 18 14 15 29 22
  22721478.948     7267222.513 6   5629208.285 6
  24120461.386    -2502463.319 3  -1810313.078 1
  20239759.995    -7782589.063 7  -5998584.359 8
  23224558.198     8253619.477 5   6394885.032 5
  21861670.683    -7936627.170 6  -6129238.706 7
  21273729.972    -9346241.624 7  -7207056.461 8
 95  2 14 17 10 59.9990000  0  6 25 18 14 15 29 22
  22735509.237     7340955.738 6   5686662.682 6
  24103502.167    -2591557.335 3  -1879736.938 1
  20232332.042    -7821641.351 7  -6029014.730 8
  23240551.792     8337664.962 5   6460374.894 5
  21850102.714    -7997409.047 7  -6176601.215 7
  21264092.362    -9396875.210 7  -7246511.192 8
 95  2 14 17 11 29.9990000  0  6 25 18 14 15 29 22
  22749562.276     7414804.849 6   5744207.392 6
  24086552.597    -2680646.502 3  -1949157.037 1
  20224989.011    -7860207.245 7  -6059066.076 8
  23256567.995     8421824.823 5   6525953.892 5
  21838551.854    -8058105.362 7  -6223897.034 7
  21254561.448    -9446983.952 7  -7285556.939 8
 95  2 14 17 11 59.9990000  0  6 25 18 14 15 29 22
  22763644.448     7488800.135 6   5801866.007 6
  24069607.214    -2769704.869 3  -2018553.168 1
  20217752.128    -7898256.892 7  -6088715.161 8
  23272605.854     8506112.936 5   6591632.830 5
  21827021.183    -8118708.555 7  -6271120.298 7
  21245124.198    -9496550.839 7  -7324180.460 8
 95  2 14 17 12 29.9990000  0  6 25 18 14 15 29 22
  22777750.675     7562938.806 6   5859636.342 6
  24052658.698    -2858756.838 3  -2087944.264 1
  20210607.964    -7935781.456 7  -6117955.088 8
  23288667.128     8590518.613 5   6657403.369 5
  21815505.081    -8179235.271 7  -6318283.974 7
  21235797.636    -9545577.791 7  -7362383.260 8
 95  2 14 17 12 59.9990000  0  6 25 18 14 15 29 22
  22791888.698     7637232.777 6   5917527.687 6
  24035715.050    -2947798.525 3  -2157327.327 1
  20203573.347    -7972760.274 7  -6146769.762 8
  23304751.909     8675039.546 5   6723263.710 5
  21804002.714    -8239683.136 7  -6365386.195 7
  21226568.878    -9594052.015 7  -7400155.349 8
 95  2 14 17 13 29.9990000  0  6 25 18 14 15 29 22
  22806058.495     7711693.445 6   5975548.914 6
  24018775.675    -3036810.905 3  -2226687.558 2
  20196642.159    -8009181.539 7  -6175149.976 8
  23320859.487     8759682.707 5   6789219.287 5
  21792517.112    -8300025.073 7  -6412405.883 7
  21217457.581    -9641956.193 7  -7437483.251 8
 95  2 14 17 13 59.9990000  0  6 25 18 14 15 29 22
  22820255.526     7786296.524 6   6033681.111 6
  24001841.081    -3125819.048 4  -2296044.513 3
  20189815.034    -8045060.375 7  -6203107.524 8
  23336987.230     8844431.648 5   6855257.309 5
  21781051.659    -8360263.289 7  -6459344.748 7
  21208445.503    -9689304.619 7  -7474378.098 8
 95  2 14 17 14 29.9990000  0  6 25 18 14 15 29 22
  22834472.995     7861013.186 6   6091901.811 6
  23984906.151    -3214815.777 3  -2365392.564 2
  20183090.308    -8080404.040 7  -6230648.054 8
  23353133.612     8929281.631 5   6921374.054 5
  21769614.011    -8420385.272 7  -6506193.048 7
  21199540.347    -9736099.697 7  -7510841.766 8
 95  2 14 17 14 59.9990000  0  6 25 18 14 15 29 22
  22848712.120     7935832.928 6   6150202.841 6
  23967975.276    -3303773.537 3  -2434710.292 2
  20176463.534    -8115210.507 7  -6257769.987 8
  23369298.604     9014231.103 5   6987568.323 5
  21758199.862    -8480375.983 7  -6552939.064 7
  21190743.370    -9782326.835 7  -7546862.893 8
 95  2 14 17 15 29.9990000  0  6 25 18 14 15 29 22
  22862971.823     8010768.074 6   6208593.802 6
  23951057.604    -3392679.159 5  -2503987.362 1
  20169949.722    -8149464.973 7  -6284461.783 8
  23385487.948     9099299.367 5   7053855.164 5
  21746808.909    -8540220.706 7  -6599571.311 7
  21182056.542    -9827965.632 7  -7582425.567 8
 95  2 14 17 15 59.9990000  0  6 25 18 14 15 29 22
  22877250.050     8085802.262 6   6267061.934 6
  23934146.792    -3481556.689 5  -2573242.567 2
  20163527.948    -8183195.172 7  -6310745.072 8
  23401691.448     9184457.014 5   7120211.658 5
  21735438.987    -8599968.390 7  -6646127.951 7
  21173486.190    -9873037.464 7  -7617546.473 8
 95  2 14 17 16 29.9990000  0  6 25 18 14 15 29 22
  22891545.722     8160934.897 6   6325606.779 6
  23917238.354    -3570403.193 4  -2642473.577 2
  20157211.722    -8216397.613 7  -6336617.122 8
  23417910.956     9269700.122 5   7186634.738 5
  21724083.214    -8659625.666 7  -6692614.152 7
  21165017.026    -9917530.077 7  -7652216.033 8
 95  2 14 17 16 59.9990000  0  6 25 18 14 15 29 22
  22905866.979     8236184.936 6   6384243.111 6
  23900335.206    -3659230.839 4  -2711689.865 2
  20150994.190    -8249069.196 7  -6362075.513 8
  23434149.050     9355028.198 5   7253124.011 4
  21712754.550    -8719192.204 7  -6739029.648 7
  21156658.503    -9961440.343 7  -7686431.836 8
 95  2 14 17 17 29.9990000  0  6 25 18 14 15 29 22
  22920211.104     8311571.955 6   6442986.179 6
  23883436.354    -3748039.323 5  -2780891.254 2
  20144874.839    -8281221.599 7  -6387129.349 8
  23450406.604     9440444.002 5   7319681.652 5
  21701436.073    -8778663.885 7  -6785371.227 7
  21148415.120   -10004771.898 7  -7720196.688 8
 95  2 14 17 17 59.9990000  0  6 25 18 14 15 29 22
  22934583.104     8387089.613 6   6501831.051 6
  23866539.948    -3836829.127 5  -2850078.102 4
  20138854.097    -8312853.671 7  -6411777.732 8
  23466675.550     9525945.761 5   7386306.261 4
  21690140.401    -8838026.778 7  -6831628.043 7
  21140282.269   -10047516.908 7  -7753504.500 8
 95  2 14 17 18 29.9990000  0  6 25 18 14 15 29 22
  22948972.823     8462718.948 6   6560762.954 6
  23849644.503    -3925600.684 4  -2919250.679 3
  20132934.737    -8343956.752 7  -6436013.915 8
  23482961.370     9611526.606 5   7452992.503 4
  21678868.479    -8897277.718 7  -6877797.622 7
  21132255.558   -10089682.371 7  -7786360.718 8
 95  2 14 17 18 59.9990000  0  6 25 18 14 15 29 22
  22963385.956     8538462.072 6   6619783.520 6
  23832762.089    -4014345.822 5  -2988402.682 2
  20127119.597    -8374537.137 7  -6459842.800 8
  23499260.448     9697183.162 5   7519737.749 4
  21667605.894    -8956417.328 7  -6923880.445 7
  21124340.300   -10131274.680 7  -7818770.326 8
 95  2 14 17 19 29.9990000  0  6 25 18 14 15 29 22
  22977821.386     8614306.706 6   6678883.189 6
  23815877.026    -4103051.221 5  -3057523.727 2
  20121402.901    -8404582.978 7  -6483255.165 8
  23515574.323     9782918.669 5   7586544.504 4
  21656375.714    -9015454.172 7  -6969883.189 7
  21116533.659   -10172283.862 7  -7850725.541 8
 95  2 14 17 19 59.9990000  0  6 25 18 14 15 29 22
  22992269.964     8690237.017 6   6738049.606 6
  23799001.519    -4191730.272 5  -3126624.281 2
  20115792.487    -8434067.120 7  -6506229.835 8
  23531903.136     9868729.282 5   7653409.773 4
  21645158.354    -9074402.608 7  -7015817.034 7
  21108840.870   -10212718.348 7  -7882232.945 8
 95  2 14 17 20 29.9990000  0  6 25 18 14 15 29 22
  23006739.144     8766272.354 6   6797297.867 6
  23782135.917    -4280371.258 4  -3195695.115 3
  20110286.933    -8462982.742 7  -6528761.504 8
  23548248.995     9954612.375 5   7720331.523 3
  21633954.300    -9133279.814 7  -7061695.390 7
  21101258.065   -10252582.571 7  -7913295.976 8
 95  2 14 17 20 59.9990000  0  6 25 18 14 15 29 22
  23021226.112     8842405.371 6   6856622.241 6
  23765274.222    -4368997.031 5  -3264754.123 3
  20104888.651    -8491351.115 7  -6550866.750 8
  23564602.909    10040552.812 5   7787297.949 4
  21622762.347    -9192090.622 7  -7107521.997 7
  21093778.683   -10291889.486 7  -7943924.756 8
 95  2 14 17 21 29.9990000  0  6 25 18 14 15 29 22
  23035737.276     8918658.140 6   6916039.918 6
  23748410.354    -4457596.839 5  -3333792.909 3
  20099597.534    -8519144.800 7  -6572524.192 8
  23580968.167    10126561.123 5   7854317.259 5
  21611591.386    -9250808.152 7  -7153275.928 7
  21086409.769   -10330618.118 7  -7974102.916 8
 95  2 14 17 21 59.9990000  0  6 25 18 14 15 29 22
  23050272.948     8995043.951 6   6975561.275 6
  23731552.542    -4546170.749 4  -3402811.528 3
  20094417.620    -8546363.646 7  -6593733.701 8
  23597348.745    10212630.460 5   7921384.141 4
  21600436.636    -9309410.100 7  -7198939.783 7
  21079153.972   -10368764.452 7  -8003827.333 8
 95  2 14 17 22 29.9990000  0  6 25 18 14 15 29 22
  23064833.612     9071563.484 6   7035186.829 6
  23714710.151    -4634702.649 5  -3471797.399 3
  20089345.503    -8573020.111 7  -6614504.986 8
  23613737.253    10298759.650 5   7988497.649 4
  21589315.979    -9367871.457 7  -7244494.092 7
  21072007.730   -10406299.196 7  -8033075.178 8
 95  2 14 17 22 59.9990000  0  6 25 18 14 15 29 22
  23079417.604     9148198.375 6   7094902.256 6
  23697867.386    -4723202.204 5  -3540758.081 3
  20084380.440    -8599111.606 7  -6634836.037 8
  23630138.183    10384945.769 5   8055655.533 4
  21578221.644    -9426166.049 7  -7289918.450 8
  21064984.526   -10443209.286 7  -8061836.268 8
 95  2 14 17 23 29.9990000  0  6 25 18 14 15 29 22
  23094019.847     9224931.543 6   7154694.251 6
  23681033.050    -4811671.235 4  -3609694.968 2
  20079523.440    -8624634.669 7  -6654724.157 8
  23646547.542    10471182.664 5   8122852.952 5
  21567160.440    -9484299.103 7  -7335216.937 8
  21058080.636   -10479486.533 7  -8090104.264 8
 95  2 14 17 23 59.9990000  0  6 25 18 14 15 29 22
  23108634.573     9301733.891 6   7214540.156 6
  23664200.925    -4900125.785 5  -3678620.587 3
  20074770.456    -8649611.022 7  -6674186.264 8
  23662969.276    10557460.863 5   8190082.564 5
  21556118.925    -9542292.591 7  -7380406.663 8
  21051298.854   -10515139.818 7  -8117886.040 8
 95  2 14 17 24 29.9990000  0  6 25 18 14 15 29 22
  23123260.245     9378592.974 6   7274430.248 6
  23647367.878    -4988574.396 5  -3747541.573 2
  20070117.808    -8674059.538 7  -6693237.082 8
  23679393.714    10643776.362 5   8257341.255 4
  21545106.675    -9600171.927 7  -7425507.443 8
  21044630.495   -10550177.092 7  -8145187.807 8
 95  2 14 17 24 59.9990000  0  6 25 18 14 15 29 22
  23137899.097     9455520.155 6   7334373.415 6
  23630541.034    -5077009.547 4  -3816452.065 2
  20065568.972    -8697974.164 7  -6711871.877 8
  23695826.214    10730136.536 5   8324634.747 5
  21534113.886    -9657943.923 7  -7470524.588 8
  21038076.183   -10584610.625 7  -8172019.122 8
 95  2 14 17 25 29.9990000  0  6 25 18 14 15 29 22
  23152552.417     9532523.586 6   7394376.010 6
  23613716.886    -5165408.239 4  -3885334.134 2
  20061121.987    -8721361.457 7  -6730095.761 8
  23712262.948    10816539.664 5   8391961.707 3
  21523138.019    -9715628.892 7  -7515473.920 8
  21031632.003   -10618450.854 7  -8198388.123 8
 95  2 14 17 25 59.9990000  0  6 25 18 14 15 29 22
  23167224.323     9609620.806 6   7454451.676 6
  23596904.714    -5253765.534 5  -3954183.974 2
  20056767.222    -8744225.444 7  -6747911.873 8
  23728717.722    10902980.339 5   8459317.911 5
  21512176.597    -9773237.028 7  -7560363.374 8
  21025306.308   -10651702.524 7  -8224298.510 8
 95  2 14 17 26 29.9990000  0  6 25 18 14 15 29 22
  23181914.409     9686818.377 6   7514605.527 5
  23580099.753    -5342068.314 5  -4022991.309 2
  20052519.854    -8766542.864 7  -6765302.092 8
  23745175.425    10989453.876 5   8526699.742 3
  21501227.300    -9830771.045 7  -7605195.091 8
  21019094.378   -10684365.244 7  -8249749.976 8
 95  2 14 17 26 59.9990000  0  6 25 18 14 15 29 22
  23196623.479     9764121.118 6   7574841.331 6
  23563307.065    -5430315.098 4  -4091755.050 1
  20048383.245    -8788292.416 7  -6782249.806 8
  23761633.495    11075957.130 5   8594104.719 5
  21490294.401    -9888217.670 7  -7649958.702 8
  21012988.386   -10716443.728 7  -8274746.191 8
 95  2 14 17 27 29.9990000  0  6 25 18 14 15 29 22
  23211356.604     9841538.857 6   7635166.746 5
  23546523.089    -5518507.932 5  -4160476.703 2
  20044358.526    -8809448.346 7  -6798734.962 8
  23778102.995    11162497.001 5   8661538.218 3
  21479380.292    -9945555.506 7  -7694637.544 8
  21006997.065   -10747912.341 7  -8299267.194 8
 95  2 14 17 27 59.9990000  0  7 25 18 14 15 29 22 19
  23226106.737     9919049.154 6   7695564.289 6
  23529748.675    -5606681.149 5  -4229183.106 2
  20040439.448    -8830020.599 7  -6814765.314 8
  23794573.440    11249054.612 5   8728985.556 3
  21468493.050   -10002777.959 7  -7739226.478 8
  21001129.175   -10778781.344 7  -8323320.969 8
  24474254.565          -0.02213
 95  2 14 17 28 29.9990000  0  7 25 18 14 15 29 22 19
  23240871.276     9996638.062 6   7756023.083 6
  23512970.855    -5694839.993 5  -4297878.276 1
  20036637.542    -8850018.262 7  -6830347.931 8
  23811045.894    11335620.143 5   8796439.074 2
  21457631.190   -10059866.801 7  -7783711.302 8
  20995363.269   -10809059.925 7  -8346914.669 8
  24454916.120     -101617.884 3
 95  2 14 17 28 59.9990000  0  7 25 18 14 15 29 22 19
  23255648.808    10074302.228 6   7816540.530 6
  23496199.964    -5782981.324 5  -4366559.810 3
  20032940.839    -8869452.044 7  -6845491.160 8
  23827521.386    11422199.085 5   8863903.027 4
  21446794.808   -10116794.894 7  -7828070.870 8
  20989716.776   -10838731.127 7  -8370035.090 8
  24435602.636     -203094.153 3        -0.36512
 95  2 14 17 29 29.9990000  0  7 25 18 14 15 29 22 19
  23270439.917    10152024.896 6   7877103.568 6
  23479432.198    -5871091.949 5  -4435217.412 2
  20029344.925    -8888321.311 7  -6860194.513 8
  23844000.487    11508793.530 4   8931379.050 3
  21435995.128   -10173559.743 7  -7872303.233 8
  20984195.167   -10867772.624 7  -8392664.829 8
  24416324.870     -304400.277 3    -78940.184 3
 95  2 14 17 29 59.9990000  0  7 25 18 14 15 29 22 19
  23285241.019    10229801.850 6   7937708.905 5
  23462675.417    -5959164.409 5  -4503845.292 2
  20025865.589    -8906633.293 7  -6874463.601 8
  23860482.776    11595399.243 4   8998863.865 3
  21425223.979   -10230169.481 7  -7916414.726 8
  20978779.253   -10896194.944 7  -8414812.083 9
  24397087.308     -405516.950 3   -157732.348 2
 95  2 14 17 30 29.9990000  0  7 25 18 14 15 29 22 19
  23300049.878    10307627.893 6   7998352.492 6
  23445918.651    -6047204.926 5  -4572448.272 3
  20022484.823    -8924378.874 7  -6888291.351 8
  23876961.558    11682011.740 4   9066353.968 2
  21414473.729   -10286649.925 7  -7960425.468 8
  20973494.519   -10923999.595 7  -8436478.036 8
  24377881.847     -506425.167 3   -236362.063 2
 95  2 14 17 30 59.9990000  0  7 25 18 14 15 29 22 19
  23314868.315    10385494.778 6   8059027.910 5
  23429172.230    -6135216.954 5  -4641029.076 3
  20019219.651    -8941556.501 7  -6901676.538 8
  23893445.698    11768624.810 5   9133844.495 3
  21403745.479   -10343030.174 7  -8004358.141 8
  20968316.542   -10951185.635 7  -8457661.956 8
  24358720.956     -607118.170 3   -314824.081 3
 95  2 14 17 31 29.9990000  0  7 25 18 14 15 29 22 19
  23329696.737    10463421.443 6   8119749.893 6
  23412424.409    -6223205.415 5  -4709591.495 2
  20016056.120    -8958163.617 7  -6914617.168 8
  23909925.667    11855232.042 4   9201330.503 4
  21393032.823   -10399315.076 7  -8048216.520 8
  20963262.659   -10977772.129 7  -8478378.694 8
  24339595.729     -707618.462 2   -393135.934 2
 95  2 14 17 31 59.9990000  0  7 25 18 14 15 29 22 19
  23344544.854    10541444.180 6   8180546.757 6
  23395688.198    -6311162.983 5  -4778129.841 2
  20013010.386    -8974193.938 7  -6927108.354 8
  23926407.362    11941843.340 4   9268819.664 4
  21382344.019   -10455493.560 7  -8091991.972 8
  20958312.753   -11003753.230 7  -8498623.694 8
  24320510.730     -807929.797 3   -471300.543 2
 95  2 14 17 32 29.9990000  0  7 25 18 14 15 29 22 19
  23359409.823    10619559.035 6   8241415.394 6
  23378960.331    -6399079.274 5  -4846636.002 3
  20010062.667    -8989650.565 7  -6939152.500 8
  23942888.269    12028451.934 4   9336306.730 2
  21371676.800   -10511565.134 7  -8135684.121 8
  20953489.644   -11029121.890 7  -8518391.466 9
  24301452.300     -908067.969 3   -549330.221 3
 95  2 14 17 32 59.9990000  0  7 25 18 14 15 29 22 19
  23374292.261    10697768.115 6   8302357.447 6
  23362238.417    -6486942.742 5  -4915101.048 3
  20007233.112    -9004542.075 7  -6950756.297 8
  23959368.245    12115055.732 4   9403790.058 4
  21361024.597   -10567526.200 7  -8179290.154 8
  20948776.144   -11053872.044 7  -8537677.284 9
  24282430.542    -1008038.168 3   -627228.979 3
 95  2 14 17 33 29.9990000  0  7 25 18 14 15 29 22 19
  23389192.206    10776062.657 6   8363366.105 5
  23345525.964    -6574767.667 5  -4983536.059 3
  20004507.534    -9018867.463 7  -6961918.959 8
  23975846.776    12201646.541 4   9471263.290 2
  21350397.144   -10623383.076 7  -8222814.997 8
  20944184.003   -11078008.717 7  -8556485.062 9
  24263436.503    -1107851.277 3   -705005.349 4
 95  2 14 17 33 59.9990000  0  7 25 18 14 15 29 22 19
  23404101.034    10854408.715 6   8424414.895 5
  23328821.565    -6662556.922 5  -5051943.266 3
  20001884.737    -9032624.313 7  -6972638.604 8
  23992321.815    12288215.580 4   9538719.525 2
  21339786.081   -10679155.801 7  -8266274.270 8
  20939711.659   -11101520.125 7  -8574805.625 9
  24244468.347    -1207505.402 3   -782657.786 5
 95  2 14 17 34 29.9990000  0  7 25 18 14 15 29 22 19
  23419019.925    10932804.269 6   8485502.256 5
  23312125.308    -6750298.864 5  -5120313.583 4
  19999383.253    -9045793.208 7  -6982900.104 8
  24008795.550    12374773.724 4   9606167.286 1
  21329188.737   -10734825.080 7  -8309652.935 8
  20935355.558   -11124394.645 7  -8592629.919 9
  24225543.269    -1306987.660 3   -860176.328 3
 95  2 14 17 34 59.9990000  0  7 25 18 14 15 29 22 19
  23433939.972    11011226.476 5   8546610.372 6
  23295427.542    -6838035.766 5  -5188679.991 4
  19996986.464    -9058396.062 7  -6992720.539 8
  24025259.331    12461294.132 4   9673585.626 2
  21318614.448   -10790409.017 7  -8352965.106 8
  20931117.136   -11146666.301 7  -8609984.446 9
  24206633.769    -1406322.481 3   -937579.975 2
 95  2 14 17 35 29.9990000  0  7 25 18 14 15 29 22 19
  23448872.511    11089691.982 5   8607752.234 5
  23278736.839    -6925745.839 5  -5257025.483 2
  19994696.167    -9070409.664 7  -7002081.811 8
  24041717.354    12547797.315 4   9740990.575 1
  21308062.745   -10845852.398 7  -8396167.742 8
  20927000.722   -11168315.093 7  -8626853.631 9
  24187765.565    -1505483.841 3  -1014848.452 3
 95  2 14 17 35 59.9990000  0  7 25 18 14 15 29 22 19
  23463810.558    11168191.155 5   8668920.327 6
  23262052.792    -7013424.079 5  -5325346.191 4
  19992521.089    -9081842.625 7  -7010990.633 8
  24058172.659    12634274.911 4   9808375.567 2
  21297544.659   -10901134.488 7  -8439244.705 8
  20922997.980   -11189347.377 7  -8643242.434 8
  24168935.769    -1604472.136 3  -1091982.081 3
 95  2 14 17 36 29.9990000  0  7 25 18 14 15 29 22 19
  23478757.276    11246749.349 5   8730134.408 5
  23245375.284    -7101072.224 5  -5393643.444 5
  19990459.198    -9092692.614 7  -7019445.198 8
  24074626.753    12720723.108 5   9875737.661 3
  21287055.565   -10956243.161 7  -8482186.538 8
  20919109.565   -11209776.394 7  -8659161.149 9
  24150124.229    -1703291.275 3  -1168983.907 3
 95  2 14 17 36 59.9990000  0  7 25 18 14 15 29 22 19
  23493722.558    11325367.224 5   8791394.999 5
  23228704.565    -7188678.395 5  -5461907.982 4
  19988508.253    -9102942.130 7  -7027431.863 8
  24091073.550    12807147.948 5   9943081.537 4
  21276603.362   -11011168.403 7  -8524985.436 8
  20915338.019   -11229589.857 7  -8674600.219 9
  24131355.784    -1801917.520 3  -1245835.411 2
 95  2 14 17 37 29.9990000  0  7 25 18 14 15 29 22 19
  23508692.089    11404033.428 5   8852693.244 5
  23212038.472    -7276235.349 5  -5530134.170 4
  19986671.784    -9112584.652 7  -7034945.545 8
  24107512.729    12893549.117 4  10010406.977 2
  21266183.464   -11065924.919 7  -8567652.866 8
  20911691.050   -11248768.899 7  -8689544.939 9
  24112631.433    -1900341.379 4  -1322529.220 4
 95  2 14 17 37 59.9990000  0  7 25 18 14 15 29 22 19
  23523669.222    11482747.613 5   8914028.870 5
  23195387.190    -7363752.320 5  -5598329.194 4
  19984949.589    -9121629.020 7  -7041993.135 8
  24123947.683    12979908.045 4  10077699.494 3
  21255789.175   -11120560.107 7  -8610225.746 8
  20908159.940   -11267328.185 7  -8704006.730 9
  24093935.839    -1998577.452 4  -1399076.701 1
 95  2 14 17 38 29.9990000  0  7 25 18 14 15 29 22 19
  23538659.448    11561510.029 5   8975402.080 5
  23178742.448    -7451232.446 5  -5666495.507 5
  19983340.042    -9130085.205 7  -7048582.399 8
  24140371.495    13066219.313 4  10144954.855 4
  21245408.237   -11175103.880 7  -8652727.404 8
  20904745.815   -11285268.948 7  -8717986.558 9
  24075278.347    -2096626.584 4  -1475478.514 3
 95  2 14 17 38 59.9990000  0  7 25 18 14 15 29 22 19
  23553649.901    11640307.505 5   9036802.615 5
  23162101.823    -7538670.203 5  -5734628.800 5
  19981843.354    -9137956.225 7  -7054715.689 8
  24156788.222    13152488.580 3  10212177.503 3
  21235047.808   -11229557.720 7  -8695158.982 8
  20901450.206   -11302573.220 7  -8731470.418 9
  24056661.831    -2194476.513 5  -1551725.129 2
 95  2 14 17 39 29.9990000  0  7 25 18 14 15 29 22 19
  23568660.144    11719167.933 5   9098252.204 5
  23145471.737    -7626057.772 5  -5802722.992 5
  19980458.144    -9145243.547 7  -7060394.155 8
  24173198.940    13238722.064 3  10279372.273 4
  21224700.987   -11283915.220 7  -8737515.489 8
  20898279.722   -11319234.825 7  -8744453.497 9
  24038071.878    -2292132.400 4  -1627820.520 3
 95  2 14 17 39 59.9990000  0  7 25 18 14 15 29 22 19
  23583677.878    11798090.013 5   9159749.829 5
  23128852.769    -7713392.278 5  -5870775.809 5
  19979179.925    -9151959.094 7  -7065627.078 8
  24189602.722    13324913.554 3  10346534.317 3
  21214381.198   -11338154.053 7  -8779779.532 8
  20895226.628   -11335271.050 7  -8756949.270 9
  24019519.253    -2389605.228 3  -1703773.280 2
 95  2 14 17 40 29.9990000  0  7 25 18 14 15 29 22 19
  23598700.534    11877037.707 5   9221267.419 5
  23112238.261    -7800698.676 5  -5938806.741 5
  19978008.331    -9158120.415 7  -7070428.140 8
  24205988.745    13411044.305 3  10413649.030 3
  21204081.894   -11392271.081 7  -8821948.659 8
  20892292.261   -11350696.170 7  -8768968.855 9
  24001011.300    -2486915.404 4  -1779599.310 1
 95  2 14 17 40 59.9990000  0  7 25 18 14 15 29 22 19
  23613727.370    11956013.697 5   9282807.060 5
  23095628.987    -7887973.010 5  -6006812.674 5
  19976943.792    -9163716.934 7  -7074789.096 8
  24222369.526    13497113.637 3  10480715.888 4
  21193811.995   -11446244.062 7  -8864005.546 8
  20889472.933   -11365509.638 7  -8780511.823 9
  23982519.472    -2584058.207 3  -1855294.902 2
 95  2 14 17 41 29.9990000  0  7 25 18 14 15 29 22 19
  23628765.870    12035031.627 5   9344379.365 5
  23079036.815    -7975183.714 5  -6074769.029 5
  19975988.605    -9168734.698 7  -7078699.074 8
  24238734.026    13583130.687 3  10547741.975 2
  21183571.659   -11500051.783 7  -8905933.659 8
  20886773.511   -11379699.270 7  -8791568.687 9
  23964072.761    -2681010.288 3  -1930841.923 3
 95  2 14 17 41 59.9990000  0  7 25 18 14 15 29 22 19
  23643809.464    12114081.753 5   9405976.765 5
  23062453.472    -8062330.119 5  -6142675.266 5
  19975143.167    -9173174.284 7  -7082158.530 8
  24255097.456    13669090.453 3  10614723.468 1
  21173363.089   -11553698.776 7  -8947736.528 8
  20884193.769   -11393268.591 7  -8802142.189 9
  23945662.925    -2777750.047 3  -2006223.446 2
 95  2 14 17 42 29.9990000  0  7 25 18 14 15 29 22 19
  23658865.183    12193195.859 5   9467624.014 5
  23045884.276    -8149399.480 5  -6210521.491 5
  19974410.581    -9177019.288 7  -7085154.667 8
  24271444.144    13755008.310 3  10681672.270 2
  21163185.776   -11607184.460 7  -8989413.705 8
  20881734.581   -11406193.834 7  -8812213.810 9
  23927301.409    -2874243.112 3  -2081412.752 2
 95  2 14 17 42 59.9990000  0  7 25 18 14 15 29 22 19
  23673940.175    12272424.594 5   9529360.584 5
  23029337.315    -8236342.857 5  -6278269.539 5
  19973796.753    -9180229.967 7  -7087656.528 8
  24287795.190    13840923.980 3  10748619.407 1
  21153045.440   -11660469.432 7  -9030934.483 8
  20879408.769   -11418430.632 7  -8821748.981 9
  23909000.151    -2970440.278 3  -2156371.497 2
 95  2 14 17 43 29.9990000  0  7 25 18 14 15 29 22 19
  23689046.472    12351795.356 5   9591207.844 5
  23012819.667    -8323152.246 5  -6345913.211 4
  19973315.026    -9182775.536 7  -7089640.125 8
  24304145.378    13926861.725 3  10815583.722 1
  21142948.612   -11713532.978 7  -9072282.720 8
  20877216.956   -11429940.440 7  -8830717.669 9
  23890746.995    -3066317.304 3  -2231080.755 2
 95  2 14 17 43 59.9990000  0  7 25 18 14 15 29 22 19
  23704164.269    12431242.748 5   9653114.801 5
  22996309.425    -8409913.385 5  -6413519.280 5
  19972948.409    -9184714.989 7  -7091151.429 8
  24320487.979    14012748.337 3  10882508.169 2
  21132881.886   -11766441.774 7  -9113510.369 8
  20875146.972   -11440796.607 7  -8839177.029 9
  23872553.065    -3161964.706 4  -2305611.110 3
 95  2 14 17 44 29.9990000  0  7 25 18 14 15 29 22 19
  23719296.175    12510758.702 5   9715075.176 5
  22979810.269    -8496615.324 5  -6481079.224 5
  19972695.808    -9186034.686 7  -7092179.790 8
  24336825.339    14098582.634 3  10949391.901 1
  21122842.222   -11819187.548 7  -9154610.986 8
  20873207.487   -11450985.482 7  -8847116.420 9
  23854385.300    -3257407.564 3  -2379982.072 2
 95  2 14 17 44 59.9990000  0  7 25 18 14 15 29 22 19
  23734435.698    12590329.682 5   9777078.431 5
  22963324.315    -8583254.593 5  -6548590.338 5
  19972562.104    -9186719.855 7  -7092713.722 8
  24353150.370    14184363.769 3  11016234.218 1
  21112837.229   -11871764.260 7  -9195579.865 8
  20871400.253   -11460505.818 7  -8854534.870 9
  23836258.870    -3352663.057 3  -2454207.059 2
 95  2 14 17 45 29.9990000  0  7 25 18 14 15 29 22 19
  23749587.612    12669952.122 5   9839121.783 5
  22946850.081    -8669825.153 5  -6616047.920 5
  19972552.292    -9186771.764 7
  24369463.011    14270089.830 3  11083033.584 2
  21102863.519   -11924182.759 7  -9236425.465 9
  20869715.269   -11469358.969 7  -8861433.432 9
  23818171.026    -3447725.881 4  -2528281.924 2
 95  2 14 17 45 59.9990000  0  7 25 18 14 15 29 22 19
  23764745.675    12749606.804 5   9901190.270 5
  22930392.456    -8756310.897 5  -6683439.417 5
  19972663.300    -9186204.673 7
  24385762.026    14355750.232 3  11149781.792 1
  21092917.151   -11976449.634 7  -9277152.912 9
  20868148.065   -11477573.845 7  -8867834.641 9
  23800118.409    -3542598.274 4  -2602208.393 3
 95  2 14 17 46 29.9990000  0  7 25 18 14 15 29 22 19
  23779905.597    12829270.320 5   9963265.630 5
  22913945.644    -8842736.488 5  -6750784.030 5
  19972880.729    -9185049.242 7  -7091412.036 8
  24402044.940    14441319.707 4  11216459.235 1
  21082995.550   -12028592.117 7  -9317783.434 9
  20866702.948   -11485179.520 7  -8873761.145 9
  23782101.011    -3637284.099 4  -2675989.515 3
 95  2 14 17 46 59.9990000  0  7 25 18 14 15 29 22 19
  23795071.276    12908965.643 5  10025365.768 5
  22897512.440    -8929096.160 5  -6818077.267 5
  19973212.972    -9183295.658 7  -7090045.638 8
  24418312.948    14526810.679 4  11283075.419 1
  21073099.651   -12080594.908 7  -9358305.097 9
  20865376.636   -11492164.208 7  -8879203.772 9
  23764124.354    -3731749.555 4  -2749598.901 5
 95  2 14 17 47 29.9990000  0  7 25 18 14 15 29 22 19
  23810245.370    12988707.569 5  10087502.230 4
  22881095.222    -9015363.420 5  -6885298.503 5
  19973671.839    -9180922.988 7  -7088196.832 8
  24434572.519    14612237.372 4  11349641.562 1
  21063235.261   -12132429.280 7  -9398695.524 9
  20864163.425   -11498506.292 7  -8884145.660 9
  23746191.972    -3825961.152 4  -2823010.513 4
 95  2 14 17 47 59.9990000  0  7 25 18 14 15 29 22 19
  23825446.354    13068580.006 5  10149740.402 4
  22864710.331    -9101463.875 5  -6952389.749 5
  19974255.128    -9177838.664 7  -7085793.490 8
  24450829.612    14697681.006 4  11416220.849 1
  21053424.362   -12183995.558 7  -9438877.055 9
  20863099.159   -11504122.671 7  -8888522.061 9
  23728327.479    -3919845.859 5  -2896167.397 4
 95  2 14 17 48 29.9990000  0  7 25 18 14 15 29 22 19
  23840647.019    13148465.921 5  10211989.059 4
  22848328.276    -9187535.556 5  -7019458.582 5
  19974955.198    -9174170.837 7  -7082935.470 8
  24467066.894    14783016.110 3  11482715.633 1
  21043637.878   -12235412.041 7  -9478941.858 9
  20862148.769   -11509112.485 7  -8892410.230 9
  23710499.909    -4013540.414 5  -2969176.096 4
 95  2 14 17 48 59.9990000  0  7 25 18 14 15 29 22 19
  23855848.253    13228355.942 5  10274240.908 4
  22831957.909    -9273578.508 5  -7086505.031 5
  19975763.667    -9169927.508 7  -7079629.004 8
  24483286.401    14868239.064 3  11549122.988 2
  21033883.354   -12286678.432 7  -9518889.709 9
  20861317.605   -11513465.468 7  -8895802.169 9
  23692708.612    -4107055.410 5  -3042044.909 4
 95  2 14 17 49 29.9990000  0  7 25 18 14 15 29 22 19
  23871052.190    13308253.179 5  10336498.376 5
  22815590.167    -9359598.718 5  -7153533.751 5
  19976677.534    -9165106.355 7  -7075872.286 8
  24499487.183    14953354.936 3  11615446.934 1
  21024158.472   -12337783.363 7  -9558711.749 9
  20860611.683   -11517193.158 7  -8898706.866 9
  23674941.276    -4200397.207 5  -3114778.744 4
 95  2 14 17 49 59.9990000  0  7 25 18 14 15 29 22 19
  23886258.823    13388156.237 5  10398760.385 5
  22799219.753    -9445625.440 5  -7220567.565 5
  19977704.011    -9159729.584 7  -7071682.615 8
  24515656.136    15038356.191 3  11681681.500 1
  21014460.847   -12388743.440 7  -9598420.912 9
  20860015.050   -11520317.353 7  -8901141.308 9
  23657207.878    -4293578.082 5  -3187387.177 4
 95  2 14 17 50 29.9990000  0  6 25 18 14 29 22 19
  23901465.823    13468070.623 5  10461031.245 5
  22782852.011    -9531644.555 5  -7287595.419 5
  19978829.362    -9153792.611 7  -7067056.430 8
  21004790.089   -12439557.899 7  -9638016.613 9
  20859540.917   -11522833.280 7  -8903101.773 9
  23639507.448    -4386589.166 5  -3259863.312 5
 95  2 14 17 50 59.9990000  0  6 25 18 14 29 22 19
  23916674.222    13547991.976 5  10523307.526 4
  22766487.589    -9617637.132 5  -7354602.622 5
  19980075.745    -9147269.957 7  -7061973.870 8
  20995149.104   -12490220.663 7  -9677494.103 9
  20859172.769   -11524747.517 7  -8904593.384 9
  23621846.253    -4479405.607 5  -3332187.773 4
 95  2 14 17 51 29.9990000  0  6 25 18 14 29 22 19
  23931880.784    13627909.811 5  10585581.071 5
  22750131.308    -9703592.425 5  -7421580.762 5
  19981424.112    -9140155.024 7  -7056429.793 8
  20985539.354   -12540727.284 7  -9716849.928 9
  20858923.644   -11526064.075 7  -8905619.290 9
  23604220.300    -4572020.726 5  -3404355.360 5
 95  2 14 17 51 59.9990000  0  6 25 18 14 29 22 19
  23947086.597    13707812.134 5  10647842.521 5
  22733787.433    -9789483.140 5  -7488508.581 5
  19982894.308    -9132450.581 7  -7050426.350 8
  20975954.065   -12591095.754 7  -9756098.105 9
  20858788.198   -11526760.552 7  -8906162.010 9
  23586640.651    -4664419.332 5  -3476354.244 5
 95  2 14 17 52 29.9990000  0  6 25 18 14 29 22 19
  23962287.831    13787695.474 5  10710089.174 5
  22717458.479    -9875286.362 5  -7555368.233 5
  19984471.925    -9124150.299 7  -7043958.628 8
  20966396.542   -12641323.673 7  -9795236.766 9
  20858780.440   -11526811.919 7
  23569097.378    -4756593.696 5  -3548178.373 3
 95  2 14 17 52 59.9990000  0  6 25 18 14 29 22 19
  23977487.464    13867556.991 5  10772318.841 5
  22701146.073    -9961009.995 5  -7622165.868 5
  19986161.183    -9115269.678 7  -7037038.689 8
  20956865.612   -12691409.987 7  -9834265.078 9
  20858890.425   -11526219.886 7
  23551602.589    -4848542.107 5  -3619826.433 5
 95  2 14 17 53 29.9990000  0  6 25 18 14 29 22 19
  23992684.409    13947425.285 5  10834553.774 4
  22684848.440   -10046647.605 5  -7688896.458 5
  19987963.511    -9105815.370 7  -7029671.718 8
  20947362.894   -12741351.896 7  -9873180.865 9
  20859128.362   -11524976.481 7  -8904771.869 9
  23534145.862    -4940260.991 5  -3691295.614 5
 95  2 14 17 53 59.9990000  0  6 25 18 14 29 22 19
  24007887.409    14027316.989 5  10896806.959 5
  22668564.347   -10132223.225 5  -7755578.754 5
  19989866.854    -9095789.937 7  -7021859.719 8
  20937882.362   -12791174.188 7  -9912003.443 9
  20859489.667   -11523095.606 7  -8903306.273 9
  23516736.479    -5031759.906 5  -3762593.403 5
 95  2 14 17 54 29.9990000  0  6 25 18 14 29 22 19
  24023097.581    14107235.709 5  10959081.182 5
  22652290.128   -10217752.969 5  -7822225.309 5
  19991884.464    -9085182.992 7  -7013594.592 8
  20928424.573   -12840866.256 7  -9950724.550 9
  20859969.190   -11520584.339 7  -8901349.463 9
  23499365.964    -5123054.168 5  -3833731.713 4
 95  2 14 17 54 59.9990000  0  6 25 18 14 29 22 19
  24038306.300    14187167.706 5  11021365.755 5
  22636023.644   -10303237.974 5  -7888836.995 5
  19994017.300    -9073991.689 7  -7004874.127 8
  20918991.370   -12890438.643 7  -9989352.398 9
  20860559.315   -11517471.587 7  -8898923.972 9
  23482023.370    -5214158.783 5  -3904722.224 5
 95  2 14 17 55 29.9990000  0  6 25 18 14 29 22 19
  24053518.394    14267105.833 5  11083655.111 5
  22619764.472   -10388674.900 5  -7955411.211 5
  19996263.550    -9062199.589 7  -6995685.506 8
  20909580.308   -12939899.544 7 -10027893.372 9
  20861262.081   -11513758.145 7  -8896030.403 9
  23464729.019    -5305072.477 5  -3975563.976 4
 95  2 14 17 55 59.9990000  0  6 25 18 14 29 22 19
  24068728.479    14347035.770 5  11145938.073 5
  22603516.503   -10474052.435 5  -8021939.168 5
  19998621.269    -9049794.905 7  -6986019.553 8
  20900191.558   -12989234.231 7 -10066335.996 9
  20862089.667   -11509431.229 7  -8892658.820 9
  23447464.901    -5395794.115 5  -4046256.059 4
 95  2 14 17 56 29.9990000  0  6 25 18 14 29 22 19
  24083931.800    14426929.258 5  11208192.661 5
  22587283.604   -10559357.064 5  -8088410.299 6
  20001092.245    -9036802.270 7  -6975895.454 8
  20890831.683   -13038418.781 7 -10104661.631 9
  20863028.042   -11504500.252 7  -8888816.522 9
  23430237.573    -5486337.573 5  -4116809.317 4
 95  2 14 17 56 59.9990000  0  6 25 18 14 29 22 19
  24099128.581    14506792.124 5  11270423.361 5
  22571068.589   -10644583.275 5  -8154820.335 5
  20003676.019    -9023236.023 7  -6965324.383 8
  20881503.050   -13087442.979 7 -10142862.314 9
  20864078.050   -11498978.000 7  -8884513.498 9
  23413038.808    -5576695.648 5  -4187218.114 4
 95  2 14 17 57 29.9990000  0  6 25 18 14 29 22 19
  24114324.714    14586645.665 5  11332646.815 5
  22554861.714   -10729737.690 5  -8221174.430 5
  20006368.979    -9009093.692 7  -6954304.418 8
  20872209.972   -13136281.969 7 -10180918.671 9
  20865243.167   -11492846.543 7  -8879735.770 9
  23395877.886    -5666863.133 5  -4257478.416 4
 95  2 14 17 57 59.9990000  0  6 25 18 14 29 22 19
  24129519.800    14666497.683 5  11394869.060 5
  22538671.761   -10814821.086 5  -8287473.173 5
  20009167.308    -8994387.918 7  -6942845.400 8
  20862952.425   -13184920.552 7 -10218818.880 9
  20866525.745   -11486106.249 7  -8874483.614 9
  23378753.956    -5756845.716 5  -4327594.643 4
 95  2 14 17 58 29.9990000  0  6 25 18 14 29 22 19
  24144719.894    14746360.612 5  11457099.839 5
  22522493.378   -10899839.874 6  -8353721.586 5
  20012072.558    -8979112.355 7  -6930942.401 8
  20853736.565   -13233353.676 7 -10256558.985 9
  20867925.448   -11478756.920 7  -8868756.885 9
  23361673.503    -5846638.362 5  -4397562.885 5
 95  2 14 17 58 59.9990000  0  6 25 18 14 29 22 19
  24159918.800    14826252.400 5  11519353.086 5
  22506322.565   -10984813.088 6  -8419934.486 5
  20015089.784    -8963246.716 7  -6918579.598 8
  20844558.964   -13281586.591 7 -10294143.080 9
  20869444.394   -11470786.549 7  -8862546.221 9
  23344625.698    -5936222.140 5  -4467368.378 4
 95  2 14 17 59 29.9990000  0  6 25 18 14 29 22 19
  24175129.362    14906163.460 5  11581621.372 5
  22490160.026   -11069748.336 6  -8486117.797 5
  20018221.409    -8946790.561 7  -6905756.659 8
  20835417.144   -13329626.904 7 -10331577.101 9
  20871080.917   -11462186.963 7  -8855845.258 9
  23327615.050    -6025595.650 5  -4537010.047 4
 95  2 14 17 59 59.9990000  0  6 25 18 14 29 22 19
  24190333.894    14986074.488 4  11643889.591 5
  22474006.190   -11154641.308 6  -8552268.162 5
  20021462.222    -8929755.589 7  -6892482.687 8
  20826309.097   -13377492.377 7 -10368874.888 9
  20872836.183   -11452958.179 7  -8848654.000 9
  23310655.120    -6114752.522 5  -4606482.923 2
 95  2 14 18  0 29.9990000  0  6 25 18 14 29 22 19
  24205540.761    15065973.534 5  11706148.517 5
  22457858.737   -11239491.729 6  -8618385.377 5
  20024817.589    -8912132.813 7  -6878750.684 8
  20817232.472   -13425189.798 7 -10406041.722 9
  20874710.839   -11443104.673 7  -8840975.943 9
  23293730.995    -6203687.101 5  -4675782.590 5
 95  2 14 18  0 59.9990000  0  6 25 18 14 29 22 19
  24220739.636    15145858.941 5  11768396.786 5
  22441722.565   -11324291.334 6  -8684462.987 5
  20028281.550    -8893925.846 7  -6864563.476 8
  20808185.776   -13472727.052 7 -10443083.752 9
  20876703.956   -11432626.359 7  -8832811.023 9
  23276844.808    -6292397.684 5  -4744907.715 4
 95  2 14 18  1 29.9990000  0  6 25 18 14 29 22 19
  24235937.104    15225719.176 5  11830625.469 3
  22425599.401   -11409012.109 6  -8750479.179 5
  20031858.034    -8875130.093 7  -6849917.470 8
  20799167.503   -13520116.243 7 -10480010.406 9
  20878819.644   -11421515.674 7  -8824153.357 9
  23260005.956    -6380898.040 5  -4813869.044 5
 95  2 14 18  1 59.9990000  0  6 25 18 14 29 22 19
  24251129.011    15305555.583 5  11892835.581 3
  22409494.698   -11493644.199 6  -8816426.255 5
  20035547.409    -8855741.088 7  -6834809.192 8
  20790176.995   -13567362.948 7 -10516826.032 9
  20881053.589   -11409780.621 7  -8815009.162 9
  23243205.425    -6469185.938 5  -4882664.817 4
 95  2 14 18  2 29.9990000  0  6 25 18 14 29 22 19
  24266319.909    15385380.306 5  11955036.588 2
  22393409.284   -11578181.412 6  -8882299.422 5
  20039350.378    -8835755.609 7  -6819236.126 8
  20781215.745   -13614458.359 7 -10553523.768 9
  20883402.159   -11397433.143 7  -8805387.757 9
  23226445.323    -6557256.106 5  -4951290.936 5
 95  2 14 18  2 59.9990000  0  5 18 14 29 22 19
  22377342.940   -11662610.063 6  -8948087.980 5
  20043266.769    -8815173.831 7  -6803198.415 8
  20772281.394   -13661403.190 7 -10590104.182 9
  20885871.901   -11384459.343 7  -8795278.322 9
  23209728.855    -6645107.914 5  -5019746.893 4
 95  2 14 18  3 29.9990000  0  5 18 14 29 22 19
  22361294.511   -11746939.059 6  -9013798.890 5
  20047296.573    -8794003.120 7  -6786701.794 8
  20763378.229   -13708199.200 7 -10626568.622 9
  20888458.151   -11370866.801 7  -8784686.739 9
  23193055.120    -6732738.806 5  -5088030.695 5
 95  2 14 18  3 59.9990000  0  5 18 14 29 22 19
  22345262.331   -11831186.791 6  -9079446.477 5
  20051435.058    -8772258.307 7  -6769757.827 8
  20754504.292   -13754826.718 7 -10662901.774 9
  20891159.479   -11356663.408 7  -8773619.169 9
  23176414.722    -6820138.840 5  -5156134.607 5
 95  2 14 18  4 29.9990000  0  5 18 14 29 22 19
  22329240.487   -11915377.058 6  -9145049.285 5
  20055682.573    -8749952.476 7  -6752376.706 8
  20745660.644   -13801296.686 7 -10699112.155 9
  20893976.901   -11341853.909 7  -8762079.312 9
  23159825.198    -6907342.070 5  -5224085.147 5
 95  2 14 18  4 59.9990000  0  5 18 14 29 22 19
  22313228.753   -11999525.350 6  -9210619.397 5
  20060032.706    -8727090.621 7  -6734562.315 8
  20736848.167   -13847608.224 7 -10735199.089 9
  20896910.667   -11326431.044 7  -8750061.515 9
  23143267.190    -6994357.876 5  -5291889.636 5
 95  2 14 18  5 29.9990000  0  5 18 14 29 22 19
  22297221.956   -12083643.592 6  -9276166.077 5
  20064487.917    -8703671.516 7  -6716313.705 8
  20728071.276   -13893734.414 7 -10771141.598 9
  20899961.456   -11310400.434 7  -8737570.152 9
  23126750.729    -7081170.563 5  -5359535.841 5
 95  2 14 18  5 59.9990000  0  5 18 14 29 22 19
  22281224.714   -12167709.296 6  -9341671.829 5
  20069050.550    -8679680.462 7  -6697619.418 8
  20719332.815   -13939656.136 7 -10806924.777 9
  20903131.448   -11293760.640 7  -8724604.117 9
  23110269.667    -7167770.843 5  -5427016.514 5
 95  2 14 18  6 29.9990000  0  5 18 14 29 22 19
  22265240.097   -12251702.652 6  -9407121.203 5
  20073730.729    -8655098.476 7  -6678464.664 8
  20710632.292   -13985371.953 7 -10842547.508 9
  20906411.933   -11276519.030 7  -8711169.127 9
  23093830.831    -7254147.203 5  -5494322.715 5
 95  2 14 18  6 59.9990000  0  5 18 14 29 22 19
  22249271.354   -12335628.196 6  -9472517.727 5
  20078521.769    -8629934.648 7  -6658856.528 8
  20701973.245   -14030882.322 7 -10878010.159 9
  20909801.167   -11258691.506 7  -8697277.578 9
  23077441.300    -7340282.115 5  -5561440.770 5
 95  2 14 18  7 29.9980000  0  5 18 14 29 22 19
  22233318.201   -12419458.759 6  -9537840.251 5
  20083422.818    -8604176.203 7  -6638785.060 9
  20693351.998   -14076182.560 7 -10913309.060 9
  20913302.584   -11240287.517 7  -8682936.832 9
  23061095.803    -7426164.509 5  -5628362.066 5
 95  2 14 18  7 59.9980000  0  5 18 14 29 22 19
  22217384.076   -12503189.323 6  -9603084.843 6
  20088432.764    -8577830.211 7  -6618255.754 9
  20684767.482   -14121298.603 7 -10948464.435 9
  20916918.123   -11221305.789 7  -8668145.906 9
  23044798.240    -7511820.382 5  -5695106.856 5
 95  2 14 18  8 29.9980000  0  5 18 14 29 22 19
  22201468.717   -12586829.518 6  -9668259.029 5
  20093557.725    -8550902.814 7  -6597273.412 9
  20676216.209   -14166233.765 7 -10983478.864 9
  20920643.623   -11201732.157 7  -8652893.760 9
  23028538.701    -7597259.323 5  -5761682.606 5
 95  2 14 18  8 59.9980000  0  5 18 14 29 22 19
  22185568.865   -12670383.013 6  -9733365.645 6
  20098791.748    -8523408.376 7  -6575849.217 9
  20667701.287   -14210980.999 7 -11018346.849 9
  20924480.232   -11181555.262 7  -8637171.543 9
  23012316.967    -7682493.964 5  -5828099.159 4
 95  2 14 18  9 29.9980000  0  5 18 14 29 22 19
  22169687.654   -12753846.616 6  -9798402.222 6
  20104129.318    -8495367.254 7  -6553999.034 8
  20659219.475   -14255548.725 7 -11053074.957 9
  20928432.131   -11160784.619 7  -8620986.665 9
  22996137.779    -7767543.521 5  -5894371.513 5
 95  2 14 18  9 59.9980000  0  5 18 14 29 22 19
  22153819.271   -12837224.467 6  -9863371.975 6
  20109566.670    -8466766.275 7  -6531712.600 9
  20650774.256   -14299934.699 7 -11087661.451 9
  20932504.334   -11139400.265 7  -8604323.574 9
  22979986.193    -7852397.004 5  -5960491.082 5
 95  2 14 18 10 29.9980000  0  5 18 14 29 22 19
  22137968.350   -12920524.356 6  -9928280.980 6
  20115120.912    -8437590.391 7  -6508978.184 9
  20642364.631   -14344129.188 7 -11122098.726 9
  20936688.662   -11117407.868 7  -8587186.677 9
  22963878.029    -7937041.333 5  -6026447.667 5
 95  2 14 18 10 59.9980000  0  5 18 14 29 22 19
  22122133.600   -13003741.326 6  -9993125.382 6
  20120785.529    -8407838.125 7  -6485794.641 9
  20633989.193   -14388135.968 7 -11156389.739 9
  20940982.662   -11094827.923 7  -8569591.948 9
  22947815.139    -8021458.533 5  -6092227.282 5
 95  2 14 18 11 29.9980000  0  5 18 14 29 22 19
  22106312.045   -13086880.522 6 -10057909.173 6
  20126555.201    -8377491.429 7  -6462147.910 8
  20625651.053   -14431960.666 7 -11190538.867 9
  20945394.654   -11071665.222 7  -8551543.129 8
  22931797.021    -8105636.036 5  -6157820.118 5
 95  2 14 18 11 59.9980000  0  5 18 14 29 22 19
  22090502.623   -13169954.658 6 -10122642.274 6
  20132444.545    -8346554.463 7  -6438041.223 9
  20617341.928   -14475617.154 7 -11224556.920 9
  20949911.412   -11047924.195 7  -8533043.658 8
  22915825.006    -8189582.724 5  -6223233.123 5
 95  2 14 18 12 29.9980000  0  5 18 14 29 22 19
  22074712.623   -13252943.095 6 -10187308.602 6
  20138443.240    -8315045.892 7  -6413489.134 9
  20609070.967   -14519080.828 7 -11258424.732 9
  20954536.561   -11023606.733 7  -8514095.024 8
  22899892.936    -8273294.671 5  -6288463.187 5
 95  2 14 18 12 59.9980000  0  5 18 14 29 22 19
  22058938.607   -13335832.628 6 -10251897.851 6
  20144539.365    -8282989.024 7  -6388509.799 8
  20600836.865   -14562354.613 7 -11292144.578 9
  20959278.873   -10998699.391 7  -8494686.744 8
  22884004.381    -8356781.689 5  -6353517.996 4
 95  2 14 18 13 29.9980000  0  5 18 14 29 22 19
  22043184.686   -13418614.841 6 -10316403.482 6
  20150746.459    -8250385.548 7  -6363104.539 8
  20592639.881   -14605431.430 7 -11325710.940 9
  20964133.615   -10973177.615 7  -8474799.676 8
  22868158.193    -8440055.900 5  -6418406.986 5
 95  2 14 18 13 59.9980000  0  5 18 14 29 22 19
  22027452.029   -13501294.741 6 -10380829.388 6
  20157048.443    -8217261.897 7  -6337293.940 8
  20584477.896   -14648320.750 7 -11359131.206 9
  20969106.373   -10947050.621 7  -8454441.004 8
  22852346.170    -8523140.724 5  -6483148.384 5
 95  2 14 18 14 29.9980000  0  5 18 14 29 22 19
  22011741.326   -13583860.796 6 -10445166.573 6
  20163456.006    -8183599.859 7  -6311063.828 9
  20576355.178   -14691009.328 7 -11392395.054 9
  20974194.607   -10920310.390 7  -8433604.483 8
  22836575.670    -8606028.893 5  -6547736.573 5
 95  2 14 18 14 59.9980000  0  5 18 14 29 22 19
  21996046.225   -13666333.171 6
  20169965.209    -8149384.900 7  -6284402.865 8
  20568266.053   -14733512.889 7 -11425514.725 9
  20979398.061   -10892974.129 7  -8412303.524 8
  22820842.490    -8688724.948 5
 95  2 14 18 15 29.9980000  0  5 18 14 29 22 19
  21980370.436   -13748713.199 6
  20176587.256    -8114597.625 7  -6257295.944 8
  20560214.490   -14775825.819 7 -11458485.863 9
  20984706.787   -10865064.854 7  -8390556.053 8
  22805143.061    -8771216.582 5
 95  2 14 18 15 59.9980000  0  5 18 14 29 22 19
  21964714.342   -13830992.005 6
  20183312.287    -8079231.051 7  -6229737.620 8
  20552201.670   -14817938.910 7 -11491301.264 9
  20990127.920   -10836586.455 7  -8368365.121 8
  22789488.818    -8853478.841 5
 95  2 14 18 16 29.9980000  0  5 18 14 29 22 19
  21949071.639   -13913184.942 6 -10701782.798 6
  20190157.959    -8043288.320 7  -6201730.342 8
  20544224.561   -14859853.098 7 -11523961.697 9
  20995651.068   -10807549.996 7  -8345739.332 8
  22773879.201    -8935503.617 5  -6804470.083 5
 95  2 14 18 16 59.9980000  0  5 18 14 29 22 19
  21933443.803   -13995307.788 6 -10765774.629 6
  20197101.139    -8006776.057 7  -6173279.275 8
  20536287.350   -14901564.443 7 -11556464.064 9
  21001282.670   -10777969.042 7  -8322689.273 8
  22758316.490    -9017289.834 5  -6868199.585 5
 95  2 14 18 17 29.9980000  0  5 18 14 29 22 19
  21917833.670   -14077348.299 6 -10829702.295 6
  20204161.318    -7969698.322 7  -6144387.578 8
  20528389.748   -14943070.349 7 -11588806.342 9
  21007017.881   -10747814.341 7  -8299192.128 8
  22742799.303    -9098837.117 5  -6931742.901 5
 95  2 14 18 17 59.9980000  0  5 18 14 29 22 19
  21902236.271   -14159310.795 6 -10893569.177 6
  20211317.381    -7932066.743 7  -6115064.319 8
  20520532.506   -14984360.534 7 -11620980.529 9
  21012871.990   -10717071.702 7  -8275236.852 8
  22727323.686    -9180155.801 5  -6995108.088 5
 95  2 14 18 18 29.9980000  0  5 18 14 29 22 19
  21886652.131   -14241199.265 6 -10957378.367 6
  20218587.217    -7893889.233 7  -6085315.664 8
  20512717.107   -15025431.586 7 -11652983.966 9
  21018828.514   -10685753.472 7  -8250833.068 8
  22711888.654    -9261270.338 5  -7058314.198 5
 95  2 14 18 18 59.9980000  0  5 18 14 29 22 19
  21871088.959   -14322988.295 6 -11021110.082 6
  20225950.740    -7855172.355 7  -6055146.715 8
  20504943.670   -15066279.618 7 -11684813.620 9
  21024900.998   -10653854.884 7  -8225977.065 8
  22696492.639    -9342178.080 5  -7121359.157 5
 95  2 14 18 19 29.9980000  0  5 18 14 29 22 19
  21855548.701   -14404659.097 6 -11084749.661 6
  20233419.701    -7815939.997 7  -6024576.098 8
  20497210.936   -15106909.397 7 -11716473.207 9
  21031080.037   -10621373.782 7  -8200667.167 8
  22681134.123    -9422885.205 5  -7184247.801 5
 95  2 14 18 19 59.9980000  0  5 18 14 29 22 19
  21840029.412   -14486213.853 6 -11148298.830 6
  20240982.912    -7776194.337 7  -5993605.503 8
  20489520.154   -15147327.498 7 -11747967.853 9
  21037367.850   -10588330.623 7  -8174919.301 8
  22665813.951    -9503388.774 5  -7246977.835 5
 95  2 14 18 20 29.9980000  0  5 18 14 29 22 19
  21824530.904   -14567655.752 6 -11211760.056 6
  20248642.029    -7735927.910 7  -5962229.119 8
  20481867.592   -15187550.463 7 -11779310.446 9
  21043763.928   -10554732.209 7  -8148738.764 8
  22650535.529    -9583676.833 5  -7309539.937 5
 95  2 14 18 20 59.9980000  0  5 18 14 29 22 19
  21809054.467   -14648976.273 6 -11275126.702 6
  20256411.607    -7695117.348 7  -5930428.734 8
  20474250.326   -15227568.532 7 -11810493.384 9
  21050265.725   -10520551.510 7  -8122104.505 8
  22635306.342    -9663715.576 5  -7371907.761 5
 95  2 14 18 21 29.9980000  0  5 18 14 29 22 19
  21793596.756   -14730202.800 6 -11338420.112 6
  20264280.537    -7653768.509 7  -5898208.914 8
  20466671.115   -15267404.249 7 -11841534.227 9
  21056877.389   -10485805.920 7  -8095030.063 8
  22620121.631    -9743523.698 5  -7434095.887 5
 95  2 14 18 21 59.9980000  0  5 18 14 29 22 19
  21778158.115   -14811339.634 6 -11401643.622 6
  20272251.889    -7611863.421 7  -5865555.650 8
  20459126.272   -15307051.813 7 -11872428.451 9
  21063599.514   -10450498.370 7  -8067517.732 8
  22604979.248    -9823091.346 5  -7496096.618 5
 95  2 14 18 22 29.9980000  0  5 18 14 29 22 19
  21762737.264   -14892383.341 6 -11464794.571 6
  20280331.006    -7569408.706 7  -5832474.109 8
  20451621.826   -15346486.648 7 -11903156.914 9
  21070423.490   -10414629.107 7  -8039567.706 8
  22589881.193    -9902418.862 5  -7557910.256 5
 95  2 14 18 22 59.9980000  0  5 18 14 29 22 19
  21747335.826   -14973317.034 6 -11527859.798 6
  20288516.904    -7526408.460 7  -5798967.477 8
  20444159.029   -15385704.457 7 -11933716.258 9
  21077352.678   -10378205.572 7  -8011185.788 8
  22574829.248    -9981511.515 5  -7619540.883 5
 95  2 14 18 23 29.9980000  0  5 18 14 29 22 19
  21731957.670   -15054123.258 6 -11590825.696 6
  20296800.264    -7482874.249 7  -5765044.772 8
  20436739.420   -15424701.351 7 -11964103.463 9
  21084387.381   -10341243.834 7  -7982384.489 8
  22559819.670   -10060383.585 5  -7680999.617 5
 95  2 14 18 23 59.9980000  0  5 18 14 29 22 19
  21716606.467   -15134804.163 6 -11653693.939 6
  20305181.990    -7438808.855 7  -5730708.149 8
  20429361.771   -15463469.269 7 -11994312.242 9
  21091526.225   -10303743.691 7  -7953163.639 8
  22544851.271   -10139044.147 5  -7742293.545 5
 95  2 14 18 24 29.9980000  0  5 18 14 29 22 19
  21701280.537   -15215344.086 6 -11716452.328 6
  20313671.850    -7394198.726 7  -5695947.066 8
  20422030.818   -15501993.836 7 -12024331.393 9
  21098764.123   -10265698.137 7  -7923517.795 8
  22529926.436   -10217480.380 5  -7803412.667 5
 95  2 14 18 24 59.9980000  0  5 18 14 29 22 19
  21685977.725   -15295746.920 6 -11779103.890 6
  20322266.436    -7349050.997 7  -5660767.074 8
  20414743.373   -15540287.844 7 -12054170.881 9
  21106103.936   -10227115.166 7  -7893453.185 8
  22515043.029   -10295697.071 5  -7864360.725 5
 95  2 14 18 25 29.9980000  0  5 18 14 29 22 19
  21670704.678   -15376018.724 6 -11841653.350 6
  20330959.365    -7303368.875 7  -5625170.671 8
  20407502.811   -15578333.283 7 -12083816.680 9
  21113551.584   -10187989.947 7  -7862966.033 8
  22500199.623   -10373699.236 5  -7925141.620 5
 95  2 14 18 25 59.9980000  0  5 18 14 29 22 19
  21655455.100   -15456170.319 6 -11904109.139 6
  20339752.842    -7257137.955 7  -5589146.630 8
  20400311.592   -15616126.919 7 -12113266.271 9
  21121102.998   -10148314.186 7  -7832049.895 8
  22485398.646   -10451476.192 5  -7985747.019 5
 95  2 14 18 26 29.9980000  0  5 18 14 29 22 19
  21640223.029   -15536206.565 6 -11966475.046 6
  20348653.928    -7210372.417 7  -5552706.012 8
  20393165.076   -15653682.069 7 -12142530.024 9
  21128752.256   -10108107.015 7  -7800719.659 8
  22470639.787   -10529038.196 5  -8046184.933 5
 95  2 14 18 26 59.9980000  0  5 18 14 29 22 19
  21625013.162   -15616116.529 6 -12028742.543 6
  20357658.154    -7163065.284 7  -5515843.370 8
  20386064.084   -15690996.395 7 -12171606.135 9
  21136506.811   -10067350.998 7  -7768961.742 8
  22455921.771   -10606387.525 5  -8106457.124 5
 95  2 14 18 27 29.9980000  0  5 18 14 29 22 19
  21609828.068   -15695921.788 6 -12090928.460 6
  20366758.678    -7115232.861 7  -5478571.410 8
  20379001.584   -15728108.129 7 -12200524.368 9
  21144365.998   -10026067.320 7  -7736792.660 8
  22441238.975   -10683552.312 5  -8166585.502 5
 95  2 14 18 27 59.9980000  0  5 18 14 29 22 19
  21594663.342   -15775619.681 6 -12153030.698 6
  20375958.779    -7066881.823 7  -5440895.329 8
  20371974.607   -15765027.846 7 -12229292.978 9
  21152324.865    -9984248.683 7  -7704206.728 8
  22426587.412   -10760520.992 5  -8226561.065 6
 95  2 14 18 28 29.9980000  0  5 18 14 29 22 19
  21579520.428   -15855198.475 6 -12215040.149 6
  20385255.811    -7018025.941 7  -5402825.867 8
  20364989.209   -15801754.307 7 -12257911.000 9
  21160381.982    -9941894.837 7  -7671203.749 8
  22411979.568   -10837292.617 6  -8286383.100 5
 95  2 14 18 28 59.9980000  0  5 18 14 29 22 19
  21564398.350   -15934657.816 6 -12276956.509 6
  20394648.787    -6968682.312 7  -5364376.342 8
  20358035.381   -15838289.332 7 -12286379.853 9
  21168541.959    -9899008.829 7  -7637786.097 8
  22397411.646   -10913860.829 6  -8346046.615 5
 95  2 14 18 29 29.9980000  0  5 18 14 29 22 19
  21549301.717   -16013992.624 6 -12338775.834 6
  20404132.521    -6918848.586 7  -5325544.917 8
  20351121.732   -15874621.886 7 -12314690.940 9
  21176803.975    -9855586.524 7  -7603950.557 8
  22382884.639   -10990209.823 6  -8405539.328 5
 95  2 14 18 29 59.9980000  0  5 18 14 29 22 19
  21534228.850   -16093197.769 6 -12400494.121 7
  20413708.725    -6868513.667 7  -5286322.974 8
  20344252.631   -15910718.475 7 -12342818.165 9
  21185172.576    -9811619.684 7  -7569690.712 8
  22368397.365   -11066327.523 6  -8464851.801 5
 95  2 14 18 30 29.9980000  0  5 18 14 29 22 19
  21519185.217   -16172258.845 6 -12462100.152 6
  20423385.639    -6817649.155 7  -5246688.351 9
  20337432.803   -15946555.973 7 -12370743.505 9
  21193644.740    -9767105.947 7  -7535004.704 8
  22353961.225   -11142192.912 6  -8523967.685 5
 95  2 14 18 30 59.9980000  0  5 18 14 29 22 19
  21504166.490   -16251185.511 6 -12523601.448 7
  20433168.623    -6766240.803 7  -5206629.958 9
  20330664.920   -15982124.789 7 -12398459.476 9
  21202219.521    -9722045.412 7  -7499892.623 8
  22339572.850   -11217792.405 6  -8582876.360 5
 95  2 14 18 31 29.9980000  0  5 18 14 29 22 19
  21489166.545   -16330004.228 7 -12585018.633 7
  20443053.568    -6714296.116 7  -5166153.644 9
  20323945.381   -16017431.716 7 -12425971.378 9
  21210897.436    -9676445.148 7  -7464359.986 8
  22325234.787   -11293143.938 6  -8641591.834 5
 95  2 14 18 31 59.9980000  0  5 18 14 29 22 19
  21474186.045   -16408722.112 6 -12646357.242 7
  20453038.545    -6661827.796 7  -5125269.298 9
  20317277.045   -16052478.138 7 -12453280.294 9
  21219675.271    -9630311.619 7  -7428411.819 8
  22310945.584   -11368240.928 6  -8700108.949 5
 95  2 14 18 32 29.9980000  0  5 18 14 29 22 19
  21459228.396   -16487335.195 6 -12707614.185 7
  20463119.889    -6608856.984 7  -5083993.400 8
  20310652.701   -16087289.794 7 -12480406.274 9
  21228552.553    -9583650.670 7  -7392052.674 8
  22296700.857   -11443079.593 6  -8758424.793 5
 95  2 14 18 32 59.9980000  0  5 18 14 29 22 19
  21444290.389   -16565831.698 7 -12768780.293 7
  20473293.428    -6555393.691 7  -5042333.751 8
  20304075.756   -16121853.752 7 -12507339.254 9
  21237532.701    -9536457.178 7  -7355278.561 8
  22282507.646   -11517678.398 6  -8816553.727 5
 95  2 14 18 33 29.9980000  0  5 18 14 29 22 19
  21429378.842   -16644198.743 6 -12829845.527 7
  20483560.756    -6501454.886 7  -5000303.577 8
  20297541.795   -16156181.673 7 -12534088.298 9
  21246610.498    -9488757.494 7  -7318110.027 8
  22268352.850   -11592058.491 6  -8874512.228 5
 95  2 14 18 33 59.9980000  0  5 18 14 29 22 19
  21414494.498   -16722411.421 6 -12890790.466 7
  20493916.631    -6447026.923 7  -4957892.242 8
  20291055.131   -16190277.804 7 -12560656.729 9
  21255780.920    -9440568.234 7  -7280559.999 8
  22254241.545   -11666217.914 6  -8932298.768 5
 95  2 14 18 34 29.9980000  0  5 18 14 29 22 19
  21399640.842   -16800457.126 7 -12951605.301 7
  20504369.725    -6392098.777 7  -4915091.148 8
  20284613.068   -16224124.217 7 -12587030.579 9
  21265041.115    -9391901.082 7  -7242637.599 8
  22240169.232   -11740171.736 6  -8989925.112 5
 95  2 14 18 34 59.9980000  0  5 18 14 29 22 19
  21384820.350   -16878347.530 6 -13012299.123 7
  20514918.217    -6336663.965 7  -4871895.255 8
  20278222.811   -16257707.745 7 -12613199.579 9
  21274392.912    -9342758.014 7  -7204344.351 8
  22226130.850   -11813935.376 6  -9047403.268 5
 95  2 14 18 35 29.9980000  0  5 18 14 29 22 19
  21370030.029   -16956076.594 6 -13072867.220 7
  20525564.943    -6280710.410 7  -4828295.149 8
  20271880.904   -16291035.379 7 -12639169.184 9
  21283838.732    -9293122.278 7  -7165667.203 8
  22212132.295   -11887487.917 6  -9104716.915 5
 95  2 14 18 35 59.9980000  0  5 18 14 29 22 19
  21355263.404   -17033672.290 6 -13133331.397 7
  20536305.904    -6224261.061 7  -4784308.710 8
  20265585.529   -16324117.359 7 -12664947.371 9
  21293381.350    -9242984.919 7  -7126599.182 8
  22198174.217   -11960847.048 6  -9161879.850 6
 95  2 14 18 36 29.9980000  0  5 18 14 29 22 19
  21340520.037   -17111146.522 6 -13193700.926 7
  20547133.795    -6167344.345 7  -4739958.080 8
  20259337.881   -16356952.774 7 -12690533.422 9
  21303020.045    -9192335.604 7  -7087132.247 8
  22184249.787   -12034018.345 6  -9218896.422 6
 95  2 14 18 36 59.9980000  0  6 28 18 14 29 22 19
  24360113.615          -0.24013
  21325804.787   -17188478.870 6 -13253959.890 7
  20558057.201    -6109958.479 7  -4695241.881 8
  20253132.240   -16389552.071 7 -12715935.482 9
  21312759.678    -9141158.486 7  -7047254.027 8
  22170366.186   -12106985.698 6  -9275754.066 5
 95  2 14 18 37 29.9980000  0  6 28 18 14 29 22 19
  24345149.037      -78638.872 3
  21311116.529   -17265669.537 6 -13314108.455 7
  20569061.303    -6052122.811 7  -4650175.192 8
  20246973.725   -16421925.770 7 -12741161.754 9
  21322595.256    -9089470.609 7  -7006977.806 8
  22156516.717   -12179750.803 6  -9332454.133 5
 95  2 14 18 37 59.9980000  0  6 28 18 14 29 22 19
  24330203.436     -157191.212 3
  21296457.279   -17342701.534 6 -13374133.381 7
  20580155.107    -5993828.448 7  -4604751.073 8
  20240861.857   -16454043.503 7 -12766188.574 9
  21332528.029    -9037272.401 7  -6966303.930 8
  22142713.287   -12252289.733 6  -9388977.953 5
 95  2 14 18 38 29.9980000  0  6 28 18 14 29 22 19
  24315268.514     -235665.361 3
  21281826.264   -17419583.510 6 -13434041.409 7
  20591335.279    -5935079.046 7  -4558972.387 7
  20234798.053   -16485910.286 7 -12791019.847 9
  21342553.123    -8984591.343 7  -6925253.803 8
  22128953.248   -12324602.420 6  -9445325.469 6
 95  2 14 18 38 59.9980000  0  6 28 18 14 29 22 19
  24300351.225     -314046.771 3
  21267225.623   -17496310.790 6 -13493828.889 7
  20602606.725    -5875851.480 7  -4512821.100 8
  20228784.826   -16517507.745 7 -12815641.255 9
  21352668.053    -8931434.370 7  -6883832.818 8
  22115240.506   -12396670.146 6  -9501482.108 6
 95  2 14 18 39 29.9980000  0  6 28 18 14 29 22 19
  24285455.654     -392326.873 3        -0.36011
  21252653.584   -17572893.995 6 -13553504.108 7
  20613968.795    -5816144.418 7  -4466296.178 8
  20222826.545   -16548813.412 7 -12840035.290 9
  21362871.818    -8877806.026 7  -6842044.535 8
  22101574.271   -12468481.583 6  -9557439.050 6
 95  2 14 18 39 59.9980000  0  6 28 18 14 29 22 19
  24270575.014     -470508.992 3    -60921.464 1
  21238105.396   -17649336.916 6 -13613069.995 7
  20625422.646    -5755960.577 7  -4419399.745 7
  20216923.701   -16579838.711 7 -12864210.855 9
  21373164.920    -8823715.305 7  -6799895.963 8
  22087956.693   -12540043.466 6  -9613201.523 6
 95  2 14 18 40 29.9980000  0  6 28 18 14 29 22 19
  24255716.053     -548595.999 3   -121768.457 1
  21223586.412   -17725635.549 7 -13672523.455 7
  20636967.576    -5695293.757 7  -4372126.957 8
  20211070.584   -16610593.594 7 -12888175.708 9
  21383545.373    -8769160.223 7  -6757385.538 8
  22074386.904   -12611367.101 6  -9668778.355 6
 95  2 14 18 40 59.9980000  0  6 28 18 14 29 22 19
  24240875.982     -626579.841 3   -182535.078 1
  21209099.350   -17801770.749 7 -13731849.573 7
  20648605.592    -5634137.820 7  -4324473.046 7
  20205271.045   -16641073.179 7 -12911926.054 9
  21394017.889    -8714129.421 7  -6714504.429 8
  22060857.592   -12682446.635 6  -9724164.969 6
 95  2 14 18 41 29.9980000  0  6 28 18 14 29 22 19
  24226059.076     -704465.103 3   -243224.920 1
  21194643.107   -17877736.971 7 -13791044.023 7
  20660333.240    -5572499.665 7  -4276443.376 7
  20199520.709   -16671293.825 7 -12935474.626 9
  21404581.514    -8658614.269 7  -6671245.902 8
  22047372.795   -12753302.235 6  -9779377.097 6
 95  2 14 18 41 59.9980000  0  6 28 18 14 29 22 19
  24211256.709     -782243.073 3   -303831.059 1
  21180223.522   -17953506.746 7 -13850085.393 7
  20672159.053    -5510359.272 7  -4228022.357 7
  20193819.428   -16701255.464 7 -12958821.367 9
  21415240.709    -8602596.597 7  -6627595.795 8
  22033936.115   -12823933.455 6  -9834414.390 6
 95  2 14 18 42 29.9980000  0  6 28 18 14 29 22 19
  24196477.436     -859909.400 3   -364350.252 1
  21165844.389   -18029078.540 7 -13908972.489 6
  20684079.303    -5447718.927 7  -4179211.758 7
  20188167.436   -16730953.203 7 -12981962.472 9
  21425995.936    -8546079.891 7  -6583556.832 8
  22020536.084   -12894343.930 6  -9889279.664 6
 95  2 14 18 42 59.9980000  0  6 28 18 14 29 22 19
  24181718.725     -937471.763 3   -424788.385 1
  21151498.412   -18104465.287 7 -13967715.402 6
  20696089.936    -5384604.061 7  -4130031.407 8
  20182563.521   -16760400.487 7 -13004908.412 9
  21436842.576    -8489079.095 7  -6539140.658 7
  22007177.193   -12964546.904 6  -9943983.267 6
 95  2 14 18 43 29.9980000  0  6 28 18 14 29 22 19
  24166981.256    -1014919.320 3   -485137.035 1
  21137188.076   -18179661.597 7 -14026309.922 7
  20708190.600    -5321012.264 7  -4080479.423 8
  20177009.037   -16789595.454 7 -13027657.737 9
  21447781.740    -8431590.691 7  -6494344.521 8
  21993857.889   -13034543.725 6  -9998526.213 6
 95  2 14 18 43 59.9980000  0  6 28 18 14 29 22 19
  24152264.889    -1092257.656 3   -545400.612 1
  21122914.154   -18254677.528 7 -14084763.882 7
  20720378.436    -5256970.138 7  -4030576.543 8
  20171502.412   -16818529.227 7 -13050203.538 9
  21458809.592    -8373641.323 7  -6449189.201 8
  21980576.123   -13104334.187 6 -10052908.366 6
 95  2 14 18 44 29.9980000  0  6 28 18 14 29 22 19
  24137562.975    -1169477.416 3   -605571.757 3
  21108670.154   -18329526.671 7 -14143087.883 7
  20732649.061    -5192486.201 7  -3980329.386 8
  20166051.717   -16847176.115 7 -13072525.793 9
  21469923.178    -8315241.507 7  -6403682.878 8
  21967337.529   -13173908.261 6 -10107121.913 6
 95  2 14 18 44 59.9980000  0  6 28 18 14 29 22 19
  24122897.850    -1246572.813 3   -665645.973 2
  21094458.170   -18404213.965 7 -14201285.768 7
  20745001.006    -5127571.157 7  -3929746.307 8
  20160656.037   -16875529.856 7 -13094619.631 9
  21481123.264    -8256392.532 7  -6357826.570 7
  21954139.529   -13243261.823 6 -10161163.628 6
 95  2 14 18 45 29.9980000  0  6 28 18 14 29 22 19
  24108250.084    -1323544.342 3   -725623.668 2
  21080273.975   -18478747.751 7 -14259364.040 7
  20757435.357    -5062226.024 7  -3878828.088 8
  20155315.764   -16903585.061 7 -13116480.826 9
  21492406.607    -8197099.890 7  -6311624.546 7
  21940985.146   -13312394.799 6 -10215033.455 6
 95  2 14 18 45 59.9980000  0  6 28 18 14 29 22 19
  24093623.240    -1400382.154 3   -785497.168 3
  21066121.600   -18553125.400 7 -14317320.642 7
  20769952.686    -4996440.436 7  -3827566.662 8
  20150036.818   -16931335.169 7 -13138104.270 9
  21503775.396    -8137361.743 7  -6265075.369 7
  21927871.498   -13381293.819 6 -10268720.979 6
 95  2 14 18 46 29.9980000  0  6 28 18 14 29 22 19
  24079034.357    -1477090.237 3   -845269.563 3
  21051994.107   -18627354.459 7 -14375161.466 7
  20782554.139    -4930213.038 7  -3775960.959 8
  20144809.662   -16958803.201 7 -13159507.934 9
  21515228.834    -8077167.584 7  -6218170.870 7
  21914805.842   -13449968.465 6 -10322233.658 6
 95  2 14 18 46 59.9980000  0  6 28 18 14 29 22 19
  24064461.568    -1553652.560 3   -904928.388 2
  21037905.053   -18701406.493 7 -14432864.343 7
  20795244.662    -4863526.652 7  -3723997.612 8
  20139633.686   -16986000.252 7 -13180700.446 9
  21526777.693    -8016485.172 7  -6170885.911 7
  21901777.186   -13518413.567 6 -10375567.481 6
 95  2 14 18 47 29.9980000  0  6 28 18 14 29 22 19
  24049919.826    -1630072.188 3   -964476.020 4
  21023847.623   -18775274.628 7 -14490423.931 7
  20808025.092    -4796369.147 7  -3671667.155 8
  20134510.225   -17012925.647 7 -13201681.277 9
  21538417.311    -7955320.025 7  -6123224.791 7
  21888796.506   -13586641.370 6 -10428731.980 6
 95  2 14 18 47 59.9980000  0  6 28 18 14 29 22 19
  24035400.889    -1706361.533 3  -1023922.163 2
  21009820.404   -18848981.773 7 -14547858.058 7
  20820891.514    -4728761.068 7  -3618985.613 8
  20129434.975   -17039590.808 7 -13222459.328 9
  21550142.537    -7893699.968 7  -6075209.199 7
  21875853.225   -13654669.478 6 -10481740.861 6
 95  2 14 18 48 29.9980000  0  6 28 18 14 29 22 19
  24020907.084    -1782507.584 3  -1083256.652 3
  20995827.639   -18922522.259 7 -14605162.318 7
  20833843.076    -4660704.250 7  -3565954.404 8
  20124414.436   -17065973.833 7 -13243017.536 9
  21561952.006    -7831627.702 7  -6026841.243 7
  21862942.850   -13722494.098 6 -10534591.186 6
 95  2 14 18 48 59.9980000  0  6 28 18 14 29 22 19
  24006451.506    -1858493.018 3  -1142465.970 4
  20981866.865   -18995884.722 7 -14662327.863 8
  20846881.428    -4592189.062 6  -3512566.022 8
  20119453.857   -17092048.505 7 -13263335.467 9
  21573847.420    -7769121.152 7  -5978134.886 7
  21850078.553   -13790098.725 6 -10587270.092 6
 95  2 14 18 49 29.9980000  0  6 28 18 14 29 22 19
  23992020.256    -1934335.107 3  -1201563.600 5
  20967934.904   -19069089.041 7 -14719370.178 8
  20860002.107    -4523243.847 7  -3458842.556 8
  20114548.631   -17117823.077 7 -13283419.554 9
  21585815.568    -7706225.029 7  -5929124.962 7
  21837256.014   -13857489.456 6 -10639782.320 6
 95  2 14 18 49 59.9980000  0  6 28 18 14 29 22 19
  23977620.404    -2010017.835 3  -1260537.063 4
  20954036.506   -19142129.656 7 -14776284.935 8
  20873201.209    -4453880.302 7  -3404793.117 8
  20109703.482   -17143289.383 7 -13303263.442 9
  21597859.092    -7642932.982 7  -5879806.532 7
  21824477.443   -13924650.631 6 -10692115.690 6
 95  2 14 18 50 29.9980000  0  6 28 18 14 29 22 19
  23963245.498    -2085539.766 3  -1319385.204 4
  20940174.100   -19214981.663 7 -14833052.723 8
  20886478.748    -4384105.756 7  -3350423.415 8
  20104912.014   -17168455.374 7 -13322873.313 9
  21609982.490    -7579232.790 7  -5830170.062 7
  21811739.139   -13991584.093 6 -10744271.609 6
 95  2 14 18 50 59.9980000  0  6 28 18 14 29 22 19
  23948907.592    -2160906.847 3  -1378112.720 5
  20926348.029   -19287634.244 7 -14889665.108 8
  20899832.928    -4313924.986 7  -3295737.180 8
  20100178.725   -17193331.289 7 -13342257.142 9
  21622184.428    -7515113.634 7  -5780207.109 7
  21799045.420   -14058287.879 6 -10796248.558 6
 95  2 14 18 51 29.9980000  0  6 28 18 14 29 22 19
  23934596.967    -2236108.025 4  -1436710.974 4
  20912564.951   -19360070.684 7 -14946109.059 8
  20913265.615    -4243335.783 7  -3240732.676 8
  20095503.631   -17217903.121 7 -13361404.028 9
  21634470.811    -7450549.391 7  -5729897.353 7
  21786392.709   -14124763.354 6 -10848047.607 6
 95  2 14 18 51 59.9980000  0  6 28 18 14 29 22 19
  23920315.631    -2311140.415 4  -1495177.720 5
  20898823.092   -19432285.934 7 -15002380.677 8
  20926773.428    -4172347.214 7  -3185416.989 8
  20090886.404   -17242166.325 7 -13380310.430 9
  21646844.225    -7385528.874 7  -5679232.053 7
  21773785.334   -14191021.432 6 -10899677.250 6
 95  2 14 18 52 29.9980000  0  6 28 18 14 29 22 19
  23906068.889    -2386006.575 4  -1553514.929 3
  20885124.092   -19504272.862 7 -15058474.365 8
  20940358.014    -4100950.005 7  -3129782.875 7
  20086327.834   -17266123.311 7 -13398978.228 9
  21659303.131    -7320058.923 7  -5628216.551 7
  21761220.287   -14257059.977 6 -10951135.838 6
 95  2 14 18 52 59.9980000  0  6 28 18 14 29 22 19
  23891855.514    -2460699.063 4  -1611716.823 4
  20871467.342   -19576033.752 7 -15114391.923 8
  20954025.600    -4029134.285 7  -3073822.646 7
  20081828.748   -17289771.460 7 -13417405.370 9
  21671844.037    -7254155.596 7  -5576863.343 7
  21748694.732   -14322876.951 6 -11002421.760 6
 95  2 14 18 53 29.9980000  0  6 28 18 14 29 22 19
  23877677.826    -2535202.673 4  -1669771.546 4
  20857855.732   -19647564.938 7 -15170130.496 8
  20967774.014    -3956891.323 7  -3017529.508 7
  20077386.951   -17313108.803 7 -13435590.331 9
  21684464.959    -7187821.953 7  -5525174.834 7
  21736213.834   -14388469.178 6 -11053532.564 6
 95  2 14 18 53 59.9980000  0  6 28 18 14 29 22 19
  23863532.061    -2609523.963 4  -1727684.207 5
  20844284.139   -19718879.126 7 -15225699.983 8
  20981604.951    -3884218.026 7  -2960901.040 7
  20072999.811   -17336164.165 7 -13453555.559 9
  21697167.592    -7121071.055 7  -5473161.181 7
  21723776.936   -14453830.893 6 -11104463.756 6
 95  2 14 18 54 29.9980000  0  6 28 18 14 29 22 19
  23849423.959    -2683668.979 4  -1785459.523 4
  20830752.264   -19789988.972 7 -15281110.238 8
  20995516.475    -3811115.261 7  -2903937.925 7
  20068661.732   -17358955.519 7 -13471315.067 9
  21709946.811    -7053913.764 6  -5420830.852 7
  21711379.334   -14518969.798 6 -11155221.326 6
 95  2 14 18 54 59.9980000  0  6 28 18 14 29 22 19
  23835345.748    -2757639.791 4  -1843099.071 4
  20817256.568   -19860914.543 7 -15336376.912 8
  21009503.615    -3737601.847 6  -2846654.824 7
  20064373.920   -17381489.410 7 -13488873.949 9
  21722804.686    -6986352.096 6  -5368185.442 7
  21699024.451   -14583888.893 6 -11205807.615 6
 95  2 14 18 55 29.9980000  0  6 28 18 14 29 22 19
  23821308.553    -2831426.571 4  -1900595.225 2
  20803795.740   -19931658.373 7 -15391501.962 8
  21023568.498    -3663678.620 6  -2789052.387 7
  20060139.021   -17403747.063 7 -13506217.587 9
  21735742.545    -6918366.210 6  -5315209.462 7
  21686715.779   -14648574.666 6 -11256212.087 6
 95  2 14 18 55 59.9980000  0  6 28 18 14 29 22 19
  23807307.646    -2904995.522 4  -1957921.660 4
  20790375.201   -20002181.241 7 -15446454.848 8
  21037718.725    -3589322.635 6  -2731112.737 7
  20055966.287   -17425676.574 7 -13523305.527 9
  21748767.092    -6849924.357 6  -5261878.202 7
  21674457.006   -14712989.285 6 -11306405.290 6
 95  2 14 18 56 29.9980000  0  6 28 18 14 29 22 19
  23793346.662    -2978362.404 4  -2015090.634 4
  20776994.404   -20072497.013 7 -15501246.347 8
  21051945.771    -3514572.154 6  -2672865.688 7
  20051856.396   -17447270.855 7 -13540132.245 9
  21761868.717    -6781065.681 6  -5208222.137 7
  21662246.748   -14777160.278 6 -11356408.641 6
 95  2 14 18 56 59.9980000  0  6 28 18 14 29 22 19
  23779419.139    -3051542.276 4  -2072113.856 3
  20763649.576   -20142623.199 7 -15555890.125 8
  21066241.350    -3439452.552 6  -2614331.010 7
  20047810.115   -17468540.334 7 -13556705.871 8
  21775045.717    -6711817.860 6  -5154262.853 7
  21650078.459   -14841104.579 6 -11406235.348 6
 95  2 14 18 57 29.9980000  0  6 28 18 14 29 22 19
  23765533.615    -3124521.696 4  -2128980.893 2
  20750348.029   -20212529.392 7 -15610362.471 8
  21080608.389    -3363949.220 6  -2555497.325 7
  20043827.193   -17489467.435 7 -13573012.698 9
  21788298.787    -6642176.381 6  -5099996.827 7
  21637950.084   -14904828.894 6 -11455890.633 6
 95  2 14 18 57 59.9980000  0  6 28 18 14 29 22 19
  23751682.576    -3197297.204 4  -2185689.016 3
  20737088.678   -20282210.833 7 -15664659.688 8
  21095048.045    -3288061.099 6  -2496363.805 7
  20039908.811   -17510054.588 7 -13589054.650 9
  21801623.084    -6572159.165 6  -5045438.010 7
  21625865.553   -14968336.335 6 -11505376.930 6
 95  2 14 18 58 29.9980000  0  6 28 18 14 29 22 19
  23737875.295    -3269862.960 4  -2242233.699 3
  20723869.959   -20351672.168 7 -15718785.401 8
  21109562.107    -3211782.806 6  -2436926.256 7
  20036052.818   -17530320.697 7 -13604846.435 9
  21815020.936    -6501761.702 6  -4990582.892 7
  21613820.943   -15031631.879 6 -11554698.109 6
 95  2 14 18 58 59.9980000  0  6 28 18 14 29 22 19
  23724105.318    -3342213.011 4  -2298610.304 3
  20710694.592   -20420907.408 7 -15772734.938 8
  21124155.904    -3135104.495 6  -2377177.004 7
  20032256.764   -17550272.807 7 -13620393.547 8
  21828492.076    -6430963.598 6  -4935415.600 7
  21601816.412   -15094716.392 6 -11603854.830 6
 95  2 14 18 59 29.9980000  0  6 28 18 14 29 22 19
  23710380.756    -3414353.225 4  -2354823.413 2
  20697560.975   -20489926.449 7 -15826516.013 8
  21138821.279    -3058040.863 6  -2317127.501 7
  20028518.951   -17569912.943 7 -13635697.567 9
  21842037.811    -6359775.016 6  -4879944.051 7
  21589848.771   -15157598.958 6 -11652854.198 6
 95  2 14 18 59 59.9980000  0  6 28 18 14 29 22 19
  23696695.904    -3486257.514 4  -2410852.667 3
  20684469.482   -20558720.317 7 -15880121.629 8
  21153561.412    -2980579.238 6  -2256767.864 7
  20024844.584   -17589222.243 7 -13650743.788 8
  21855661.631    -6288176.862 6  -4824153.360 7
  21577928.240   -15220245.454 6 -11701669.612 6
 95  2 14 19  0 29.9980000  0  6 28 18 14 29 22 19
  23683053.904    -3557938.870 4  -2466708.192 3
  20671420.951   -20627291.392 7 -15933553.637 8
  21168373.537    -2902736.904 6  -2196111.583 7
  20021231.600   -17608211.177 7 -13665540.382 8
  21869362.623    -6216183.210 6  -4768054.478 7
  21566049.404   -15282679.500 6 -11750319.482 6
 95  2 14 19  0 59.9980000  0  6 28 18 14 29 22 19
  23669455.646    -3629408.659 4  -2522398.879 4
  20658413.014   -20695651.544 7 -15986821.293 8
  21183254.647    -2824535.519 6  -2135175.520 7
  20017679.865   -17626866.953 7 -13680077.371 8
  21883134.357    -6143822.178 6  -4711669.326 7
  21554207.982   -15344905.805 6 -11798807.478 6
 95  2 14 19  1 29.9980000  0  6 28 18 14 29 22 19
  23655893.451    -3700661.471 4  -2577920.483 2
  20645445.428   -20763799.677 7 -16039923.737 7
  21198204.975    -2745973.987 6  -2073958.815 7
  20014194.217   -17645187.122 7 -13694352.851 8
  21896973.381    -6071097.231 6  -4655000.599 7
  21542407.561   -15406909.543 6 -11847122.033 6
 95  2 14 19  1 59.9980000  0  6 28 18 14 29 22 19
  23642374.131    -3771692.928 5  -2633269.603 3
  20632520.037   -20831721.049 7 -16092849.489 8
  21213227.006    -2667037.661 6  -2012450.070 7
  20010770.217   -17663178.147 7 -13708371.859 8
  21910882.498    -5998004.764 6  -4598045.497 7
  21530651.951   -15468686.520 6 -11895259.905 6
 95  2 14 19  2 29.9980000  0  7 28 18 14 31 29 22 19
  23628902.943    -3842505.050 4  -2688447.797 4
  20619638.084   -20899412.381 7 -16145595.987 8
  21228316.154    -2587739.683 6  -1950659.522 7
  24118102.756          -0.66413
  20007409.787   -17680844.358 7 -13722137.754 8
  21924860.037    -5924541.563 6  -4540801.503 7
  21518937.709   -15530243.966 6 -11943226.704 6
 95  2 14 19  2 59.9980000  0  7 28 18 14 31 29 22 19
  23615472.412    -3913079.878 4  -2743441.059 4
  20606801.506   -20966869.987 7 -16198160.362 8
  21243474.990    -2508071.086 6  -1888580.174 7
  24100180.803      -94168.401 3        -0.39312
  20004112.053   -17698180.882 7 -13735646.754 8
  21938914.193    -5850685.742 6  -4483251.578 7
  21507270.053   -15591561.953 6 -11991006.907 6
 95  2 14 19  3 29.9980000  0  7 28 18 14 31 29 22 19
  23602089.740    -3983411.295 4  -2798244.652 3
  20594010.881   -21034086.987 7 -16250537.234 8
  21258708.217    -2428029.369 6  -1826210.076 7
  24082258.092     -188369.172 3    -73403.345 2
  20000871.576   -17715199.879 7 -13748908.328 8
  21953047.537    -5776432.830 6  -4425392.236 6
  21495644.436   -15652652.781 6 -12038610.114 6
 95  2 14 19  3 59.9980000  0  7 28 18 14 31 29 22 19
  23588750.553    -4053510.237 5  -2852867.082 4
  20581263.428   -21101076.865 7 -16302737.141 8
  21274005.396    -2347642.845 6  -1763571.316 7
  24064320.951     -282618.641 3   -146844.203 2
  19997691.311   -17731911.862 7 -13761930.665 8
  21967247.537    -5701799.864 6  -4367236.733 6
  21484057.193   -15713546.501 6 -12086059.738 6
 95  2 14 19  4 29.9980000  0  7 28 18 14 31 29 22 19
  23575456.951    -4123383.102 5  -2907313.327 4
  20568555.514   -21167855.536 7 -16354772.460 8
  21289363.295    -2266938.973 6  -1700685.257 7
  24046369.451     -376928.366 3   -220332.081 1
  19994569.389   -17748320.608 7 -13774716.718 8
  21981516.021    -5626812.338 6  -4308804.938 7
  21472506.217   -15774258.471 6 -12133367.728 7
 95  2 14 19  4 59.9980000  0  7 28 18 14 31 29 22 19
  23562207.514    -4193011.121 5  -2961568.791 5
  20555893.107   -21234396.160 7 -16406622.283 8
  21304785.600    -2185881.086 6  -1637523.346 7
  24028414.068     -471294.026 3   -293863.475 2
  19991508.779   -17764403.483 7 -13787248.837 8
  21995853.740    -5551477.142 6  -4250102.229 6
  21460990.436   -15834769.486 6 -12180519.155 6
 95  2 14 19  5 29.9980000  0  7 28 18 14 31 29 22 19
  23549002.420    -4262387.768 5  -3015628.360 4
  20543279.490   -21300675.892 7 -16458268.808 8
  21320280.271    -2104465.003 6  -1574082.328 7
  24010449.467     -565721.855 3   -367443.373 1
  19988512.357   -17780149.244 7 -13799518.279 8
  22010254.709    -5475801.263 6  -4191134.064 6
  21449516.811   -15895075.133 6 -12227510.543 6
 95  2 14 19  5 59.9980000  0  7 28 18 14 31 29 22 19
  23535848.209    -4331517.502 5  -3069495.546 5
  20530715.615   -21366693.388 7 -16509710.993 8
  21335842.498    -2022694.260 6  -1510364.950 7
  23992464.881     -660208.484 4   -441069.076 1
  19985578.881   -17795559.094 7 -13811525.963 8
  22024717.873    -5399791.860 6  -4131906.023 6
  21438081.014   -15955171.852 6 -12274339.150 6
 95  2 14 19  6 29.9980000  0  7 28 18 14 31 29 22 19
  23522741.068    -4400397.175 5  -3123167.887 4
  20518204.732   -21432443.403 7 -16560944.746 8
  21351472.631    -1940555.037 6  -1446360.445 6
  23974479.936     -754738.881 4   -514728.926 2
  19982709.975   -17810634.466 7 -13823273.014 8
  22039242.021    -5323463.550 6  -4072429.477 6
  21426684.639   -16015054.253 6 -12321000.743 7
 95  2 14 19  6 59.9980000  0  7 28 18 14 31 29 22 19
  23509684.514    -4469021.456 5  -3176641.198 3
  20505745.287   -21497921.743 7 -16611966.815 8
  21367172.709    -1858042.994 6  -1382065.444 7
  23956486.521     -849299.182 4   -588412.048 2
  19979906.521   -17825369.738 7 -13834755.060 8
  22053831.936    -5246799.072 6  -4012690.971 6
  21415332.021   -16074708.064 6 -12367484.223 7
 95  2 14 19  7 29.9980000  0  7 28 18 14 31 29 22 19
  23496672.162    -4537394.545 5  -3229918.801 5
  20493331.912   -21563156.448 7 -16662799.036 8
  21382939.607    -1775187.714 6  -1317502.974 6
  23938483.896     -943882.945 4   -662113.498 1
  19977165.303   -17839777.316 7 -13845981.748 8
  22068485.326    -5169796.901 6  -3952689.323 6
  21404020.779   -16134144.654 6 -12413798.450 6
 95  2 14 19  7 59.9980000  0  7 28 18 14 31 29 22 19
  23483711.529    -4605506.494 5  -3282992.916 4
  20480961.506   -21628152.485 7 -16713445.292 9
  21398771.600    -1691992.323 6  -1252675.495 6
  23920484.053    -1038464.868 4   -735813.567 1
  19974486.990   -17853852.021 7 -13856949.057 8
  22083202.389    -5092459.486 6  -3892426.461 6
  21392756.271   -16193353.378 6 -12459935.111 6
 95  2 14 19  8 29.9980000  0  7 28 18 14 31 29 22 19
  23470800.178    -4673360.017 5  -3335865.665 4
  20468636.139   -21692919.022 7 -16763912.707 9
  21414667.045    -1608473.006 6  -1187595.602 6
  23902488.654    -1133057.686 4   -809522.107 1
  19971870.943   -17867598.805 7 -13867660.848 8
  22097980.217    -5014793.205 6  -3831907.337 6
  21381532.092   -16252335.482 6 -12505895.188 6
 95  2 14 19  8 59.9980000  0  7 28 18 14 31 29 22 19
  23457937.779    -4740954.538 5  -3388536.616 5
  20456357.170   -21757454.593 7 -16814200.149 8
  21430616.686    -1524648.032 6  -1122277.534 6
  23884480.701    -1227675.359 4   -883250.022 1
  19969317.771   -17881017.357 7 -13878116.872 8
  22112823.279    -4936791.194 6  -3771126.605 6
  21370348.896   -16311087.967 6 -12551676.343 6
 95  2 14 19  9 29.9980000  0  7 28 18 14 31 29 22 19
  23445122.350    -4808285.173 5  -3441001.934 4
  20444122.107   -21821750.455 7 -16864300.814 9
  21446624.842    -1440523.254 6  -1056725.857 6
  23866467.303    -1322329.818 4   -957006.611 1
  19966827.811   -17894099.758 7 -13888310.958 8
  22127731.936    -4858460.803 6  -3710089.993 6
  21359210.404   -16369624.646 6 -12597289.329 6
 95  2 14 19  9 59.9980000  0  7 28 18 14 31 29 22 19
  23432360.584    -4875351.530 5  -3493261.339 4
  20431935.936   -21885787.085 7 -16914199.486 8
  21462689.475    -1356095.702 6   -990938.245 6
  23848447.842    -1417029.632 4  -1030798.559 2
  19964405.396   -17906834.859 7 -13898234.430 8
  22142696.623    -4779806.438 6  -3648800.923 7
  21348112.545   -16427947.452 6 -12642735.652 7
 95  2 14 19 10 29.9980000  0  7 28 18 14 31 29 22 19
  23419650.771    -4942141.746 5  -3545305.591 4
  20419801.873   -21949552.818 7 -16963887.076 9
  21478817.795    -1271354.879 6   -924906.546 6
  23830416.889    -1511776.241 3  -1104626.931 1
  19962051.256   -17919203.522 7 -13907872.344 8
  22157729.701    -4700808.080 6  -3587243.817 6
  21337055.225   -16486053.196 6 -12688012.844 6
 95  2 14 19 10 59.9980000  0  7 28 18 14 31 29 22 19
  23406991.334    -5008660.980 5  -3597138.689 5
  20407719.436   -22013050.906 7 -17013366.108 9
  21495000.436    -1186308.764 6   -858636.947 6
  23812381.123    -1606566.144 3  -1178489.087 1
  19959765.693   -17931209.934 7 -13917227.999 8
  22172824.428    -4621480.785 6  -3525430.392 6
  21326034.014   -16543969.087 6 -12733142.086 6
 95  2 14 19 11 29.9980000  0  7 28 18 14 31 29 22 19
  23394387.186    -5074898.477 5  -3648752.276 4
  20395687.818   -22076268.608 7 -17062626.658 9
  21511244.662    -1100942.507 6   -792117.885 6
  23794340.061    -1701369.038 3  -1252361.336 2
  19957551.607   -17942841.301 7 -13926291.402 8
  22187986.287    -4541819.235 6  -3463356.516 6
  21315051.217   -16601697.297 6 -12778125.086 6
 95  2 14 19 11 59.9980000  0  8 28 18 14 31 29 22 19 27
  23381836.006    -5140849.295 5  -3700142.483 4
  20383714.076   -22139206.217 7 -17111668.957 9
  21527552.318    -1015253.217 6   -725347.112 6
  23776299.998    -1796159.150 3  -1326223.646 2
  19955410.967   -17954102.723 7 -13935066.553 8
  22203204.990    -4461827.005 6  -3401024.966 6
  21304100.162   -16659228.403 6 -12822954.498 6
  24450269.326      -86364.152 3
 95  2 14 19 12 29.9980000  0  8 28 18 14 31 29 22 19 27
  23369339.350    -5206510.227 5  -3751306.802 4
  20371788.232   -22201863.867 7 -17160493.108 9
  21543919.420     -929245.240 6   -658328.022 6
  23758267.529    -1890933.557 3  -1400073.710 2
  19953333.396   -17965016.456 7 -13943570.774 8
  22218489.896    -4381509.456 6  -3338439.911 6
  21293192.756   -16716564.696 6 -12867632.117 6
  24433851.850     -172635.040 3        -0.16811
 95  2 14 19 12 59.9980000  0  8 28 18 14 31 29 22 19 27
  23356901.826    -5271883.212 5  -3802246.763 3
  20359919.342   -22264246.470 7 -17209102.940 9
  21560343.967     -842921.279 6   -591062.704 6
  23740234.287    -1985683.898 3  -1473905.034 2
  19951320.826   -17975591.911 7 -13951811.408 8
  22233836.764    -4300877.149 6  -3275609.608 6
  21282315.162   -16773710.515 6 -12912161.295 6
  24417454.959     -258812.058 3    -67151.009 2
 95  2 14 19 13 29.9980000  0  8 28 18 14 31 29 22 19 27
  23344516.303    -5336964.339 5  -3852959.328 3
  20348097.084   -22326364.283 7 -17257506.451 9
  21576831.982     -756285.639 6   -523554.526 6
  23722208.381    -2080408.511 3  -1547716.288 1
  19949374.123   -17985823.297 7 -13959783.938 8
  22249240.365    -4219927.163 6  -3212531.761 6
  21271480.990   -16830645.853 6 -12956526.477 6
  24401077.592     -344906.821 3   -134237.758 2
 95  2 14 19 13 59.9980000  0  8 28 18 14 31 29 22 19 27
  23332187.146    -5401751.676 5  -3903442.967 4
  20336323.982   -22388228.570 7 -17305712.405 9
  21593377.154     -669342.175 6   -455806.479 6
  23704185.404    -2175125.780 3  -1621521.851 2
  19947493.147   -17995707.425 7 -13967485.878 8
  22264701.084    -4138670.245 6  -3149214.748 6
  21260691.256   -16887364.068 6 -13000722.478 6
  24384701.943     -430915.950 3   -201257.772 3
 95  2 14 19 14 29.9980000  0  8 28 18 14 31 29 22 19 27
  23319916.662    -5466241.737 5  -3953694.963 4
  20324601.623   -22449839.775 7 -17353721.151 9
  21609979.959     -582089.828 6   -387817.750 6
  23686159.357    -2269845.400 3  -1695329.245 2
  19945681.053   -18005231.144 7 -13974906.979 8
  22280224.412    -4057100.887 6  -3085654.289 6
  21249936.342   -16943867.853 7 -13044751.391 6
  24368349.154     -516836.516 3   -268208.789 3
 95  2 14 19 14 59.9980000  0  8 28 18 14 31 29 22 19 27
  23307705.647    -5530431.593 5  -4003713.022 5
  20312923.303   -22511207.281 7 -17401539.998 9
  21626642.545     -494529.375 6   -319588.941 6
  23668138.217    -2364556.486 3  -1769129.973 2
  19943942.584   -18014367.476 7 -13982026.221 8
  22295806.021    -3975222.091 6  -3021852.704 6
  21239221.193   -17000157.689 6 -13088613.588 7
  24352022.029     -602671.591 3   -335093.144 1
 95  2 14 19 15 29.9980000  0  8 28 18 14 31 29 22 19 27
  23295547.092    -5594315.427 5  -4053492.641 5
  20301291.545   -22572323.406 7 -17449162.969 9
  21643363.803     -406664.911 6   -251123.243 6
  23650115.654    -2459264.618 3  -1842928.393 2
  19942277.240   -18023113.866 7 -13988841.623 8
  22311442.857    -3893041.858 6  -2957816.231 6
  21228558.701   -17056223.634 6 -13132301.315 7
  24335702.834     -688410.056 2   -401902.208 1
 95  2 14 19 15 59.9980000  0  8 28 18 14 31 29 22 19 27
  23283447.193    -5657889.430 5  -4103030.820 4
  20289712.717   -22633173.038 7 -17496578.281 8
  21660139.365     -318502.349 6   -182425.260 6
  23632089.795    -2553974.776 3  -1916728.413 3
  19940684.107   -18031486.311 7 -13995365.643 8
  22327138.545    -3810566.136 6  -2893549.523 6
  21217929.756   -17112069.957 6 -13175817.920 6
  24319409.201     -774043.240 2   -468629.286 3
 95  2 14 19 16 29.9980000  0  8 28 18 14 31 29 22 19 27
  23271408.389    -5721160.282 5  -4152332.783 4
  20278186.201   -22693754.458 7 -17543784.600 9
  21676967.498     -230065.526 6   -113513.571 6
  23614069.787    -2648681.765 3  -1990525.937 3
  19939158.482   -18039507.043 7 -14001615.605 8
  22342889.873    -3727800.490 6  -2829056.928 6
  21207340.303   -17167700.526 6 -13219166.398 7
  24303127.092     -859589.615 2   -535288.706 2
 95  2 14 19 16 59.9980000  0  8 28 18 14 31 29 22 19 27
  23259426.592    -5784130.098 5  -4201400.162 5
  20266709.748   -22754065.738 7 -17590780.402 8
  21693846.592     -141368.603 6    -44399.208 6
  23596047.428    -2743382.965 3  -2064318.964 4
  19937695.709   -18047196.973 7 -14007607.791 8
  22358688.342    -3644760.983 6  -2764350.903 6
  21196794.115   -17223116.478 6 -13262347.639 7
  24286866.053     -945067.422 2   -601894.702 1
 95  2 14 19 17 29.9980000  0  8 28 18 14 31 29 22 19 27
  23247502.506    -5846781.725 5  -4250219.593 5
  20255289.154   -22814080.632 7 -17637545.257 9
  21710772.982      -52410.949 6     24918.323 6
  23578030.756    -2838068.478 4  -2138099.760 3
  19936294.490   -18054560.848 7 -14013345.911 8
  22374547.545    -3561431.683 6  -2699419.061 6
  21186293.975   -17278306.752 6 -13305353.037 6
  24270612.678    -1030475.357 3   -668446.301 2
 95  2 14 19 17 59.9980000  0  8 28 18 14 31 29 22 19 27
  23235635.537    -5909114.054 5  -4298790.218 5
  20243924.287   -22873797.497 7 -17684077.883 8
  21727752.123       36800.377 6     94433.524 6
  23560017.521    -2932720.428 4  -2211854.397 3
  19934953.623   -18061599.170 7 -14018830.347 8
  22390460.467    -3477810.006 6  -2634259.399 6
  21175833.646   -17333284.182 6 -13348192.577 7
  24254368.920    -1115831.438 3   -734957.474 4
 95  2 14 19 18 29.9980000  0  8 28 18 14 31 29 22 19 27
  23223844.967    -5971124.533 5  -4347110.035 5
  20232616.264   -22933218.968 7 -17730380.328 8
  21744778.686      126274.787 6    164153.705 6
  23542015.279    -3027323.500 4  -2285570.937 3
  19933679.357   -18068301.289 7 -14024052.803 8
  22406426.475    -3393897.373 6  -2568873.034 6
  21165412.326   -17388049.480 6 -13390866.824 7
  24238136.482    -1201142.255 3   -801433.394 3
 95  2 14 19 18 59.9980000  0  8 28 18 14 31 29 22 19 27
  23212104.225    -6032812.590 5  -4395178.620 5
  20221364.764   -22992345.161 7 -17776452.697 8
  21761855.092      216018.598 6    234083.827 6
  23524021.959    -3121875.582 4  -2359247.713 2
  19932469.186   -18074658.314 7 -14029006.354 8
  22422450.139    -3309701.361 6  -2503265.846 6
  21155027.232   -17442616.512 7 -13433386.577 7
  24221915.584    -1286404.391 3   -867871.409 3
 95  2 14 19 19 29.9980000  0  8 28 18 14 31 29 22 19 27
  23200425.998    -6094170.623 5  -4442990.038 5
  20210172.443   -23051173.358 7 -17822292.849 8
  21778986.865      306039.593 6    304229.939 6
  23506041.490    -3216363.014 4  -2432874.110 2
  19931327.365   -18080655.454 7 -14033679.475 8
  22438526.521    -3225227.253 6  -2437441.960 6
  21144679.725   -17496983.512 7 -13475750.457 7
  24205703.037    -1371591.652 3   -934251.094 3
 95  2 14 19 19 59.9980000  0  8 28 18 14 31 29 22 19 27
  23188815.389    -6155205.871 5  -4490549.921 5
  20199032.717   -23109710.370 7 -17867906.108 8
  21796168.889      396340.523 6    374594.173 6
  23488072.522    -3310789.448 4  -2506452.977 3
  19930256.592   -18086289.433 7 -14038069.612 8
  22454649.256    -3140499.211 6  -2371420.193 6
  21134371.436   -17551150.321 7 -13517958.348 7
  24189504.967    -1456693.693 2  -1000564.348 2
 95  2 14 19 20 29.9980000  0  8 28 18 14 31 29 22 19 27
  23177258.693    -6215911.450 5  -4537852.914 5
  20187950.217   -23167945.209 7 -17913283.902 8
  21813407.193      486928.237 6    445181.876 6
  23470113.248    -3405162.444 5  -2579990.191 2
  19929254.295   -18091548.910 7 -14042167.934 8
  22470818.436    -3055530.804 6  -2305211.134 6
  21124104.436   -17605117.631 7 -13560010.792 7
  24173329.396    -1541693.579 3  -1066798.017 3
 95  2 14 19 20 59.9980000  0  8 28 18 14 31 29 22 19 27
  23165770.850    -6276283.950 5  -4584896.362 5
  20176925.482   -23225871.470 7 -17958421.251 8
  21830702.498      577802.904 6    515993.188 6
  23452168.170    -3499482.323 5  -2653486.044 2
  19928327.256   -18096426.118 7 -14045968.378 8
  22487031.123    -2970331.845 6  -2238822.426 6
  21113873.529   -17658893.623 7 -13601914.157 7
  24157177.287    -1626585.520 3  -1132947.550 4
 95  2 14 19 21 29.9980000  0  8 28 18 14 31 29 22 19 27
  23154349.779    -6336315.478 5  -4631674.122 5
  20165965.162   -23283478.431 7 -18003309.797 8
  21848049.303      668962.271 6    587026.339 6
  23434222.779    -3593748.226 5  -2726939.818 4
  19927474.506   -18100909.150 7 -14049461.667 8
  22503287.146    -2884895.439 6  -2172248.697 6
  21103674.811   -17712466.851 7 -13643659.527 7
  24141038.068    -1711359.680 3  -1199005.337 2
 95  2 14 19 21 59.9980000  0  8 28 18 14 31 29 22 19 27
  23142986.740    -6396000.628 5  -4678181.975 5
  20155064.662   -23340756.077 7 -18047941.726 8
  21865449.287      760407.178 6    658281.989 6
  23416297.350    -3687966.489 5  -2800356.475 2
  19926698.904   -18104985.360 7 -14052637.948 8
  22519596.396    -2799198.796 6  -2105472.175 6
  21093522.397   -17765833.704 7 -13685244.080 7
  24124935.162    -1796022.961 3  -1264976.740 2
 95  2 14 19 22 29.9980000  0  8 28 18 14 31 29 22 19 27
  23131697.646    -6455350.016 5  -4724428.199 5
  20144225.873   -23397725.039 7 -18092333.128 8
  21882899.787      852106.154 6    729735.621 6
  23398376.396    -3782147.177 5  -2873743.885 2
  19925996.615   -18108671.019 7 -14055509.903 8
  22535954.295    -2713238.766 6  -2038490.414 6
  21083399.459   -17819010.582 7 -13726680.606 7
  24108840.334    -1880603.359 4  -1330883.479 1
 95  2 14 19 22 59.9980000  0  8 28 18 14 31 29 22 19 27
  23120466.201    -6514359.204 5  -4770409.328 5
  20133440.482   -23454385.881 7 -18136484.437 8
  21900396.326      944042.860 6    801374.495 6
  23380463.248    -3876286.754 5  -2947099.254 2
  19925370.084   -18111958.291 7 -14058071.433 8
  22552366.693    -2626982.670 6  -1971277.953 6
  21073322.943   -17871985.436 7 -13767959.713 7
  24092757.670    -1965101.496 3  -1396726.112 2
 95  2 14 19 23 29.9980000  0  8 28 18 14 31 29 22 19 27
  23109303.772    -6573020.264 5  -4816119.212 5
  20122720.053   -23510738.856 7 -18180395.853 9
  21917929.147     1036196.634 6    873182.517 6
  23362556.154    -3970381.128 5  -3020419.406 2
  19924820.514   -18114850.615 7 -14060325.209 8
  22568840.631    -2540418.631 6  -1903825.537 6
  21063282.115   -17924739.931 7 -13809067.103 7
  24076690.920    -2049508.743 3  -1462497.884 3
 95  2 14 19 23 59.9980000  0  8 28 18 14 31 29 22 19 27
  23098205.014    -6631331.688 5  -4861556.640 5
  20112055.623   -23566783.713 7 -18224067.185 9
  21935510.029     1128559.978 6    945153.841 5
  23344659.490    -4064423.883 5  -3093699.364 1
  19924342.568   -18117364.649 7 -14062284.210 8
  22585368.693    -2453561.549 6  -1836144.782 6
  21053283.162   -17977277.070 7 -13850005.123 7
  24060649.592    -2133836.924 3  -1528208.044 2
 95  2 14 19 24 29.9980000  0  8 28 18 14 31 29 22 19 27
  23087181.857    -6689287.994 5  -4906717.357 5
  20101447.717   -23622511.815 7 -18267491.684 9
  21953120.818     1221123.295 6   1017280.994 6
  23326775.607    -4158407.496 5  -3166933.206 1
  19923936.412   -18119506.647 7 -14063953.314 8
  22601948.365    -2366435.247 6  -1768254.250 6
  21043329.342   -18029590.978 7 -13890769.198 7
  24044617.412    -2218089.482 3  -1593859.237 2
 95  2 14 19 24 59.9980000  0  8 28 18 14 31 29 22 19 27
  23076215.850    -6746886.970 5  -4951599.649 5
  20090903.764   -23677918.476 7 -18310665.712 9
  21970777.936     1313904.646 6   1089578.039 5
  23308904.342    -4252320.089 5  -3240111.729 3
  19923599.436   -18121277.908 7 -14065333.535 8
  22618575.092    -2279065.558 6  -1700174.055 6
  21033419.170   -18081684.361 7 -13931361.423 7
  24028597.443    -2302261.442 3  -1659447.632 2
 95  2 14 19 25 29.9980000  0  8 28 18 14 31 29 22 19 27
  23065324.600    -6804129.415 5  -4996204.110 5
  20080420.115   -23733011.345 7 -18353595.216 9
  21988478.592     1406925.918 6   1162062.022 5
  23291049.865    -4346144.683 5  -3313221.650 3
  19923328.037   -18122695.460 7 -14066438.140 8
  22635237.670    -2191489.522 6  -1631933.043 6
  21023548.678   -18133556.664 7 -13971781.387 7
  24012590.311    -2386361.359 3  -1724979.907 3
 95  2 14 19 25 59.9980000  0  8 28 18 14 31 29 22 19 27
  23054498.850    -6861027.104 5  -5040539.954 5
  20069993.146   -23787800.728 7 -18396288.237 9
  22006227.811     1500192.056 6   1234736.822 5
  23273214.506    -4439880.737 5  -3386262.584 2
  19923125.896   -18123762.959 7 -14067269.982 8
  22651940.615    -2103721.854 6  -1563542.698 6
  21013714.521   -18185234.314 7 -14012049.653 7
  23996596.475    -2470414.754 3  -1790475.900 2
 95  2 14 19 26 29.9980000  0  8 28 18 14 31 29 22 19 27
  23043735.225    -6917565.116 5  -5084595.522 5
  20059627.006   -23842280.167 7 -18438739.738 9
  22024028.248     1593724.911 6   1307619.451 5
  23255396.607    -4533507.170 5  -3459218.130 1
  19922993.068   -18124450.515 7 -14067805.757 8
  22668683.295    -2015736.371 6  -1494982.647 6
  21003919.709   -18236706.917 7 -14052158.148 7
  23980617.217    -2554402.260 3  -1855920.577 1
 95  2 14 19 26 59.9980000  0  8 28 18 14 31 29 22 19 27
  23033049.959    -6973737.771 5  -5128366.386 5
  20049316.928   -23896460.906 7 -18480958.482 9
  22041874.771     1687524.565 6   1380709.974 5
  23237604.920    -4627008.367 5  -3532076.066 3
  19922939.006   -18124750.746 7
  22685473.764    -1927515.663 6  -1426239.297 6
  20994161.303   -18287979.262 7 -14092110.585 7
  23964647.232    -2638308.887 3  -1921302.250 2
 95  2 14 19 27 29.9980000  0  8 28 18 14 31 29 22 19 27
  23022433.912    -7029540.881 5  -5171849.288 5
  20039065.029   -23950336.353 7 -18522939.342 9
  22059770.998     1781567.232 6   1453989.848 6
  23219832.350    -4720395.220 5  -3604844.920 2
  19922955.951   -18124653.997 7
  22702307.271    -1839043.040 6  -1357299.645 6
  20984439.334   -18339059.985 7 -14131913.712 7
  23948704.787    -2722139.557 3  -1986624.758 2
 95  2 14 19 27 59.9980000  0  8 28 18 14 31 29 22 19 27
  23011882.162    -7084983.751 5  -5215051.472 5
  20028872.803   -24003908.867 7 -18564684.132 9
  22077705.865     1875814.763 6   1527429.364 5
  23202079.631    -4813694.376 5  -3677545.433 3
  19923053.264   -18124151.634 7
  22719190.686    -1750317.806 6  -1288163.159 6
  20974750.420   -18389962.607 7 -14171578.060 7
  23932755.818    -2805904.751 3  -2051896.200 1
 95  2 14 19 28 29.9980000  0  8 28 18 14 31 29 22 19 27
  23001400.037    -7140055.099 5  -5257964.138 5
  20018733.654   -24057174.299 7 -18606189.633 9
  22095678.561     1970260.729 6   1601023.504 5
  23184339.436    -4906914.157 5  -3750184.098 3
  19923226.584   -18123237.379 7 -14066860.530 9
  22736125.607    -1661336.085 6  -1218826.804 6
  20965106.271   -18440669.644 7 -14211090.003 7
  23916834.381    -2889590.236 3  -2117105.553 4
 95  2 14 19 28 59.9980000  0  8 28 18 14 31 29 22 19 27
  22990987.068    -7194753.801 5  -5300586.424 5
  20008657.037   -24110137.194 7 -18647459.381 9
  22113686.506     2064890.109 6   1674760.564 5
  23166612.459    -5000060.041 5  -3822765.197 2
  19923475.232   -18121924.160 7 -14065837.251 8
  22753103.623    -1572115.451 6  -1149304.273 6
  20955490.186   -18491184.061 7 -14250451.858 7
  23900913.311    -2973206.348 3  -2182260.873 2
 95  2 14 19 29 29.9980000  0  8 28 18 14 31 29 22 19 27
  22980653.943    -7249076.089 5  -5342915.392 5
  19998638.826   -24162782.472 7 -18688481.638 9
  22131729.873     2159713.899 6   1748649.104 5
  23148899.889    -5093139.638 5  -3895294.679 3
  19923798.123   -18120216.650 7 -14064506.742 9
  22770125.748    -1482662.252 5  -1079600.562 6
  20945916.998   -18541501.396 7 -14289660.143 7
  23885016.295    -3056758.178 3  -2247366.122 2
 95  2 14 19 29 59.9980000  0  8 28 18 14 31 29 22 19 27
  22970386.279    -7303016.799 5  -5384947.011 5
  19988683.295   -24215104.426 7 -18729251.948 9
  22149813.607     2254746.836 6   1822700.618 5
  23131200.631    -5186152.878 5  -3967772.445 3
  19924196.287   -18118130.904 7 -14062881.506 9
  22787189.857    -1392987.453 5  -1009724.153 6
  20936379.795   -18591609.193 7 -14328705.165 7
  23869144.498    -3140231.735 3  -2312410.359 3
 95  2 14 19 30 29.9980000  0  8 28 18 14 31 29 22 19 27
  22960195.748    -7356581.598 5  -5426685.700 5
  19978783.162   -24267110.877 7 -18769776.413 9
  22167938.584     2349977.656 6   1896906.326 5
  23113513.646    -5279093.780 5  -4040193.877 4
  19924661.975   -18115695.789 7 -14060984.030 9
  22804292.201    -1303115.770 6   -939694.341 6
  20926883.967   -18641530.078 7 -14367604.538 7
  23853270.732    -3223628.247 3  -2377394.572 2
 95  2 14 19 30 59.9980000  0  8 28 18 14 31 29 22 19 27
  22950076.381    -7409763.477 5  -5468125.987 5
  19968954.123   -24318776.581 7 -18810035.355 9
  22186097.209     2445410.947 6   1971269.809 5
  23095846.693    -5371940.561 5  -4112541.975 4
  19925189.037   -18112910.035 7 -14058813.320 9
  22821429.779    -1213053.425 5   -869515.976 5
  20917415.850   -18691270.288 7 -14406363.133 7
  23837414.951    -3306927.804 3  -2442303.203 3
 95  2 14 19 31 29.9980000  0  8 28 18 14 31 29 22 19 27
  22940028.326    -7462559.296 5  -5509265.442 5
  19959191.396   -24370084.855 7 -18850015.787 9
  22204296.850     2541047.089 5   2045791.349 5
  23078199.834    -5464687.043 5  -4184811.950 3
  19925790.670   -18109760.613 7 -14056359.229 9
  22838606.592    -1122800.223 5   -799188.882 5
  20907983.764   -18740826.823 7 -14444978.617 7
  23821588.451    -3390118.925 3  -2507127.367 1
 95  2 14 19 31 59.9980000  0  8 28 18 14 31 29 22 19 27
  22930054.654    -7514968.207 5  -5550103.417 5
  19949496.693   -24421031.656 7 -18889714.556 9
  22222529.365     2636864.593 5   2120454.211 5
  23060570.568    -5557315.769 5  -4256990.181 4
  19926462.381   -18106231.856 7 -14053609.549 8
  22855812.287    -1032372.581 5   -728725.863 6
  20898589.826   -18790194.385 7 -14483446.844 7
  23805774.873    -3473198.999 3  -2571865.006 2
 95  2 14 19 32 29.9980000  0  8 28 18 14 31 29 22 19 27
  22920157.842    -7566988.476 5  -5590638.550 5
  19939869.772   -24471618.050 7 -18929132.488 9
  22240796.068     2732846.347 5   2195245.047 5
  23042972.506    -5649801.108 5  -4329056.705 4
  19927209.186   -18102302.203 7 -14050547.479 9
  22873054.662     -941765.582 5   -658123.077 6
  20889230.225   -18839380.519 7 -14521773.706 7
  23789984.232    -3556169.144 3  -2636516.978 2
 95  2 14 19 32 59.9980000  0  8 28 18 14 31 29 22 19 27
  22910332.756    -7618616.602 5  -5630868.116 5
  19930310.568   -24521842.325 7 -18968268.254 9
  22259093.045     2829006.934 5   2270175.253 5
  23025399.561    -5742144.667 5  -4401012.751 4
  19928037.482   -18097951.438 7 -14047157.271 8
  22890333.686     -850961.837 5   -587366.985 6
  20879912.084   -18888367.865 7 -14559945.668 7
  23774214.100    -3639034.489 3  -2701087.270 2
 95  2 14 19 33 29.9980000  0  8 28 18 14 31 29 22 19 27
  22900583.295    -7669842.776 5  -5670784.477 5
  19920821.920   -24571705.381 7 -19007122.550 9
  22277427.154     2925347.248 5   2345245.509 6
  23007855.920    -5834335.578 5  -4472849.867 4
  19928949.725   -18093161.732 7 -14043425.033 9
  22907655.615     -759947.950 5   -516447.164 6
  20870631.217   -18937131.009 7 -14597942.918 7
  23758466.490    -3721811.020 3  -2765588.388 2
 95  2 14 19 33 59.9980000  0  8 28 18 14 31 29 22 19 27
  22890916.990    -7720671.740 5  -5710391.343 5
  19911401.748   -24621218.543 7 -19045704.200 9
  22295791.342     3021855.803 5   2420446.850 5
  22990341.303    -5926385.636 5  -4544577.219 5
  19929940.740   -18087952.639 7 -14039365.994 9
  22925014.787     -668723.363 5   -445363.170 6
  20861389.295   -18985679.216 7 -14635772.684 7
  23742723.162    -3804514.288 3  -2830032.395 3
 95  2 14 19 34 29.9980000  0  8 28 18 14 31 29 22 19 27
  22881318.857    -7771096.680 5  -5749683.388 5
  19902041.514   -24670387.964 7 -19084018.004 9
  22314192.404     3118548.611 5   2495791.762 5
  22972849.826    -6018298.174 5  -4616197.416 4
  19931009.131   -18082332.665 7 -14034986.785 9
  22942415.162     -577268.379 5   -374099.623 6
  20852194.834   -19034020.263 7 -14673441.027 7
  23726997.912    -3887156.574 3  -2894428.894 3
 95  2 14 19 34 59.9980000  0  8 28 18 14 31 29 22 19 27
  22871798.029    -7821107.231 5  -5788652.545 5
  19892756.318   -24719207.046 7 -19122058.826 9
  22332630.146     3215437.786 5   2571289.693 5
  22955384.740    -6110074.652 5  -4687711.571 4
  19932153.631   -18076312.621 7 -14030295.833 9
  22959863.490     -485584.205 5   -302657.494 5
  20843035.248   -19082131.396 7 -14710930.182 7
  23711288.014    -3969744.259 3  -2958782.857 3
 95  2 14 19 35 29.9980000  0  8 28 18 14 31 29 22 19 27
  22862355.428    -7870716.074 5  -5827308.688 5
  19883526.764   -24767690.973 7 -19159838.490 9
  22351099.740     3312494.883 5   2646918.458 5
  22937943.639    -6201721.563 5  -4759124.739 4
  19933371.592   -18069924.111 7 -14025317.763 9
  22977347.623     -393706.854 5   -231064.815 6
  20833922.264   -19130043.066 7 -14748263.941 7
  23695572.717    -4052288.265 3  -3023102.801 2
 95  2 14 19 35 59.9970000  0  8 28 18 14 31 29 22 19 27
  22852998.548    -7919921.117 5  -5865650.209 5
  19874365.056   -24815836.126 7 -19197354.176 9
  22369599.626     3409718.830 5   2722677.248 5
  22920532.056    -6293233.443 5  -4830432.648 4
  19934654.720   -18063175.807 7 -14020059.331 9
  22994865.806     -301645.465 5   -159328.745 6
  20824840.493   -19177772.712 7 -14785455.832 7
  23679880.782    -4134768.769 3  -3087373.264 3
 95  2 14 19 36 29.9970000  0  8 28 18 14 31 29 22 19 27
  22843710.095    -7968713.263 5  -5903669.996 5
  19865271.134   -24863635.146 7 -19234600.158 9
  22388138.735     3507132.771 5   2798584.083 5
  22903147.798    -6384588.478 5  -4901618.318 4
  19936012.368   -18056037.577 7 -14014497.067 9
  23012420.532     -209402.223 5    -87450.967 5
  20815791.649   -19225307.684 7 -14822496.024 7
  23664200.126    -4217173.856 3  -3151584.937 3
 95  2 14 19 36 59.9970000  0  8 28 18 14 31 29 22 19 27
  22834503.860    -8017097.090 5  -5941371.595 5
  19856241.892   -24911089.332 7
  22406705.642     3604722.090 5   2874627.587 5
  22885792.259    -6475783.520 5  -4972679.264 4
  19937446.415   -18048508.989 7 -14008630.636 9
  23030002.438     -117007.430 5    -15455.085 5
  20806781.954   -19272647.890 7
  23648537.493    -4299489.386 4  -3215726.851 4
 95  2 14 19 37 29.9970000  0  8 28 18 14 31 29 22 19 27
  22825373.931    -8065074.649 5  -5978756.628 5
  19847275.087   -24958200.852 7
  22425312.337     3702484.916 5   2950806.275 5
  22868469.399    -6566821.777 5  -5043618.044 4
  19938954.892   -18040577.472 7 -14002450.217 9
  23047610.829      -24471.810 5     56650.537 5
  20797807.009   -19319814.822 7
  23632892.821    -4381711.383 3  -3279795.884 3
 95  2 14 19 37 59.9970000  0  8 28 18 14 31 29 22 19 27
  22816325.470    -8112624.276 5  -6015808.215 6
  19838380.063   -25004941.693 7 -19344709.142 9
  22443953.813     3800447.997 5   3027141.003 5
  22851174.728    -6657690.228 5  -5114424.425 4
  19940547.673   -18032209.857 7 -13995930.000 9
  23065249.407       68223.647 5    128880.701 6
  20788872.681   -19366774.890 7 -14932730.040 7
  23617261.399    -4463837.445 3  -3343790.159 4
 95  2 14 19 38 29.9970000  0  8 28 18 14 31 29 22 19 27
  22807361.071    -8159748.327 5  -6052528.173 5
  19829551.626   -25051324.878 7 -19380851.890 9
  22462631.673     3898598.309 5   3103621.630 5
  22833911.774    -6748397.345 5  -5185105.085 5
  19942222.017   -18023412.833 7 -13989075.185 9
  23082915.782      161070.618 5    201228.937 5
  20779975.821   -19413529.340 7 -14969162.027 7
  23601647.196    -4545887.982 4  -3407725.566 5
 95  2 14 19 38 59.9970000  0  8 28 18 14 31 29 22 19 27
  22798470.188    -8206442.593 5
  19820797.431   -25097351.070 7 -19416716.466 9
  22481341.610     3996922.263 5   3180237.553 5
  22816685.134    -6838948.340 5  -5255664.078 4
  19943975.892   -18014193.353 7 -13981891.172 9
  23100618.493      254082.991 5    273706.083 5
  20771112.587   -19460083.687 7
  23586047.001    -4627865.786 4  -3471604.298 4
 95  2 14 19 39 29.9970000  0  8 28 18 14 31 29 22 19 27
  22789668.157    -8252707.850 5
  19812104.298   -25143017.585 7 -19452300.783 9
  22500084.024     4095412.157 5   3256982.773 5
  22799480.470    -6929352.560 5  -5326108.682 4
  19945810.032   -18004556.141 7 -13974381.658 9
  23118350.813      347268.760 5    346318.334 5
  20762296.540   -19506434.716 7
  23570459.415    -4709788.582 4  -3535440.184 4
 95  2 14 19 39 59.9970000  0  8 28 18 14 31 29 22 19 27
  22780951.595    -8298537.001 5  -6160674.884 5
  19803484.649   -25188322.725 7 -19487603.510 9
  22518856.251     4194060.023 5   3333851.091 5
  22782307.063    -7019597.699 5  -5396429.320 4
  19947725.587   -17994495.397 7 -13966542.129 9
  23136121.595      440644.712 5    419078.796 5
  20753513.884   -19552566.723 7 -15077502.709 7
  23554878.571    -4791657.203 4  -3599233.833 4
 95  2 14 19 40 29.9970000  0  8 28 18 14 31 29 22 19 27
  22772306.774    -8343925.330 5  -6196042.295 5
  19794931.017   -25233262.145 7 -19522621.254 9
  22537654.751     4292849.599 5   3410829.826 5
  22765169.306    -7109668.629 5  -5466614.197 4
  19949717.681   -17984013.943 7 -13958374.772 9
  23153931.321      534219.947 5    491994.520 5
  20744781.345   -19598483.941 7 -15113282.327 8
  23539314.165    -4873453.157 4  -3662970.857 4
 95  2 14 19 40 59.9970000  0  8 28 18 14 31 29 22 19 27
  22763754.415    -8388884.124 5  -6231074.980 5
  19786451.970   -25277832.439 7 -19557351.369 8
  22556478.446     4391767.030 5   3487908.186 5
  22748057.267    -7199576.912 5  -5536672.323 4
  19951791.704   -17973124.959 7 -13949889.865 9
  23171768.899      627972.779 5    565048.652 5
  20736080.478   -19644194.384 7 -15148900.825 7
  23523763.095    -4955187.086 4  -3726659.541 4
 95  2 14 19 41 29.9970000  0  8 28 18 14 31 29 22 19 27
  22755278.759    -8433418.182 5  -6265776.712 6
  19778042.337   -25322027.600 7 -19591789.170 9
  22575324.321     4490804.832 5   3565080.340 5
  22730977.267    -7289327.310 5  -5606607.441 4
  19953936.845   -17961847.717 7 -13941102.426 9
  23189638.720      721885.003 5    638226.982 5
  20727419.149   -19689706.328 7 -15184364.668 7
  23508218.720    -5036859.444 4  -3790300.249 4
 95  2 14 19 41 59.9970000  0  8 28 18 14 31 29 22 19 27
  22746889.321    -8477519.945 5  -6300141.601 5
  19769705.423   -25365831.898 7 -19625922.405 8
  22594193.868     4589956.495 5   3642341.221 5
  22713932.798    -7378900.804 5  -5676404.714 4
  19956156.821   -17950182.613 7 -13932012.760 9
  23207539.704      815957.344 5    711530.073 5
  20718794.587   -19735025.965 7 -15219678.659 7
  23492692.157    -5118452.266 3  -3853878.966 4
 95  2 14 19 42 29.9970000  0  8 28 18 14 31 29 22 19 27
  22738579.782    -8521180.057 5  -6334162.347 6
  19761448.360   -25409223.278 7 -19659733.874 8
  22613084.907     4689230.456 5   3719697.405 5
  22696925.376    -7468279.720 5  -5746050.374 4
  19958450.149   -17938136.067 7 -13922625.861 9
  23225468.829      910180.034 5    784950.320 5
  20710207.571   -19780154.471 7 -15254843.725 8
  23477185.720    -5199942.074 4  -3917377.429 4
 95  2 14 19 42 59.9970000  0  7 28 14 31 29 22 19 27
  22730348.954    -8564404.371 5  -6367843.523 5
  22631998.376     4788623.588 5   3797146.442 5
  22679955.821    -7557460.421 5  -5815541.563 5
  19960812.993   -17925717.332 7 -13912948.956 9
  23243427.095     1004546.845 5    858482.857 5
  20701658.579   -19825109.386 7 -15289873.530 7
  23461701.048    -5281333.508 5  -3980799.231 2
 95  2 14 19 43 29.9970000  0  8 28 18 14 31 29 22 19 27
  22722207.501    -8607192.184 5
  19745160.181          -0.68517
  22650931.923     4888128.116 5   3874682.302 5
  22663024.954    -7646422.087 5  -5884862.093 4
  19963247.618   -17912924.475 7 -13902980.526 9
  23261411.017     1099057.831 5    932127.739 5
  20693127.220   -19869902.951 7 -15324777.608 8
  23446228.704    -5362624.947 5  -4044143.120 4
 95  2 14 19 43 59.9970000  0  8 28 18 14 31 29 22 19 27
  22714154.751    -8649531.150 5
  19737120.853      -42229.812 7
  22669891.415     4987747.493 5   3952307.633 5
  22646142.681    -7735143.502 5  -5953995.424 4
  19965757.032   -17899733.816 7 -13892702.118 9
  23279424.228     1193717.290 5   1005888.290 5
  20684638.329   -19914529.405 7 -15359551.479 8
  23430774.564    -5443812.516 4  -4107406.090 4
 95  2 14 19 44 29.9970000  0  8 28 18 14 31 29 22 19 27
  22706182.423    -8691419.846 5
  19729156.642      -84091.118 7 -19770539.158 8
  22688870.626     5087483.773 5   4030024.057 5
  22629305.384    -7823626.982 5  -6022943.370 4
  19968345.454   -17886137.039 7 -13882107.253 9
  23297466.017     1288522.036 5   1079762.057 5
  20676175.134   -19958993.059 7 -15394198.486 8
  23415347.946    -5524902.084 4  -4170592.681 4
 95  2 14 19 44 59.9970000  0  8 28 18 14 31 29 22 19 27
  22698293.485    -8732861.645 5
  19721260.735     -125591.933 7
  22707871.829     5187329.865 5   4107826.039 5
  22612508.532    -7911892.742 5  -6091721.679 5
  19971011.071   -17872122.733 7 -13871187.045 9
  23315535.181     1383468.952 5   1153746.619 5
  20667742.985   -20003294.266 7 -15428718.914 8
  23399934.048    -5605915.605 5  -4233720.023 4
 95  2 14 19 45 29.9970000  0  8 28 18 14 31 29 22 19 27
  22690492.235    -8773861.916 5
  19713432.571     -166727.486 7
  22726890.485     5287277.687 5   4185707.306 5
  22595746.212    -7999967.671 5  -6160351.296 5
  19973758.228   -17857687.574 7 -13859938.896 9
  23333625.313     1478540.740 5   1227828.467 5
  20659346.517   -20047421.604 7 -15463103.852 8
  23384527.079    -5686865.419 4  -4296797.770 3
 95  2 14 19 45 59.9970000  0  8 28 18 14 31 29 22 19 27
  22682778.524    -8814411.640 5        -0.43216
  19705677.813     -207479.895 7 -19866686.211 8
  22745929.462     5387334.340 5   4263673.358 5
  22579020.071    -8087874.532 5  -6228849.958 5
  19976587.103   -17842820.854 7 -13848354.456 9
  23351741.829     1573749.128 5   1302016.755 5
  20650984.524   -20091363.247 7 -15497344.095 7
  23369138.759    -5767736.404 4  -4359814.068 5
 95  2 14 19 46 29.9970000  0  8 28 18 14 31 29 22 19 27
  22675152.134    -8854490.702 5    -31230.816 6
  19698002.056     -247809.870 7 -19898112.148 8
  22764998.813     5487531.649 5   4341749.020 5
  22562325.821    -8175597.662 5  -6297205.468 5
  19979501.040   -17827509.664 7 -13836423.679 9
  23369889.626     1669113.402 5   1376326.494 5
  20642666.735   -20135084.934 7 -15531412.929 7
  23353764.165    -5848509.270 5  -4422753.908 4
 95  2 14 19 46 59.9970000  0  8 28 18 14 31 29 22 19 27
  22667611.587    -8894123.244 5    -62113.258 6
  19690401.782     -287730.825 7 -19929219.365 8
  22784085.829     5587843.221 5   4419913.718 5
  22545661.876    -8263163.189 5  -6365438.160 5
  19982494.532   -17811779.565 7 -13824166.479 9
  23388061.173     1764602.419 5   1450733.446 5
  20634387.032   -20178605.156 7 -15565324.776 7
  23338410.337    -5929209.154 5  -4485636.884 3
 95  2 14 19 47 29.9970000  0  8 28 18 14 31 29 22 19 27
  22660151.985    -8933304.514 5    -92644.049 6
  19682887.985     -327241.979 7 -19960007.251 8
  22803196.540     5688268.811 5   4498167.259 5
  22529033.938    -8350552.974 5  -6433533.914 5
  19985567.438   -17795629.901 7 -13811582.339 9
  23406254.548     1860211.792 5   1525234.183 5
  20626141.157   -20221923.254 7 -15599079.108 7
  23323067.571    -6009817.096 4  -4548448.186 3
 95  2 14 19 47 59.9970000  0  8 28 18 14 31 29 22 19 27
  22652784.485    -8972017.061 5   -122809.611 6
  19675446.337     -366328.021 7 -19990463.874 8
  22822329.571     5788812.346 5   4576512.687 5
  22512442.884    -8437726.090 5  -6501460.866 5
  19988725.751   -17779036.208 7 -13798652.206 9
  23424472.704     1955956.591 5   1599840.464 5
  20617940.603   -20265032.475 7 -15632670.670 7
  23307749.118    -6090328.631 4  -4611184.393 5
 95  2 14 19 48 29.9970000  0  7 28 14 31 29 22 19 27
  22645505.274    -9010275.175 6   -152621.055 6
  22841481.095     5889452.978 5   4654933.790 5
  22495899.423    -8524673.816 5  -6569212.174 5
  19991964.938   -17762008.026 7 -13785383.497 9
  23442712.728     2051814.112 5   1674534.555 5
  20609776.267   -20307942.636 7 -15666107.118 7
  23292440.290    -6170771.953 4  -4673867.418 5
 95  2 14 19 48 59.9970000  0  7 28 14 31 29 22 19 27
  22638316.134    -9048064.076 5   -182066.887 6
  22860649.704     5990184.652 5   4733425.839 5
  22479399.353    -8611374.595 5  -6636771.057 5
  19995292.251   -17744523.392 7 -13771759.110 9
  23460978.899     2147793.441 5   1749323.555 5
  20601645.267   -20350655.578 7 -15699389.883 7
  23277147.282    -6251141.783 4  -4736493.180 4
 95  2 14 19 49 29.9970000  0  7 28 14 31 29 22 19 27
  22631214.845    -9085378.251 6   -211142.802 6
  22879834.095     6091002.593 5   4811985.092 4
  22462951.423    -8697811.353 5  -6704124.226 5
  19998705.860   -17726586.778 7 -13757782.536 9
  23479265.157     2243892.635 5   1824205.976 4
  20593553.673   -20393167.973 7 -15732516.370 7
  23261869.556    -6331441.943 4  -4799064.641 4
 95  2 14 19 49 59.9970000  0  7 28 14 31 29 22 19 27
  22624204.017    -9122222.187 5   -239852.296 6
  22899034.095     6191900.614 5   4890606.744 5
  22446551.095    -8783987.198 5  -6771274.094 5
  20002201.384   -17708221.399 7 -13743471.850 9
  23497578.071     2340112.405 5   1899182.340 4
  20585502.978   -20435495.063 7 -15765498.461 7
  23246597.423    -6411697.932 5  -4861601.685 4
 95  2 14 19 50 29.9970000  0  7 28 14 31 29 22 19 27
  22617279.392    -9158599.381 5   -268198.097 5
  22918250.790     6292881.378 5   4969292.866 5
  22430201.282    -8869913.455 5  -6838229.469 5
  20005772.149   -17689453.976 7 -13728847.889 9
  23515906.220     2436438.986 5   1974241.944 4
  20577480.829   -20477645.864 7 -15798343.189 7
  23231333.618    -6491902.622 5  -4924098.739 4
 95  2 14 19 50 59.9970000  0  8 28 18 14 31 29 22 19 27
  22610451.282    -9194505.611 6   -296176.914 6
  19632398.657      -36749.240 7
  22937480.493     6393938.104 5   5048038.176 5
  22413899.603    -8955586.341 5  -6904987.438 5
  20009419.017   -17670291.263 7 -13713915.908 9
  23534258.759     2532877.775 5   2049389.001 4
  20569488.079   -20519624.216 7 -15831053.528 7
  23216079.485    -6572050.485 5  -4986551.512 4
 95  2 14 19 51 29.9970000  0  8 28 18 14 31 29 22 19 27
  22603704.282    -9229930.559 5   -323780.725 6
  19625478.853      -73103.118 7        -0.25018
  22956729.157     6495083.265 5   5126852.392 5
  22397644.196    -9041001.745 5  -6971544.761 5
  20013140.243   -17650733.231 7 -13698675.894 9
  23552634.673     2629442.060 5   2124633.848 3
  20561540.056   -20561418.678 7 -15863620.590 7
  23200842.712    -6652128.740 5  -5048950.044 4
 95  2 14 19 51 59.9970000  0  8 28 18 14 31 29 22 19 27
  22597054.321    -9264886.712 5   -351019.244 6
  19618634.923     -109071.362 7    -28027.429 8
  22975991.196     6596299.727 5   5205722.189 5
  22381434.376    -9126188.184 5  -7037923.686 5
  20016937.345   -17630780.314 7 -13683128.174 9
  23571031.274     2726125.838 5   2199971.795 5
  20553617.321   -20603038.098 7 -15896051.257 7
  23185617.735    -6732143.409 5  -5111299.019 4
 95  2 14 19 52 29.9970000  0  8 28 18 14 31 29 22 19 27
  22590494.688    -9299367.158 5   -377887.084 6
  19611867.001     -144644.333 7    -55746.602 8
  22995263.095     6697577.197 5   5284639.499 5
  22365267.626    -9211142.824 5  -7104121.998 5
  20020812.642   -17610414.656 7 -13667258.837 9
  23589452.048     2822925.428 5   2275399.979 5
  20545733.806   -20644456.627 7 -15928325.394 7
  23170407.548    -6812067.770 5  -5173577.652 4
 95  2 14 19 52 59.9970000  0  8 28 18 14 31 29 22 19 27
  22584022.587    -9333371.845 6   -404384.229 6
  19605175.501     -179812.055 7    -83149.997 8
  23014548.110     6798918.981 5   5363606.937 4
  22349145.196    -9295867.423 5  -7170141.040 5
  20024767.017   -17589634.642 7 -13651066.630 9
  23607893.064     2919834.291 5   2350913.335 4
  20537889.806   -20685676.872 7 -15960445.033 7
  23155218.196    -6891909.123 5  -5235791.591 4
 95  2 14 19 53 29.9970000  0  8 28 18 14 31 29 22 19 27
  22577644.142    -9366887.048 6   -430499.947 6
  19598566.149     -214547.206 7   -110216.330 8
  23033848.728     6900348.061 5   5442642.391 5
  22333069.040    -9380348.711 5  -7235970.508 5
  20028802.423   -17568423.634 7 -13634538.598 8
  23626356.821     3016845.563 5   2426506.487 5
  20530084.899   -20726688.012 7 -15992401.729 7
  23140038.954    -6971651.385 5  -5297928.322 4
 95  2 14 19 53 59.9970000  0  8 28 18 14 31 29 22 19 27
  22571360.134    -9399921.090 6   -456240.745 6
  19592038.235     -248838.249 7   -136936.609 9
  23053165.142     7001852.427 5   5521736.517 4
  22317038.782    -9464584.736 5  -7301608.846 5
  20032919.329   -17546794.184 7 -13617684.500 9
  23644831.587     3113933.261 5   2502159.189 5
  20522323.923   -20767495.284 7 -16024199.577 7
  23124883.985    -7051292.249 5  -5359986.065 4
 95  2 14 19 54 29.9970000  0  8 28 18 14 31 29 22 19 27
  22565170.517    -9432470.782 6   -481604.120 6
  19585598.274     -282673.976 7   -163302.099 8
  23072496.392     7103437.442 5   5600893.475 5
  22301060.892    -9548547.184 5  -7367034.016 5
  20037111.782   -17524758.803 7 -13600514.102 8
  23663318.079     3211078.900 5   2577857.039 5
  20514592.970   -20808115.935 7 -16055852.012 7
  23109745.626    -7130839.004 5  -5421970.477 5
 95  2 14 19 54 59.9970000  0  8 28 18 14 31 29 22 19 27
  22559065.345    -9464531.228 6   -506586.260 6
  19579246.704     -316050.805 7   -189309.993 8
  23091843.040     7205108.596 5   5680117.544 4
  22285136.110    -9632228.993 5  -7432240.503 5
  20041383.532   -17502309.988 7 -13583021.542 8
  23681813.899     3308282.489 5   2653600.019 5
  20506896.298   -20848568.850 7 -16087373.744 7
  23094622.360    -7210308.208 5  -5483894.466 4
 95  2 14 19 55 29.9970000  0  8 28 18 14 31 29 22 19 27
  22553058.298    -9496112.064 5   -531194.686 6
  19572981.149     -348991.185 7   -214977.808 8
  23111200.431     7306824.064 5   5759376.143 4
  22269266.532    -9715629.547 5  -7497227.848 5
  20045733.485   -17479453.287 7 -13565211.151 9
  23700322.821     3405534.433 5   2729380.698 5
  20499224.220   -20888860.045 7 -16118769.459 8
  23079513.837    -7289704.502 5  -5545761.656 4
 95  2 14 19 55 59.9970000  0  8 28 18 14 31 29 22 19 27
  22547136.399    -9527225.243 6   -555438.695 6
  19566788.587     -381534.909 7   -240336.535 8
  23130557.251     7408557.142 4   5838648.469 4
  22253445.095    -9798759.210 5  -7562004.085 5
  20050159.743   -17456196.918 7 -13547089.335 8
  23718834.423     3502833.600 5   2805198.171 5
  20491586.290   -20928998.657 7 -16150046.286 8
  23064417.938    -7369048.590 5  -5607588.179 5
 95  2 14 19 56 29.9970000  0  8 28 18 14 31 29 22 19 27
  22541312.095    -9557833.291 5   -579289.095 6
  19560673.556     -413670.702 7   -265377.393 8
  23149925.868     7510328.573 5   5917950.681 3
  22237683.353    -9881592.082 5  -7626549.060 5
  20054671.298   -17432491.319 7 -13528617.469 8
  23737369.431     3600230.250 5   2881091.613 5
  20483982.610   -20968960.046 7 -16181185.010 8
  23049329.884    -7448316.719 5  -5669355.496 5
 95  2 14 19 56 59.9970000  0  8 28 18 14 31 29 22 19 27
  22535580.603    -9587937.943 5   -602747.237 6
  19554630.884     -445411.503 7   -290110.471 8
  23169299.587     7612133.443 5   5997278.941 2
  22221972.329    -9964152.649 5  -7690881.845 5
  20059269.915   -17408321.881 7 -13509784.168 8
  23755924.634     3697737.598 5   2957071.301 5
  20476417.915   -21008731.151 7 -16212175.457 8
  23034259.204    -7527504.411 5  -5731060.121 5
 95  2 14 19 57 29.9970000  0  8 28 18 14 31 29 22 19 27
  22529950.157    -9617540.482 5   -625814.116 6
  19548665.149     -476757.303 7   -314535.744 8
  23188677.735     7713974.760 5   6076635.620 2
  22206312.618   -10046441.788 5  -7755003.127 5
  20063955.634   -17383700.255 7 -13490598.514 8
  23774502.321     3795356.108 5   3033137.602 5
  20468887.939   -21048306.148 7 -16243013.092 8
  23019208.649    -7606606.329 5  -5792697.917 5
 95  2 14 19 57 59.9970000  0  8 28 18 14 31 29 22 19 27
  22524406.142    -9646655.244 5   -648500.919 6
  19542779.196     -507706.426 7   -338651.925 8
  23208064.438     7815851.888 4   6156020.184 3
  22190699.899   -10128485.940 5  -7818933.511 5
  20068723.564   -17358641.433 7 -13471072.181 8
  23793095.501     3893076.988 5   3109283.658 5
  20461387.384   -21087703.242 7 -16273712.091 8
  23004168.751    -7685636.923 5  -5854280.142 5
 95  2 14 19 58 29.9970000  0  8 28 18 14 31 29 22 19 27
  22518956.321    -9675281.034 5   -670806.701 6
  19536968.204     -538234.294 7   -362439.849 8
  23227457.571     7917765.009 4   6235432.803 2
  22175133.978   -10210287.620 5  -7882674.972 5
  20073572.704   -17333160.483 7 -13451216.914 8
  23811707.485     3990892.269 4   3185503.283 5
  20453925.837   -21126923.247 7 -16304273.094 8
  22989143.829    -7764594.946 5  -5915805.783 5
 95  2 14 19 58 59.9970000  0  8 28 18 14 31 29 22 19 27
  22513606.438    -9703394.681 5   -692713.418 6
  19531244.938     -568300.556 7   -385868.082 8
  23246864.470     8019739.183 4   6314892.992 2
  22159620.767   -10291809.652 5  -7946198.523 5
  20078502.954   -17307250.731 7 -13431027.509 8
  23830341.321     4088803.430 4   3261797.614 5
  20446504.884   -21165934.141 7 -16334671.150 8
  22974138.274    -7843463.414 5  -5977261.652 5
 95  2 14 19 59 29.9970000  0  8 28 18 14 31 29 22 19 27
  22508359.118    -9730998.925 5   -714223.202 6
  19525612.048     -597896.549 7   -408929.870 8
  23266277.603     8121753.481 5   6394384.451 3
  22144167.376   -10373026.684 5  -8009484.423 5
  20083512.392   -17280924.653 7 -13410513.691 8
  23848988.743     4186794.381 3   3338154.136 4
  20439119.204   -21204744.937 7 -16364913.279 8
  22959142.946    -7922255.996 5  -6038658.371 5
 95  2 14 19 59 59.9970000  0  8 28 18 14 31 29 22 19 27
  22503198.642    -9758102.592 5   -735342.918 6
  19520071.446     -627024.970 7   -431627.318 8
  23285693.556     8223790.145 5   6473893.330 3
  22128768.157   -10453941.034 5  -8072534.465 5
  20088600.149   -17254189.849 7 -13389681.396 8
  23867647.696     4284846.554 3   3414558.344 3
  20431767.220   -21243367.468 7 -16395008.709 8
  22944161.399    -8000991.387 5  -6100010.522 5
 95  2 14 20  0 29.9970000  0  8 28 18 14 31 29 22 19 27
  22498135.798    -9784702.808 5   -756070.333 6
  19514620.087     -655681.787 7   -453957.279 8
  23305114.853     8325846.487 5   6553417.549 4
  22113434.103   -10534530.762 6  -8135331.551 5
  20093766.064   -17227043.432 7 -13368528.348 8
  23886316.587     4382946.930 3   3491000.127 4
  20424449.634   -21281805.708 7 -16424960.542 8
  22929186.392    -8079676.640 5  -6161323.614 5
 95  2 14 20  0 59.9970000  0  8 28 18 14 31 29 22 19 27
  22493173.048    -9810801.856 5   -776407.219 6
  19509252.103     -683870.959 7   -475922.848 8
  23324537.985     8427915.486 5   6632951.605 4
  22098163.048   -10614781.738 5  -8197864.658 5
  20099012.509   -17199476.101 7 -13347047.316 8
  23904988.978     4481086.639 3   3567472.564 2
  20417171.845   -21320071.657 7 -16454778.119 8
  22914222.595    -8158310.109 5  -6222596.337 4
 95  2 14 20  1 29.9970000  0  8 28 18 14 31 29 22 19 27
  22488302.032    -9836395.685 5   -796350.438 6
  19503976.540     -711604.824 7   -497533.636 8
  23343966.173     8530007.517 4   6712503.623 4
  22082953.431   -10694690.577 6  -8260131.167 5
  20104338.962   -17171484.541 7 -13325235.718 8
  23923677.993     4579280.438 4   3643987.148 4
  20409922.024   -21358172.724 7 -16484467.225 8
  22899272.814    -8236871.101 5  -6283812.606 5
 95  2 14 20  1 59.9970000  0  8 28 18 14 31 29 22 19 27
  22483526.001    -9861483.541 5   -815899.388 6
  19498783.431     -738896.826 7   -518800.102 8
  23363399.454     8632138.167 4   6792085.750 4
  22067810.563   -10774278.305 6  -8322147.455 5
  20109746.290   -17143066.627 7 -13303091.900 8
  23942371.728     4677524.815 3   3720541.152 3
  20402701.032   -21396108.993 7 -16514027.911 8
  22884344.157    -8315345.318 5  -6344961.253 5
 95  2 14 20  2 29.9970000  0  8 28 18 14 31 29 22 19 27
  22478850.923    -9886063.458 5   -835052.531 6
  19493668.524     -765769.999 7   -539740.216 8
  23382839.368     8734302.372 4   6871694.014 3
  22052727.173   -10853545.771 5  -8383914.196 5
  20115235.735   -17114218.203 7 -13280612.614 8
  23961079.009     4775821.224 5   3797135.683 2
  20395515.392   -21433875.963 7 -16543456.686 8
  22869426.931    -8393715.500 5  -6406028.821 5
 95  2 14 20  2 59.9970000  0  8 28 18 14 31 29 22 19 27
  22474269.501    -9910130.379 5   -853805.935 6
  19488628.298     -792250.024 7   -560373.981 8
  23402289.782     8836496.917 4   6951325.919 3
  22037703.071   -10932501.037 6  -8445437.654 5
  20120807.704   -17084941.612 7 -13257799.697 8
  23979794.712     4874173.893 5   3873774.077 2
  20388363.610   -21471461.728 7 -16572744.267 8
  22854534.181    -8471977.633 5  -6467012.207 5
 95  2 14 20  3 29.9970000  0  8 28 18 14 31 29 22 19 27
  22469784.196    -9933682.040 5   -872157.826 6
  19483667.470     -818337.404 7   -580701.789 8
  23421742.368     8938727.178 4   7030985.648 4
  22022734.970   -11011151.983 6  -8506723.984 5
  20126461.509   -17055229.371 7 -13234647.305 8
  23998522.767     4972580.732 5   3950454.673 2
  20381244.548   -21508851.993 7 -16601879.518 8
  22839660.587    -8550139.134 5  -6527917.180 5
 95  2 14 20  3 59.9970000  0  8 28 18 14 31 29 22 19 27
  22465402.899    -9956735.392 5   -890121.425 6
  19478776.517     -844024.377 7   -600717.588 8
  23441196.345     9040954.016 4   7110642.714 2
  22007821.407   -11089523.600 6
  20132197.493   -17025090.279 7 -13211162.303 8
  24017251.501     5071010.884 5   4027153.435 2
  20374169.876   -21546052.510 7 -16630866.909 8
  22824797.767    -8628241.485 5
 95  2 14 20  4 29.9970000  0  8 28 18 14 31 29 22 19 27
  22461115.860    -9979271.449 5   -907681.937 6
  19473974.985     -869269.502 7   -620389.097 8
  23460649.407     9143173.097 3   7190293.736 4
  21992965.806   -11167580.435 6
  20138014.423   -16994515.804 7 -13187338.042 8
  24035992.126     5169486.518 5   4103887.651 1
  20367123.806   -21583053.986 7 -16659699.215 8
  22809945.642    -8706285.737 5
 95  2 14 20  4 59.9970000  0  8 28 18 14 31 29 22 19 27
  22456919.212   -10001309.085 5   -924854.062 6
  19469257.079     -894058.974 7   -639705.548 8
  23480094.009     9245366.091 3   7269924.437 4
  21978173.689   -11245324.893 6  -8689196.061 5
  20143912.251   -16963523.513 7 -13163188.211 8
  24054734.790     5267987.366 5   4180641.493 1
  20360116.610   -21619884.184 7 -16688398.059 8
  22795098.142    -8784308.473 5  -6710386.542 5
 95  2 14 20  5 29.9970000  0  8 28 18 14 31 29 22 19 27
  22452821.274   -10022827.112 5   -941621.296 6
  19464638.142     -918338.042 7   -658624.293 8
  23499540.829     9347554.158 3   7349551.275 4
  21963441.907   -11322733.564 6  -8749514.398 5
  20149893.704   -16932093.506 7 -13138697.305 8
  24073489.134     5366536.397 5   4257432.903 1
  20353142.782   -21656532.873 7 -16716955.457 8
  22780262.126    -8862289.513 5  -6771150.884 5
 95  2 14 20  5 59.9970000  0  8 28 18 14 31 29 22 19 27
  22448831.173   -10043801.140 5   -957964.633 6
  19460118.235     -942091.561 7   -677133.504 8
  23518992.720     9449750.263 4   7429184.403 4
  21948783.212   -11399773.840 6  -8809545.699 5
  20155957.774   -16900222.987 7 -13113863.139 9
  24092258.563     5465167.286 5   4334288.100 2
  20346204.321   -21692988.142 7 -16745362.142 8
  22765435.774    -8940195.759 5  -6831856.964 5
 95  2 14 20  6 29.9970000  0  8 28 18 14 31 29 22 19 27
  22444938.603   -10064278.485 5   -973920.956 6
  19455680.259     -965392.734 7   -695290.250 8
  23538428.407     9551916.171 3   7508794.002 4
  21934186.024   -11476475.250 6  -8869312.952 5
  20162097.431   -16867962.713 7 -13088725.268 8
  24111029.579     5563827.782 5   4411166.348 1
  20339297.485   -21729309.139 7 -16773664.200 8
  22750619.579    -9018053.245 5  -6892525.046 5
 95  2 14 20  6 59.9970000  0  8 28 18 14 31 29 22 19 27
  22441141.556   -10084228.865 5   -989466.665 6
  19451336.032     -988235.865 7   -713090.074 8
  23557877.235     9654101.442 3   7588418.678 4
  21919659.103   -11552818.968 6  -8928801.490 5
  20168315.548   -16835281.651 7 -13063259.512 8
  24129812.946     5662529.667 5   4488076.897 1
  20332414.438   -21765461.493 7 -16801834.850 8
  22735822.563    -9095814.385 5  -6953118.057 5
 95  2 14 20  7 29.9970000  0  7 28 18 14 31 29 19 27
  22437445.087   -10103661.740 5  -1004609.118 6
  19447071.720    -1010646.091 7   -730552.574 8
  23577320.353     9756288.373 3   7668044.629 3
  21905194.126   -11628828.686 6  -8988029.770 5
  20174613.173   -16802190.820 7 -13037474.452 8
  20325564.649   -21801447.421 7 -16829875.806 8
  22721043.931    -9173479.048 5  -7013635.873 5
 95  2 14 20  7 59.9970000  0  7 28 18 14 31 29 19 27
  22433847.485   -10122572.565 5  -1019344.774 6
  19442886.438    -1032638.450 7   -747689.460 8
  23596764.728     9858475.535 3   7747670.758 3
  21890798.001   -11704486.535 6  -9046983.861 5
  20180990.868   -16768676.986 7 -13011359.788 9
  20318750.720   -21837256.199 7 -16857778.727 8
  22706283.439    -9251035.094 5  -7074069.058 5
 95  2 14 20  8 29.9970000  0  7 28 18 14 31 29 19 27
  22430343.017   -10140972.605 5  -1033682.431 6
  19438779.493    -1054219.341 7   -764505.719 8
  23616210.313     9960645.580 3   7827283.545 2
  21876462.040   -11779812.780 6  -9105679.593 5
  20187448.142   -16734742.316 7 -12984917.192 9
  20311970.548   -21872892.633 7 -16885547.351 8
  22691545.188    -9328497.108 5  -7134428.964 5
 95  2 14 20  8 59.9970000  0  7 28 18 14 31 29 19 27
  22426943.665   -10158835.086 5  -1047601.218 6
  19434758.087    -1075345.640 7   -780967.748 8
  23635647.759    10062813.528 3   7906894.703 2
  21862194.712   -11854790.020 6  -9164103.363 5
  20193989.079   -16700362.291 7 -12958127.572 9
  20305234.290   -21908314.875 7 -16913149.067 8
  22676821.438    -9405856.179 5  -7194708.676 5
 95  2 14 20  9 29.9970000  0  7 28 18 14 31 29 19 27
  22423639.345   -10176176.288 5  -1061113.828 6
  19430825.110    -1096025.096 7   -797081.583 8
  23655084.860    10164939.690 3   7986473.303 3
  21847992.126   -11929426.236 6  -9222261.405 5
  20200614.603   -16665551.599 7 -12931002.362 9
  20298526.735   -21943536.526 7 -16940594.476 8
  22662116.228    -9483144.473 5  -7254933.220 5
 95  2 14 20  9 59.9970000  0  7 28 18 14 31 29 19 27
  22420442.306   -10192987.572 5  -1074213.522 6
  19426974.634    -1116246.620 7   -812838.587 8
  23674512.814    10267025.284 3   8066020.287 1
  21833855.212   -12003710.835 6  -9280145.467 5
  20207319.860   -16630312.989 7 -12903543.718 9
  20291867.478   -21978558.904 7 -16967884.614 8
  22647423.118    -9560355.708 5  -7315097.728 5
 95  2 14 20 10 29.9970000  0  7 28 18 14 31 29 19 27
  22417345.501   -10209270.053 5  -1086901.166 6
  19423217.790    -1135996.564 7   -828228.129 8
  23693928.267    10369064.591 4   8145531.202 2
  21819786.915   -12077648.452 6  -9337759.153 5
  20214104.821   -16594658.296 7 -12875760.850 9
  20285237.001   -22013387.115 7 -16995023.451 8
  22632740.782    -9637502.737 5  -7375212.209 5
 95  2 14 20 10 59.9970000  0  7 28 18 14 31 29 19 27
  22414345.665   -10225029.105 5  -1099180.925 6
  19419548.821    -1155275.086 7   -843250.332 8
  23713341.204    10471058.571 4   8225006.810 2
  21805783.907   -12151226.867 6  -9395092.936 5
  20220968.634   -16558589.093 7 -12847654.989 9
  20278642.587   -22048038.210 7 -17022024.271 8
  22618070.126    -9714601.998 5  -7435289.456 5
 95  2 14 20 11 29.9970000  0  7 28 18 14 31 29 19 27
  22411446.001   -10240264.743 5  -1111052.832 6
  19415968.829    -1174082.356 7   -857905.323 8
  23732738.860    10573005.593 5   8304445.815 2
  21791852.923   -12224442.421 6  -9452143.963 5
  20227911.103   -16522106.031 7 -12819226.641 8
  20272082.196   -22082526.146 7 -17048897.957 8
  22603409.759    -9791652.235 5  -7495328.526 5
 95  2 14 20 11 59.9970000  0  7 28 18 14 31 29 19 27
  22408650.868   -10254953.450 5  -1122498.565 6
  19412484.438    -1192395.602 7   -872175.361 8
  23752135.923    10674934.561 4   8383870.766 2
  21777995.751   -12297257.321 6  -9508882.788 6
  20234936.821   -16485183.425 7 -12790455.795 9
  20265550.759   -22116831.223 7 -17075629.162 8
  22588759.751    -9868624.089 5  -7555306.514 5
 95  2 14 20 12 29.9970000  0  7 28 18 14 31 29 19 27
  22405956.454   -10269125.597 5  -1133541.773 6
  19409087.259    -1210241.259 7   -886081.049 8
  23771523.837    10776815.697 4   8463258.434 2
  21764213.056   -12369690.699 6  -9565324.335 5
  20242041.985   -16447845.350 7 -12761361.207 9
  20259055.103   -22150978.276 7 -17102237.224 8
  22574121.431    -9945553.576 5  -7615251.505 5
 95  2 14 20 12 59.9970000  0  7 28 18 14 31 29 19 27
  22403354.970   -10282773.225 5  -1144176.254 6
  19405785.313    -1227609.215 7   -899614.505 8
  23790903.868    10878651.785 4   8542610.953 1
  21750501.985   -12441740.307 6  -9621466.822 6
  20249229.415   -16410080.628 7 -12731934.162 9
  20252585.907   -22184958.118 7 -17128714.997 8
  22559491.110   -10022434.696 5  -7675158.795 5
 95  2 14 20 13 29.9970000  0  7 28 18 14 31 29 19 27
  22400865.032   -10295875.774 5  -1154385.987 6
  19402575.048    -1244473.373 7   -912755.393 8
  23810273.243    10980452.278 4   8621935.788 1
  21736866.454   -12513392.701 6  -9677299.773 5
  20256497.681   -16371878.342 7 -12702166.164 9
  20246155.579   -22218753.380 7 -17155048.950 8
  22544877.118   -10099233.487 5  -7735001.942 5
 95  2 14 20 13 59.9970000  0  7 28 18 14 31 29 19 27
  22398473.501   -10308442.561 5  -1164178.230 6
  19399459.509    -1260842.034 7   -925510.186 8
  23829634.220    11082198.301 3   8701218.131 1
  21723307.892   -12584651.325 6  -9732825.891 6
  20263850.228   -16333249.337 7 -12672065.661 8
  20239759.985   -22252379.247 7 -17181250.904 8
  22530275.220   -10175954.629 5  -7794784.580 5
 95  2 14 20 14 29.9970000  0  7 28 18 14 31 29 19 27
  22396188.665   -10320470.916 6  -1173550.891 6
  19396440.743    -1276703.450 7   -937869.722 8
  23848984.751    11183886.877 4   8780455.749 2
  21709819.306   -12655529.607 6  -9788055.630 6
  20271282.118   -16294189.960 7 -12641629.795 8
  20233392.063   -22285826.022 7 -17207313.309 8
  22515690.860   -10252600.302 5  -7854508.425 5
 95  2 14 20 14 59.9970000  0  7 28 18 14 31 29 19 27
  22393995.181   -10331964.591 6  -1182506.932 6
  19393514.446    -1292080.077 7   -949851.499 8
  23868326.454    11285515.202 3   8859646.390 1
  21696402.329   -12726036.422 6  -9842995.915 5
  20278797.610   -16254705.101 7 -12610862.400 8
  20227061.571   -22319105.753 7 -17233245.547 8
  22501120.907   -10329172.758 5  -7914175.225 5
 95  2 14 20 15 29.9970000  0  7 28 18 14 31 29 19 27
  22391910.524   -10342924.024 5  -1191046.678 6
  19390677.001    -1306997.585 7   -961475.523 8
  23887649.939    11387078.828 3   8938786.601 1
  21683056.681   -12796163.319 6  -9897640.156 6
  20286389.774   -16214798.663 7 -12579766.495 8
  20220758.173   -22352228.843 7 -17259055.719 8
  22486563.001   -10405664.221 5  -7973778.915 5
 95  2 14 20 15 59.9970000  0  7 28 18 14 31 29 19 27
  22389925.962   -10353345.432 5  -1199167.188 6
  19387922.892    -1321472.948 7   -972755.013 8
  23906972.321    11488584.874 3   9017881.960 2
  21669785.501   -12865906.376 6  -9951985.302 6
  20294064.915   -16174471.893 7 -12548343.062 8
  20214485.696   -22385180.760 7 -17284732.520 8
  22472023.282   -10482080.513 5  -8033324.025 5
 95  2 14 20 16 29.9970000  0  7 28 18 14 31 29 19 27
  22388045.243   -10363231.780 5  -1206870.765 6
  19385250.478    -1335513.828 7   -983695.946 8
  23926273.532    11590037.070 3   9096935.335 2
  21656587.149   -12935267.230 6 -10006032.629 6
  20301816.110   -16133727.396 7 -12516594.122 8
  20208248.884   -22417966.805 7 -17310280.067 8
  22457494.720   -10558431.162 5  -8092817.985 5
 95  2 14 20 16 59.9970000  0  8 28 18 14 31 29  2 19 27
  22386269.134   -10372580.983 5  -1214155.792 6
  19382659.399    -1349126.549 7   -994303.250 8
  23945566.306    11691439.671 3   9175950.074 2
  21643461.907   -13004230.056 6 -10059769.777 6
  20309649.556   -16092575.011 7 -12484527.352 8
  23965609.368          -0.28113
  20202039.376   -22450596.258 7 -17335705.591 8
  22442979.282   -10634712.999 5  -8152258.319 5
 95  2 14 20 17 29.9970000  0  7 28 18 31 29  2 19 27
  22384593.915   -10381387.433 5  -1221017.896 6
  19380155.985    -1362282.988 7  -1004555.010 8
  21630419.735   -13072774.936 6 -10113181.271 6
  20317559.212   -16051003.424 7 -12452133.922 8
  23946333.618     -101298.824 3        -0.34214
  20195863.345   -22483046.908 7 -17360991.792 8
  22428477.876   -10710919.310 5  -8211639.799 5
 95  2 14 20 17 59.9970000  0  7 28 18 31 29  2 19 27
  22383021.337   -10389645.087 6  -1227452.380 6
  19377746.118    -1374952.411 7  -1014427.272 8
  21617457.985   -13140885.556 6 -10166254.401 6
  20325552.603   -16008999.166 7 -12419403.350 8
  23927082.149     -202458.403 3    -78825.756 2
  20189724.517   -22515292.681 7 -17386118.350 8
  22413989.603   -10787048.026 5  -8270960.813 5
 95  2 14 20 18 29.9970000  0  7 28 18 31 29  2 19 27
  22381550.743   -10397362.871 6  -1233466.188 6
  19375428.360    -1387132.673 7  -1023918.365 8
  21604578.415   -13208567.289 6 -10218993.322 6
  20333628.149   -15966560.993 7 -12386334.653 8
  23907857.048     -303474.572 3   -157539.467 4
  20183626.939   -22547335.838 7 -17411087.031 8
  22399514.040   -10863102.111 5  -8330223.652 5
 95  2 14 20 18 59.9970000  0  7 28 18 31 29  2 19 27
  22380183.345   -10404538.787 5  -1239057.758 6
  19373203.142    -1398826.311 7  -1033030.270 8
  21591779.259   -13275828.149 6 -10271404.312 6
  20341786.821   -15923688.540 7 -12352927.576 8
  23888663.595     -404334.176 3   -236131.218 4
  20177570.978   -22579164.750 7 -17435888.755 8
  22385059.634   -10939077.440 5  -8389425.127 5
 95  2 14 20 19 29.9970000  0  7 28 18 31 29  2 19 27
  22378921.360   -10411180.853 5  -1244233.345 6
  19371070.689    -1410032.033 7  -1041761.982 8
  21579057.478   -13342680.277 6 -10323496.817 6
  20350028.173   -15880379.107 7 -12319179.982 8
  23869502.743     -505042.786 3   -314605.335 3
  20171554.165   -22610787.945 7 -17460530.200 8
  22370615.556   -11014980.269 5  -8448570.126 5
 95  2 14 20 19 59.9970000  0  7 28 18 31 29  2 19 27
  22377757.681   -10417276.251 5  -1248982.958 6
  19369030.774    -1420742.191 7  -1050107.539 8
  21566414.478   -13409126.790 6 -10375273.251 6
  20358352.024   -15836635.727 7 -12285094.250 8
  23850367.392     -605576.359 4   -392943.083 4
  20165574.923   -22642212.575 7 -17485016.909 8
  22356187.423   -11090801.834 5  -8507651.783 5
 95  2 14 20 20 29.9970000  0  7 28 18 31 29  2 19 27
  22376704.829   -10422828.573 5  -1253309.390 6
  19367085.915    -1430962.556 7  -1058071.439 8
  21553844.079   -13475177.363 6 -10426741.176 6
  20366756.571   -15792468.505 7 -12250678.253 8
  23831276.282     -705917.347 4   -471130.785 5
  20159627.462   -22673468.886 7 -17509372.462 8
  22341773.603   -11166547.473 5  -8566674.269 5
 95  2 14 20 20 59.9970000  0  7 28 18 31 29  2 19 27
  22375753.087   -10427834.503 5  -1257210.062 6
  19365238.759    -1440682.170 7  -1065645.149 8
  21541353.782   -13540818.961 6 -10477890.414 6
  20375242.251   -15747882.287 7 -12215935.763 8
  23812216.095     -806077.942 4   -549177.920 4
  20153705.337   -22704580.778 7 -17533615.485 8
  22327372.673   -11242221.113 5  -8625640.666 5
 95  2 14 20 21 29.9970000  0  7 28 18 31 29  2 19 27
  22374905.571   -10432289.330 5  -1260681.315 6
  19363484.673    -1449887.326 7  -1072817.980 8
  21528943.493   -13606031.054 6 -10528704.984 6
  20383804.751   -15702878.326 7 -12180867.759 8
  23793192.970     -906060.562 4   -627086.389 3
  20147815.493   -22735553.255 7 -17557749.873 8
  22312987.868   -11317819.880 5  -8684548.725 5
 95  2 14 20 21 59.9970000  0  7 28 18 31 29  2 19 27
  22374163.196   -10436190.775 5  -1263721.360 6
  19361830.032    -1458579.442 7  -1079591.040 8
  21516615.978   -13670811.249 6 -10579183.024 6
  20392447.806   -15657462.694 7 -12145478.968 8
  23774194.517    -1005871.377 4   -704860.958 4
  20141944.524   -22766388.131 7 -17581777.021 8
  22298617.220   -11393343.358 5  -8743398.112 5
 95  2 14 20 22 29.9970000  0  7 28 18 31 29  2 19 27
  22373521.892   -10439573.737 5  -1266357.402 6
  19360267.907    -1466790.322 7  -1085989.119 8
  21504365.704   -13735185.416 6 -10629344.676 6
  20401163.063   -15611664.517 7 -12109792.104 8
  23755225.376    -1105577.784 3   -782554.178 4
  20136100.282   -22797108.438 7 -17605714.916 8
  22284251.165   -11468824.673 5  -8802214.657 5
 95  2 14 20 22 59.9970000  0  7 28 18 31 29  2 19 27
  22372977.493   -10442408.155 5  -1268566.000 6
  19358802.962    -1474496.755 7  -1091994.118 8
  21492202.712   -13799112.166 6 -10679157.676 6
  20409953.907   -15565461.396 7 -12073789.696 8
  23736270.282    -1205155.948 3   -860147.443 4
  20130284.251   -22827665.688 7 -17629525.734 8
  22269900.657   -11544239.415 5  -8860979.318 5
 95  2 14 20 23 29.9970000  0  7 28 18 31 29  2 19 27
  22372541.524   -10444691.020 5  -1270344.831 6
  19357433.689    -1481697.913 7  -1097605.396 8
  21480118.454   -13862597.153 6 -10728626.441 6
  20418824.767   -15518852.896 7 -12037471.405 8
  23717352.618    -1304597.184 3   -937633.994 3
  20124507.376   -22858023.410 7 -17653181.081 8
  22255563.024   -11619581.618 5  -8919687.477 5
 95  2 14 20 23 59.9970000  0  7 28 18 31 29  2 19 27
  22372210.298   -10446427.436 5  -1271697.886 6
  19356153.524    -1488405.661 7  -1102832.208 8
  21468123.868   -13925639.008 6 -10777749.917 6
  20427770.259   -15471837.974 7 -12000836.422 8
  23698451.845    -1403902.652 3  -1015014.734 3
  20118772.524   -22888173.082 7 -17676674.294 8
  22241241.282   -11694847.410 5  -8978336.090 5
 95  2 14 20 24 29.9970000  0  7 28 18 31 29  2 19 27
  22371989.595   -10447622.458 5  -1272629.080 6
  19354970.931    -1494636.792 7  -1107687.623 8
  21456214.095   -13988234.731 6 -10826525.763 6
  20436793.493   -15424431.028 7 -11963895.965 8
  23679581.798    -1503063.867 3  -1092283.038 2
  20113069.478   -22918116.135 7 -17700006.506 8
  22226931.048   -11770040.926 5  -9036928.397 5
 95  2 14 20 24 59.9970000  0  7 28 18 31 29  2 19 27
  22371867.876   -10448264.676 5  -1273129.528 6
  19353875.118    -1500384.394 7  -1112166.274 8
  21444387.946   -14050373.850 6 -10874945.790 6
  20445891.181   -15376621.651 7 -11926641.922 8
  23660747.345    -1602040.521 3  -1169407.515 2
  20107416.735   -22947844.815 7 -17723171.677 8
  22212636.884   -11845158.088 5  -9095461.220 5
 95  2 14 20 25 29.9970000  0  7 28 18 31 29  2 19 27
  22371844.110   -10448356.544 5
  19352875.337    -1505650.414 7  -1116269.664 8
  21432648.485   -14112071.991 6 -10923022.199 6
  20455066.985   -15328392.219 7 -11889060.566 8
  23641950.181    -1700842.364 3  -1246395.737 3
  20101794.892   -22977367.606 7 -17746176.415 8
  22198358.540   -11920194.339 5  -9153930.969 5
 95  2 14 20 25 59.9970000  0  7 28 18 31 29  2 19 27
  22371943.392   -10447905.273 5
  19351961.353    -1510454.641 7  -1120013.219 8
  21420989.282   -14173326.381 6 -10970752.832 6
  20464325.259   -15279743.076 7 -11851152.172 8
  23623179.040    -1799462.806 3  -1323242.646 4
  20096207.665   -23006723.498 7 -17769051.107 8
  22184093.071   -11995165.389 5  -9212349.927 5
 95  2 14 20 26 29.9970000  0  7 28 18 31 29  2 19 27
  22372120.899   -10446920.135 5  -1272081.919 6
  19351134.071    -1514795.921 7  -1123396.034 8
  21409414.798   -14234152.520 6 -11018149.755 6
  20473661.829   -15230683.042 7 -11812923.598 8
  23604447.782    -1897911.167 3  -1399955.408 3
  20090651.235   -23035936.197 7 -17791814.217 8
  22169831.220   -12070096.800 5  -9270738.002 5
 95  2 14 20 26 59.9970000  0  7 28 18 31 29  2 19 27
  22372416.118   -10445380.286 5  -1270882.071 6
  19350399.790    -1518638.179 7  -1126390.005 8
  21397926.728   -14294525.250 6 -11065193.363 6
  20483084.556   -15181164.753 7 -11774337.944 8
  23585744.485    -1996175.353 3  -1476524.675 2
  20085123.993   -23064990.171 7 -17814453.645 8
  22155584.892   -12144970.116 5  -9329080.799 5
 95  2 14 20 27 29.9970000  0  7 28 18 31 29  2 19 27
  22372808.563   -10443291.104 5  -1269254.166 6
  19349768.298    -1521980.021 7  -1128994.037 8
  21386526.735   -14354434.063 6 -11111875.486 6
  20492591.157   -15131201.974 7 -11735405.930 8
  23567077.524    -2094272.600 3  -1552963.822 4
  20079622.439   -23093896.420 7 -17836977.975 8
  22141348.595   -12219779.312 5  -9387373.629 6
 95  2 14 20 27 59.9970000  0  7 28 18 31 29  2 19 27
  22373321.978   -10440627.191 5  -1267178.418 6
  19349233.313    -1524780.077 7  -1131175.897 8
  21375221.774   -14413843.441 6 -11158168.435 6
  20502183.759   -15080797.144 7 -11696129.459 8
  23548448.360    -2192175.462 3  -1629251.536 3
  20074150.962   -23122637.105 7 -17859373.289 8
  22127128.501   -12294498.875 5  -9445596.606 5
 95  2 14 20 28 29.9970000  0  7 28 18 31 29  2 19 27
  22373926.665   -10437419.948 5  -1264679.302 6
  19348803.087    -1527053.062 7  -1132947.061 8
  21364007.181   -14472778.133 6 -11204091.500 6
  20511851.345   -15029993.501 7 -11656542.229 8
  23529846.063    -2289928.225 3  -1705422.287 3
  20068710.899   -23151229.036 7 -17881652.709 8
  22112924.610   -12369148.738 5  -9503765.273 5
 95  2 14 20 28 59.9970000  0  7 28 18 31 29  2 19 27
  22374644.610   -10433667.448 6  -1261755.292 6
  19348463.845    -1528805.345 7  -1134312.480 8
  21352882.087   -14531232.251 6 -11249640.078 6
  20521594.446   -14978798.793 7 -11616650.280 8
  23511277.751    -2387519.774 3  -1781467.399 2
  20063304.110   -23179656.670 7 -17903804.102 8
  22098735.970   -12443712.708 5  -9561866.988 5
 95  2 14 20 29 29.9970000  0  7 28 18 31 29  2 19 27
  22375463.399   -10429361.725 6  -1258400.198 6
  19348233.626    -1530043.627 7  -1135277.380 7
  21341852.595   -14589203.540 6 -11294812.426 6
  20531409.829   -14927217.203 7 -11576456.847 8
  23492737.446    -2484932.121 3  -1857372.886 5
  20057924.415   -23207900.647 7 -17925812.388 8
  22084566.524   -12518172.185 5  -9619887.295 5
 95  2 14 20 29 59.9970000  0  7 28 18 31 29  2 19 27
  22376383.251   -10424507.761 6  -1254617.902 6
  19348091.595    -1530781.949 7  -1135852.699 7
  21330910.501   -14646698.713 6 -11339613.772 6
  20541299.353   -14875239.063 7 -11535954.427 8
  23474237.915    -2582155.899 4  -1933131.438 4
  20052586.704   -23235964.628 7 -17947680.420 8
  22070416.165   -12592530.836 5  -9677829.043 5
 95  2 14 20 30 29.9970000  0  7 28 18 31 29  2 19 27
  22377415.860   -10419107.254 6  -1250409.727 6
  19348041.040    -1531044.009 7
  21320059.298   -14703720.156 6 -11384045.996 6
  20551271.642   -14822838.148 7 -11495122.544 8
  23455773.501    -2679182.006 4  -2008735.965 4
  20047282.485   -23263838.947 7 -17969400.662 8
  22056286.821   -12666789.917 5  -9735693.197 6
 95  2 14 20 30 59.9970000  0  7 28 18 31 29  2 19 27
  22378545.696   -10413160.410 6  -1245775.819 6
  19348083.884    -1530832.645 7
  21309297.751   -14760279.909 6 -11428118.452 6
  20561325.587   -14770007.596 7 -11453955.903 8
  23437349.946    -2776003.590 4  -2084181.147 3
  20042015.360   -23291518.319 7 -17990969.006 8
  22042171.673   -12740954.935 6  -9793484.053 5
 95  2 14 20 31 29.9970000  0  7 28 18 31 29  2 19 27
  22379780.048   -10406657.886 6  -1240708.898 6
  19348217.532    -1530128.117 7  -1135343.234 8
  21298620.493   -14816373.819 6 -11471827.909 6
  20571462.884   -14716740.001 7 -11412448.716 8
  23418959.079    -2872624.767 4  -2159470.161 4
  20036784.345   -23319003.904 7 -18012386.348 8
  22028076.032   -12815035.105 5  -9851208.803 6
 95  2 14 20 31 59.9970000  0  7 28 18 31 29  2 19 27
  22381124.181   -10399604.900 6  -1235213.061 6
  19348446.790    -1528919.927 7  -1134401.792 8
  21288036.384   -14872004.512 6 -11515176.429 6
  20581679.290   -14663045.757 7 -11370609.077 8
  23400610.118    -2969055.871 5  -2234611.068 4
  20031592.353   -23346301.092 7 -18033656.881 8
  22013990.688   -12889050.908 6  -9908883.396 6
 95  2 14 20 32 29.9970000  0  7 28 18 31 29  2 19 27
  22382573.774   -10391998.009 6  -1229285.594 6
  19348773.728    -1527203.985 7  -1133064.706 8
  21277537.743   -14927175.172 6 -11558166.467 6
  20591976.735   -14608932.858 7 -11328443.195 8
  23382297.095    -3065302.138 4  -2309607.976 5
  20026434.415   -23373397.589 7 -18054771.025 8
  21999916.017   -12963013.595 6  -9966516.592 6
 95  2 14 20 32 59.9970000  0  7 28 18 31 29  2 19 27
  22384126.017   -10383840.850 5  -1222929.364 6
  19349195.415    -1524972.731 7  -1131326.077 8
  21267127.071   -14981881.876 6 -11600795.000 6
  20602351.587   -14554423.727 7 -11285968.550 8
  23364011.751    -3161377.562 4  -2384471.750 4
  20021314.845   -23400303.275 7 -18075736.499 8
  21985849.759   -13036933.867 6 -10024116.742 6
 95  2 14 20 33 29.9970000  0  7 28 18 31 29  2 19 27
  22385780.399   -10375135.599 5  -1216146.046 6
  19349715.571    -1522240.042 7  -1129196.721 7
  21256807.556   -15036115.953 6 -11643055.254 6
  20612798.923   -14499518.456 7 -11243185.238 8
  23345763.103    -3257286.894 4  -2459206.141 4
  20016228.728   -23427031.259 7 -18096563.497 8
  21971790.017   -13110813.277 6 -10081685.050 6
 95  2 14 20 33 59.9970000  0  7 28 18 31 29  2 19 27
  22387543.743   -10365878.991 5  -1208933.104 6
  19350330.235    -1519008.773 7  -1126678.861 7
  21246579.134   -15089852.947 6 -11684928.164 6
  20623321.509   -14444214.093 7 -11200090.955 7
  23327544.134    -3353021.968 4  -2533804.728 5
  20011177.462   -23453573.795 7 -18117245.987 8
  21957741.118   -13184638.855 6 -10139211.409 5
 95  2 14 20 34 29.9970000  0  7 28 18 31 29  2 19 27
  22389406.478   -10356080.893 5  -1201298.232 6
  19351039.564    -1515296.551 7  -1123786.232 7
  21236450.657   -15143091.677 6 -11726412.824 6
  20633917.517   -14388530.699 7 -11156701.330 8
  23309360.149    -3448592.971 5  -2608275.512 4
  20006158.892   -23479948.378 7 -18137797.603 8
  21943701.407   -13258417.598 6 -10196701.277 6
 95  2 14 20 34 59.9970000  0  7 28 18 31 29  2 19 27
  22391375.821   -10345728.699 5  -1193231.594 6
  19351842.251    -1511072.900 7  -1120495.088 8
  21226417.056   -15195814.465 6 -11767495.469 6
  20644589.899   -14332457.920 7 -11113008.290 8
  23291204.048    -3543983.134 4  -2682605.380 5
  20001171.235   -23506144.994 7 -18158210.542 8
  21929673.657   -13332127.938 6 -10254137.847 6
 95  2 14 20 35 29.9970000  0  7 28 18 31 29  2 19 27
  22393450.501   -10334831.031 5  -1184739.909 6
  19352743.743    -1506334.559 7  -1116802.894 7
  21216480.243   -15248029.230 6 -11808182.253 6
  20655329.001   -14276009.680 6 -11069022.678 7
  23273090.196    -3639194.914 4  -2756796.255 4
  19996219.915   -23532172.747 7 -18178491.905 9
  21915662.009   -13405765.989 6 -10311518.077 6
 95  2 14 20 35 59.9970000  0  7 28 18 31 29  2 19 27
  22395629.571   -10323374.776 5  -1175812.963 6
  19353751.243    -1501049.922 7  -1112684.997 7
  21206644.548   -15299723.732 6 -11848463.628 6
  20666146.337   -14219171.940 6 -11024733.562 7
  23255006.462    -3734206.377 4  -2830831.075 5
  19991300.907   -23558017.750 7 -18198630.863 8
  21901666.938   -13479310.838 6 -10368825.705 6
 95  2 14 20 36 29.9970000  0  7 28 18 31 29  2 19 27
  22397913.938   -10311363.124 5  -1166453.249 6
  19354858.532    -1495219.204 7  -1108141.589 7
  21196900.360   -15350915.382 6 -11888353.172 6
  20677036.993   -14161937.241 6 -10980135.124 8
  23236966.790    -3829010.519 4  -2904704.340 4
  19986417.110   -23583694.208 7 -18218638.476 8
  21887692.462   -13552755.175 6 -10426054.993 6
 95  2 14 20 36 59.9970000  0  7 28 18 31 29  2 19 27
  22400305.642   -10298808.073 5  -1156670.104 6
  19356072.149    -1488843.495 7  -1103173.512 7
  21187255.626   -15401616.367 6 -11927860.378 7
  20688006.681   -14104301.706 6 -10935224.349 7
  23218966.196    -3923613.012 4  -2978420.503 5
  19981561.165   -23609216.506 7 -18238525.967 8
  21873734.071   -13626098.433 6 -10483205.520 6
 95  2 14 20 37 29.9970000  0  7 28 18 31 29  2 19 27
  22402797.931   -10285709.542 5  -1146463.459 6
  19357384.681    -1481948.175 7  -1097800.546 7
  21177700.907   -15451818.925 6 -11966979.206 6
  20699051.985   -14046255.019 6 -10889993.208 7
  23201000.423    -4018013.960 4  -3051979.585 5
  19976730.259   -23634595.925 7 -18258302.119 8
  21859797.282   -13699332.375 6 -10540270.861 6
 95  2 14 20 37 59.9970000  0  7 28 18 31 29  2 19 27
  22405393.454   -10272073.130 5  -1135837.682 6
  19358790.212    -1474552.911 7  -1092038.008 7
  21168241.868   -15501528.172 6 -12005713.629 6
  20710177.368   -13987785.532 6 -10844432.606 7
  23183074.196    -4112214.887 4  -3125382.831 4
  19971928.095   -23659838.329 7 -18277971.514 8
  21845882.860   -13772468.495 6 -10597259.992 6
 95  2 14 20 38 29.9970000  0  7 28 18 31 29  2 19 27
  22408093.642   -10257894.748 5  -1124789.581 6
  19360296.126    -1466651.576 7  -1085881.133 7
  21158877.720   -15550732.150 6 -12044054.338 6
  20721383.728   -13928895.860 6 -10798544.593 7
  23165188.095    -4206218.507 4  -3198632.328 5
  19967151.884   -23684922.584 7 -18297517.662 8
  21831979.134   -13845515.873 6 -10654179.960 6
 95  2 14 20 38 59.9970000  0  7 28 18 31 29  2 19 27
  22410896.681   -10243169.266 5  -1113315.174 6
  19361894.149    -1458243.121 7  -1079329.094 7
  21149612.923   -15599418.477 6 -12081991.683 6
  20732667.064   -13869597.134 6 -10752337.839 7
  23147334.485    -4300023.496 4  -3271727.029 4
  19962414.267   -23709832.193 7 -18316927.725 8
  21818096.493   -13918477.683 6 -10711033.265 6
 95  2 14 20 39 29.9970000  0  7 28 18 31 29  2 19 27
  22413800.743   -10227899.076 5  -1101416.298 6
  19363589.048    -1449342.777 7  -1072393.758 7
  21140445.767   -15647585.842 6 -12119524.639 6
  20744027.509   -13809898.817 6 -10705819.721 7
  23129523.407    -4393638.546 5  -3344673.725 5
  19957708.642   -23734560.299 7 -18336196.362 8
  21804225.657   -13991368.843 6 -10767831.508 6
 95  2 14 20 39 59.9970000  0  7 28 18 31 29  2 19 27
  22416808.063   -10212081.454 5  -1089090.854 6
  19365380.673    -1439928.650 7  -1065058.076 7
  21131381.618   -15695226.281 6 -12156646.997 6
  20755461.540   -13749816.674 6 -10659002.514 7
  23111745.524    -4487053.999 5  -3417464.874 4
  19953042.759   -23759086.598 7 -18355307.743 8
  21790365.126   -14064207.862 5 -10824589.127 6
 95  2 14 20 40 29.9970000  0  7 28 18 31 29  2 19 27
  22419917.306   -10195728.616 5  -1076348.358 6
  19367266.915    -1430010.034 7  -1057329.282 7
  21122415.438   -15742346.885 6 -12193364.298 6
  20766961.290   -13689384.690 6 -10611912.703 7
  23094004.165    -4580285.356 5  -3490112.562 5
  19948409.806   -23783419.817 7 -18374268.674 8
  21776511.321   -14137009.796 6 -10881317.847 6
 95  2 14 20 40 59.9970000  0  7 28 18 31 29  2 19 27
  22423137.399   -10178827.257 5  -1063178.445 6
  19369252.470    -1419588.839 7  -1049208.874 7
  21113548.462   -15788936.734 6 -12229668.019 6
  20778530.751   -13628579.712 6 -10564532.251 7
  23076300.399    -4673309.982 5  -3562599.130 4
  19943815.470   -23807560.299 7 -18393079.418 8
  21762667.524   -14209752.298 6 -10938000.251 6
 95  2 14 20 41 29.9970000  0  7 28 18 31 29  2 19 27
  22426461.720   -10161374.634 5  -1049578.994 6
  19371331.774    -1408651.789 7  -1040686.496 7
  21104785.923   -15834995.264 6 -12265557.737 6
  20790176.610   -13567388.556 6 -10516850.884 7
  23058640.165    -4766124.270 5  -3634921.790 5
  19939258.157   -23831503.992 7 -18411736.818 8
  21748836.704   -14282440.004 6 -10994639.972 6
 95  2 14 20 41 59.9970000  0  7 28 18 31 29  2 19 27
  22429885.204   -10143376.637 5  -1035554.575 6
  19373512.470    -1397190.623 7  -1031755.719 7
  21096117.688   -15880534.483 6 -12301042.806 6
  20801893.134   -13505818.145 6 -10468873.990 7
  23041018.759    -4858723.545 5  -3707076.915 5
  19934740.384   -23855253.520 7 -18430242.928 8
  21735016.282   -14355066.116 6 -11051231.674 6
 95  2 14 20 42 29.9970000  0  7 28 18 31 29  2 19 27
  22433407.564   -10124839.710 5  -1021110.208 6
  19375790.704    -1385224.800 7  -1022431.703 7
  21087551.314   -15925555.798 6 -12336124.300 7
  20813684.079   -13443856.501 6 -10420592.239 7
  23023436.181    -4951115.648 5  -3779070.588 5
  19930253.767   -23878826.713 7 -18448611.636 9
  21721210.743   -14427618.240 6 -11107765.748 6
 95  2 14 20 42 59.9970000  0  7 28 18 31 29  2 19 27
  22437041.079   -10105765.800 5  -1006247.432 6
  19378162.353    -1372764.245 7  -1012722.183 7
  21079084.618   -15970049.340 6 -12370794.562 7
  20825550.087   -13381497.796 6 -10372001.091 7
  23005895.228    -5043306.209 5  -3850907.214 5
  19925799.673   -23902230.516 7 -18466848.362 9
  21707418.610   -14500092.135 6 -11164238.862 6
 95  2 14 20 43 29.9970000  0  7 28 18 31 29  2 19 27
  22440773.649   -10086156.074 5   -990967.119 6
  19380626.704    -1359805.407 7  -1002624.392 7
  21070719.173   -16014007.239 6 -12405047.446 7
  20837489.524   -13318758.318 6 -10323113.237 7
  22988387.743    -5135298.882 5  -3922589.634 5
  19921379.446   -23925473.159 7 -18484959.500 9
  21693642.313   -14572483.304 6 -11220647.516 6
 95  2 14 20 43 59.9970000  0  7 28 18 31 29  2 19 27
  22444604.587   -10066006.523 5   -975266.159 6
  19383188.392    -1346352.889 7   -992141.916 7
  21062460.126   -16057408.242 6 -12438866.386 7
  20849500.376   -13255637.876 6 -10273928.521 7
  22970921.556    -5227085.518 5  -3994111.502 5
  19916987.657   -23948552.377 7 -18502943.298 9
  21679885.165   -14644771.838 6 -11276976.207 6
 95  2 14 20 44 29.9970000  0  7 28 18 31 29  2 19 27
  22448545.485   -10045311.918 5   -959140.494 6
  19385841.314    -1332408.049 7   -981275.822 7
  21054307.290   -16100244.022 6 -12472244.890 6
  20861586.384   -13192126.214 6 -10224438.963 7
  22953493.642    -5318665.718 5  -4065472.534 5
  19912624.978   -23971476.408 7 -18520806.170 9
  21666147.563   -14716965.199 6 -11333230.725 6
 95  2 14 20 44 59.9970000  0  8 28 18 16 31 29  2 19 27
  22452585.235   -10024072.356 5   -942590.181 6
  19388590.048    -1317956.497 7   -970014.879 7
  23911269.759          -0.73313
  21046257.517   -16142537.965 6 -12505201.174 7
  20873745.384   -13128229.999 6 -10174649.751 7
  22936106.845    -5410034.282 5  -4136668.645 5
  19908293.743   -23994233.251 7 -18538538.776 9
  21652432.782   -14789063.389 6 -11389411.102 6
 95  2 14 20 45 29.9970000  0  8 28 18 16 31 29  2 19 27
  22456728.892   -10002277.159 5   -925606.897 6
  19391441.603    -1302975.384 7   -958341.299 7
  23898234.282      -68538.219 3        -0.18812
  21038313.884   -16184292.545 6 -12537737.194 6
  20885980.017   -13063938.281 6 -10124552.359 7
  22918766.493    -5501167.549 5  -4207681.408 4
  19903998.681   -24016801.542 7 -18556124.453 9
  21638729.189   -14861054.146 6 -11445507.750 6
 95  2 14 20 45 59.9970000  0  8 28 18 16 31 29  2 19 27
  22460985.212    -9979944.328 5   -908204.684 6
  19394390.759    -1287478.629 7   -946265.921 7
  23885269.446     -136653.652 3    -53077.066 3
  21030468.298   -16225526.753 6 -12569867.714 7
  20898286.642   -12999263.122 6 -10074156.191 7
  22901462.790    -5592086.383 5  -4278527.084 5
  19899740.204   -24039183.899 7 -18573565.252 9
  21625044.524   -14932974.336 6 -11501549.418 6
 95  2 14 20 46 29.9970000  0  8 28 18 16 31 29  2 19 27
  22465332.993    -9957071.546 5   -890381.731 6
  19397439.704    -1271460.506 7   -933784.281 8
  23872392.048     -204327.626 3   -105809.968 3
  21022720.290   -16266244.735 6 -12601595.981 7
  20910667.345   -12934203.091 6 -10023460.116 7
  22884204.142    -5682789.600 5  -4349204.747 5
  19895515.665   -24061374.389 7 -18590856.545 9
  21611368.634   -15004836.691 6 -11557546.020 6
 95  2 14 20 46 59.9970000  0  8 28 18 16 31 29  2 19 27
  22469790.618    -9933665.700 5   -872143.418 6
  19400585.939    -1254921.875 7   -920897.054 7
  23859597.813     -271549.335 3   -158190.470 2
  21015070.024   -16306439.077 6 -12632916.212 7
  20923118.048   -12868780.753 6  -9972481.732 7
  22866982.048    -5773281.803 5  -4419717.996 5
  19891331.048   -24083372.369 7 -18607997.819 9
  21597703.954   -15076644.472 6 -11613500.088 6
 95  2 14 20 47 29.9970000  0  8 28 18 16 31 29  2 19 27
  22474343.853    -9909715.745 5   -853481.117 6
  19403833.837    -1237853.459 7   -907597.007 8
  23846898.329     -338283.631 3   -210191.163 2
  21007528.681   -16346072.130 6 -12663799.072 7
  20935637.962   -12802991.427 6  -9921217.368 7
  22849805.853    -5863551.437 5  -4490057.803 5
  19887181.806   -24105176.806 7 -18624988.288 9
  21584050.892   -15148391.970 6 -11669407.188 6
 95  2 14 20 47 59.9970000  0  8 28 18 16 31 29  2 19 27
  22479005.564    -9885238.497 5   -834407.941 6
  19407181.845    -1220262.759 7   -893889.988 8
  23834289.813     -404561.189 3   -261835.968 2
  21000090.688   -16385155.576 6 -12694253.664 7
  20948223.228   -12736850.130 6  -9869678.753 7
  22832665.274    -5953622.654 5  -4560243.019 5
  19883064.478   -24126813.229 7 -18641847.833 9
  21570404.735   -15220098.506 6 -11725282.364 6
 95  2 14 20 48 29.9970000  0  8 28 18 16 31 29  2 19 27
  22483762.368    -9860227.170 5   -814918.607 6
  19410629.337    -1202140.242 7   -879768.564 8
  23821760.829     -470400.392 3   -313139.237 1
  20992759.087   -16423685.362 6 -12724276.836 7
  20960878.985   -12670348.656 6  -9817859.479 7
  22815564.399    -6043482.960 5  -4630263.880 5
  19878978.532   -24148289.038 7 -18658582.222 9
  21556772.384   -15291733.265 6 -11781101.602 6
 95  2 14 20 48 59.9970000  0  8 28 18 16 31 29  2 19 27
  22488624.532    -9834682.260 5   -795013.502 6
  19414178.657    -1183481.424 7   -865229.250 8
  23809313.837     -535803.477 3   -364102.632 1
  20985533.048   -16461659.600 6 -12753867.113 7
  20973601.907   -12603486.611 6  -9765759.244 7
  22798506.399    -6133123.534 5  -4700113.528 5
  19874922.485   -24169608.715 7 -18675194.944 9
  21543161.329   -15363270.161 6 -11836844.588 6
 95  2 14 20 49 29.9970000  0  8 28 18 16 31 29  2 19 27
  22493586.267    -9808607.118 5   -774695.234 6
  19417833.001    -1164292.823 7   -850277.116 8
  23796949.126     -600783.867 3   -414736.667 1
  20978412.118   -16499084.602 6 -12783029.419 7
  20986395.220   -12536252.365 6  -9713368.982 7
  22781490.446    -6222540.123 5  -4769788.674 5
  19870891.282   -24190774.175 7 -18691687.495 9
  21529565.493   -15434710.172 6 -11892512.085 6
 95  2 14 20 49 59.9970000  0  8 28 18 16 31 29  2 19 27
  22498650.470    -9782001.893 5   -753963.913 6
  19421583.595    -1144577.268 7   -834914.373 8
  23784661.806     -665349.772 3   -465047.727 2
  20971392.603   -16535962.510 6 -12811765.426 7
  20999263.118   -12468635.092 6  -9660680.252 7
  22764518.603    -6311729.116 5  -4839286.448 5
  19866896.196   -24211779.264 7 -18708055.082 9
  21515990.267   -15506061.393 6 -11948110.387 6
 95  2 14 20 50 29.9970000  0  8 28 18 16 31 29  2 19 27
  22503811.032    -9754879.834 5   -732829.882 6
  19425431.313    -1124362.280 7   -819162.453 8
  23772458.548     -729495.306 3   -515031.206 1
  20964477.485   -16572302.530 6 -12840082.294 7
  21012200.634   -12400655.505 6  -9607709.201 7
  22747586.704    -6400694.607 5  -4908610.087 5
  19862929.493   -24232619.614 7 -18724294.294 9
  21502425.126   -15577332.358 6 -12003646.152 6
 95  2 14 20 50 59.9970000  0  8 28 18 16 31 29  2 19 27
  22509071.376    -9727234.034 5   -711287.739 6
  19429372.259    -1103649.965 7   -803023.014 8
  23760331.845     -793190.857 3   -564664.054 2
  20957667.392   -16608101.476 6 -12867977.543 7
  21025203.962   -12332315.618 6  -9554457.408 7
  22730702.524    -6489428.747 5  -4977753.462 5
  19858999.056   -24253272.910 7 -18740387.745 9
  21488876.259   -15648534.604 6 -12059128.372 6
 95  2 14 20 51 29.9970000  0  8 28 18 16 31 29  2 19 27
  22514433.915    -9699050.254 5   -689326.392 6
  19433407.946    -1082442.036 7   -786497.375 8
  23748305.532     -856414.227 3   -613928.983 1
  20950960.931   -16643344.580 6 -12895439.676 7
  21038280.915   -12263598.659 6  -9500911.786 7
  22713863.993    -6577927.144 5  -5046713.140 5
  19855109.134   -24273717.164 7 -18756318.300 9
  21475338.993   -15719679.514 6 -12114565.914 6
 95  2 14 20 51 59.9970000  0  8 28 18 16 31 29  2 19 27
  22519901.196    -9670334.164 5   -666950.251 6
  19437535.438    -1060750.550 7   -769594.937 8
  23736363.103     -919164.638 3   -662825.401 1
  20944359.243   -16678034.802 6 -12922470.998 7
  21051426.267   -12194517.189 6  -9447082.137 7
  22697064.563    -6666207.057 5  -5115502.588 5
  19851256.579   -24293955.642 7 -18772088.516 9
  21461810.938   -15790759.278 6 -12169952.691 6
 95  2 14 20 52 29.9970000  0  8 28 18 16 31 29  2 19 27
  22525460.290    -9641096.902 5   -644167.986 6
  19441751.985    -1038591.677 7   -752328.302 8
  23724514.642     -981440.864 4   -711352.281 2
  20937859.353   -16712178.686 6 -12949076.589 7
  21064637.056   -12125087.032 6  -9392980.781 7
  22680299.978    -6754293.081 5  -5184140.965 5
  19847445.228   -24313996.842 7 -18787705.011 9
  21448299.759   -15861761.886 6 -12225279.349 6
 95  2 14 20 52 59.9970000  0  8 28 18 16 31 29  2 19 27
  22531128.267    -9611337.480 5   -620978.833 6
  19446059.798    -1015958.551 7   -734692.126 7
  23712749.524    -1043245.693 4   -759511.884 2
  20931471.759   -16745755.200 6 -12975240.086 7
  21077921.228   -12055296.167 6  -9338598.357 6
  22663577.032    -6842184.714 5  -5252627.878 5
  19843663.243   -24333859.212 7 -18803182.155 9
  21434803.946   -15932686.591 6 -12280545.294 6
 95  2 14 20 53 29.9970000  0  8 28 18 16 31 29  2 19 27
  22536888.376    -9581062.294 5   -597387.797 6
  19450459.009     -992839.382 7   -716677.209 8
  23701079.228    -1104596.657 4   -807317.793 2
  20925193.587   -16778753.146 6 -13000952.740 7
  21091268.618   -11985142.389 6  -9283933.137 7
  22646885.665    -6929884.574 5  -5320965.377 5
  19839916.509   -24353551.928 7 -18818527.100 9
  21421323.728   -16003518.945 6 -12335739.285 6
 95  2 14 20 53 59.9970000  0  8 28 18 16 31 29  2 19 27
  22542749.438    -9550255.229 5   -573382.315 6
  19454958.845     -969196.082 7   -698253.882 7
  23689487.392    -1165480.561 4   -854759.794 3
  20919025.618   -16811153.937 6 -13026200.084 7
  21104689.134   -11914614.408 6  -9228976.340 6
  22630240.720    -7017372.808 5  -5389137.967 5
  19836204.743   -24373058.291 7 -18833726.841 9
  21407869.251   -16074224.710 6 -12390834.630 6
 95  2 14 20 54 29.9970000  0  8 28 18 16 31 29  2 19 27
  22548714.290    -9518923.026 5   -548967.650 6
  19459558.501     -945021.924 7   -679416.900 7
  23677996.657    -1225900.148 4   -901840.013 2
  20912972.103   -16842962.736 6 -13050986.129 7
  21118178.462   -11843729.174 6  -9173741.156 6
  22613633.712    -7104636.583 5  -5457135.676 5
  19832528.595   -24392382.006 7 -18848784.260 9
  21394432.868   -16144828.049 6 -12445850.170 6
 95  2 14 20 54 59.9970000  0  8 28 18 16 31 29  2 19 27
  22554773.142    -9487067.694 5   -524145.337 5
  19464259.446     -920311.412 7   -660161.977 8
  23666583.564    -1285869.047 4   -948568.996 1
  20907031.610   -16874185.361 6 -13075315.412 7
  21131736.056   -11772492.146 6  -9118231.843 6
  22597073.118    -7191656.177 5  -5524943.124 5
  19828886.274   -24411520.925 7 -18863697.681 9
  21381016.673   -16215340.651 6 -12500795.004 6
 95  2 14 20 55 29.9970000  0  8 28 18 16 31 29  2 19 27
  22560933.774    -9454702.569 5   -498925.781 6
  19469064.368     -895068.314 7   -640492.058 8
  23655253.978    -1345402.169 3   -994958.437 2
  20901198.157   -16904852.559 6 -13099211.893 7
  21145355.603   -11700917.889 6  -9062459.771 6
  22580557.157    -7278446.471 5  -5592571.895 5
  19825278.978   -24430474.053 7 -18878466.347 9
  21367613.173   -16285775.474 6 -12555679.224 6
 95  2 14 20 55 59.9970000  0  8 28 18 16 31 29  2 19 27
  22567194.056    -9421811.447 5   -473296.356 5
  19473971.087     -869280.765 7   -620397.887 8
  23644014.595    -1404467.127 3  -1040983.068 1
  20895469.892   -16934948.581 6 -13122663.301 7
  21159042.649   -11628993.156 6  -9006414.589 6
  22564089.626    -7364985.665 5  -5660005.013 5
  19821710.603   -24449223.645 7 -18893076.399 9
  21354226.657   -16356129.406 6 -12610500.413 6
 95  2 14 20 56 29.9970000  0  8 28 18 16 31 29  2 19 27
  22573546.649    -9388403.853 5   -447264.487 5
  19478980.431     -842964.786 7   -599891.954 8
  23632863.134    -1463069.145 3  -1086646.958 1
  20889848.431   -16964475.884 6 -13145671.552 7
  21172794.267   -11556725.192 6  -8950101.955 6
  22547670.118    -7451272.387 5  -5727241.394 5
  19818179.181   -24467792.371 7 -18907545.531 9
  21340849.884   -16426412.752 6 -12665266.604 6
 95  2 14 20 56 59.9970000  0  8 28 18 16 31 29  2 19 27
  22580007.626    -9354469.444 5   -420822.131 6
  19484089.603     -816107.970 7   -578964.590 8
  23621801.282    -1521196.340 3  -1131940.857 1
  20884343.079   -16993420.297 6 -13168225.608 7
  21186615.970   -11484093.792 6  -8893506.126 6
  22531298.696    -7537305.805 5  -5794280.398 5
  19814677.345   -24486180.172 7 -18921873.675 9
  21327493.259   -16496607.271 6 -12719963.589 7
 95  2 14 20 57 29.9970000  0  8 28 18 16 31 29  2 19 27
  22586562.259    -9320017.369 5   -393976.386 5
  19489300.868     -788723.954 7   -557626.418 8
  23610830.259    -1578848.973 3  -1176864.975 1
  20878944.337   -17021783.887 6 -13190327.075 7
  21200505.470   -11411108.995 6  -8836634.924 6
  22514970.899    -7623103.086 5  -5861135.398 5
  19811212.048   -24504400.904 7 -18936071.647 9
  21314148.384   -16566727.955 6 -12774603.045 6
 95  2 14 20 57 59.9970000  0  8 28 18 16 31 29  2 19 27
  22593213.478    -9285056.267 5   -366733.994 5
  19494606.446     -760850.119 7   -535906.571 8
  23599947.524    -1636037.536 3  -1221427.456 2
  20873660.126   -17049568.374 6 -13211977.305 7
  21214455.110   -11337798.409 6  -8779509.866 6
  22498689.462    -7708672.320 5  -5927812.689 5
  19807771.063   -24522471.695 7 -18950152.796 9
  21300817.439   -16636784.278 6 -12829192.345 6
 95  2 14 20 58 29.9970000  0  8 28 18 16 31 29  2 19 27
  22599969.884    -9249575.960 5   -339087.029 5
  19500001.157     -732487.872 7   -513806.140 8
  23589153.782    -1692754.408 3  -1265622.408 2
  20868484.189   -17076761.419 6 -13233166.661 7
  21228467.899   -11264159.724 6  -8722129.143 6
  22482450.446    -7794008.825 5  -5994308.632 5
  19804364.282   -24540377.875 7 -18964105.657 9
  21287502.860   -16706757.539 6 -12883716.930 7
 95  2 14 20 58 59.9970000  0  8 28 18 16 31 29  2 19 27
  22606812.931    -9213587.450 5   -311044.046 5
  19505489.524     -703652.765 7   -491337.239 8
  23578445.806    -1749015.568 3  -1309462.279 1
  20863419.126   -17103378.090 6 -13253906.902 7
  21242540.720   -11190205.825 6  -8664502.784 6
  22466249.884    -7879130.288 5  -6060636.984 5
  19800990.063   -24558113.728 7 -18977925.799 9
  21274201.306   -16776661.129 6 -12938187.225 7
 95  2 14 20 59 29.9970000  0  8 28 18 16 31 29  2 19 27
  22613759.587    -9177094.405 5   -282607.909 5
  19511064.970     -674355.079 7   -468507.895 8
  23567832.142    -1804813.362 3  -1352941.050 1
  20858457.587   -17129431.236 6 -13274208.030 7
  21256674.517   -11115933.192 6  -8606628.075 6
  22450095.095    -7964035.905 5  -6126797.145 5
  19797649.368   -24575671.382 7 -18991607.089 9
  21260912.915   -16846486.597 6 -12992596.648 7
 95  2 14 20 59 59.9970000  0  8 28 18 16 31 29  2 19 27
  22620803.806    -9140092.693 5   -253775.403 5
  19516732.009     -644573.160 7   -445301.228 8
  23557301.743    -1860131.760 3  -1396046.275 1
  20853609.274   -17154919.294 6 -13294068.834 7
  21270871.228   -11041330.611 6  -8548496.265 6
  22433981.509    -8048711.929 5  -6192778.391 5
  19794344.298   -24593045.595 7 -19005145.431 9
  21247645.142   -16916212.471 6 -13046928.472 7
 95  2 14 21  0 29.9970000  0  8 28 18 16 31 29  2 19 27
  22627940.931    -9102580.540 5   -224545.153 6
  19522497.993     -614271.117 7   -421689.261 8
  23546866.228    -1914957.256 3  -1438767.454 1
  20848868.392   -17179837.753 6 -13313485.799 7
  21285132.548   -10966382.779 6  -8490095.423 6
  22417913.751    -8133141.646 5  -6258567.696 5
  19791074.532   -24610228.987 7 -19018535.084 9
  21234395.899   -16985836.763 6 -13101181.143 7
 95  2 14 21  0 59.9970000  0  8 28 18 16 31 29  2 19 27
  22635172.704    -9064565.193 5   -194922.805 6
  19528367.103     -583431.538 7   -397658.441 8
  23536530.790    -1969292.323 3  -1481106.424 1
  20844230.946   -17204190.378 6 -13332461.858 7
  21299462.290   -10891079.286 6  -8431417.451 6
  22401900.806    -8217323.111 5  -6324163.539 5
  19787839.087   -24627232.158 7 -19031784.313 9
  21221162.313   -17055377.387 6 -13155368.611 7
 95  2 14 21  1 29.9970000  0  8 28 18 16 31 29  2 19 27
  22642504.806    -9026041.188 5   -164904.092 5
  19534338.493     -552047.722 7   -373203.535 8
  23526288.376    -2023121.551 3  -1523051.246 1
  20839713.188   -17227957.926 6 -13350982.008 7
  21313860.876   -10815416.316 6  -8372459.365 6
  22385924.462    -8301240.087 5  -6389553.281 5
  19784636.556   -24644049.204 7 -19044888.494 9
  21207945.696   -17124831.944 6 -13209489.017 7
 95  2 14 21  1 59.9970000  0  8 28 18 16 31 29  2 19 27
  22649929.087    -8987020.032 5   -134497.980 5
  19540412.009     -520134.714 7   -348336.274 8
  23516134.954    -2076465.556 3  -1564617.949 3
  20835302.446   -17251124.481 6 -13369033.855 7
  21328323.134   -10739419.745 6  -8313241.330 6
  22370005.634    -8384906.111 5  -6454747.489 6
  19781470.579   -24660688.492 7 -19057854.155 9
  21194740.376   -17194223.980 6 -13263560.701 7
 95  2 14 21  2 29.9970000  0  8 28 18 16 31 29  2 19 27
  22657452.649    -8947496.020 5   -103700.041 5
  19546583.251     -487708.844 7   -323069.383 8
  23506076.845    -2129326.789 3  -1605808.472 2
  20831010.837   -17273678.431 6 -13386608.341 7
  21342851.118   -10663080.530 6  -8253756.304 6
  22354132.579    -8468326.035 5  -6519749.919 5
  19778340.735   -24677130.595 7 -19070666.166 9
  21181547.603   -17263557.233 6 -13317586.579 7
 95  2 14 21  2 59.9970000  0  8 28 18 16 31 29  2 19 27
  22665070.118    -8907464.171 5    -72506.386 6
  19552845.954     -454793.657 7   -297421.204 8
  23496110.837    -2181698.134 3  -1646617.264 2
  20826835.204   -17295621.455 6 -13403706.776 7
  21357442.360   -10586390.999 6  -8193998.306 6
  22338302.259    -8551512.170 5  -6584570.183 5
  19775251.149   -24693371.128 7 -19083321.112 9
  21168366.587   -17332819.494 6 -13371557.124 7
 95  2 14 21  3 29.9970000  0  8 28 18 16 31 29  2 19 27
  22672780.251    -8866930.538 5    -40921.743 6
  19559199.642     -421411.043 7   -271408.795 8
  23486237.962    -2233586.041 3  -1687049.348 2
  20822771.610   -17316972.619 6 -13420344.026 7
  21372099.978   -10509368.118 6  -8133980.556 6
  22322512.806    -8634478.532 5  -6649219.201 5
  19772198.360   -24709413.352 7 -19095821.519 9
  21155203.892   -17401992.830 6 -13425458.389 7
 95  2 14 21  3 59.9970000  0  8 28 18 16 31 29  2 19 27
  22680589.657    -8825907.776 5     -8955.980 5
  19565640.728     -387560.210 7   -245031.537 8
  23476452.478    -2284997.020 3  -1727109.815 2
  20818815.923   -17337754.189 6 -13436537.432 7
  21386819.493   -10432022.772 6  -8073711.526 6
  22306761.610    -8717250.059 5  -6713716.409 5
  19769183.181   -24725273.461 7 -19108180.013 9
  21142055.985   -17471081.383 6 -13479293.590 7
 95  2 14 21  4 29.9970000  0  8 28 18 16 31 29  2 19 27
  22688488.384    -8784394.632 5     23391.896 6
  19572172.884     -353230.418 7   -218281.066 8
  23466763.360    -2335919.459 3  -1766789.563 2
  20814966.087   -17357984.259 6 -13452301.094 7
  21401600.540   -10354345.327 6  -8013183.731 6
  22291050.149    -8799816.759 6  -6778054.029 5
  19766198.579   -24740955.372 7 -19120399.659 9
  21128929.165   -17540066.682 6 -13533048.329 7
 95  2 14 21  4 59.9970000  0  8 28 18 16 31 29  2 19 27
  22696479.579    -8742390.654 5     56122.247 6
  19578800.415     -318404.370 7   -191143.905 8
  23457162.204    -2386350.064 3  -1806086.102 2
  20811226.470   -17377651.707 6 -13467626.354 7
  21416440.837   -10276345.955 6  -7952405.079 6
  22275378.962    -8882166.623 5  -6842222.678 6
  19763244.001   -24756466.144 7 -19132485.941 9
  21115824.501   -17608936.605 6 -13586713.168 7
 95  2 14 21  5 29.9970000  0  8 28 18 16 31 29  2 19 27
  22704570.978    -8699882.282 5     89245.627 6
  19585527.579     -283051.371 7   -163596.132 8
  23447663.462    -2436280.377 3  -1844992.776 2
  20807596.688   -17396716.729 6 -13482482.188 7
  21431347.392   -10198023.484 6  -7891374.663 6
  22259754.009    -8964271.405 5  -6906200.378 5
  19760331.696   -24771778.018 7 -19144417.247 9
  21102741.306   -17677682.130 6 -13640281.073 7
 95  2 14 21  5 59.9970000  0  8 28 18 16 31 29  2 19 27
  22712751.001    -8656885.485 5    122749.599 5
  19592351.345     -247188.994 7   -135651.442 8
  23438257.087    -2485732.196 3  -1883526.592 3
  20804084.728   -17415175.939 6 -13496865.962 7
  21446310.774   -10119395.241 6  -7830105.981 6
  22244177.618    -9046134.551 5  -6969989.799 5
  19757453.446   -24786900.969 7 -19156201.345 9
  21089677.985   -17746331.500 6 -13693774.057 7
 95  2 14 21  6 29.9970000  0  8 28 18 16 31 29  2 19 27
  22721028.462    -8613394.686 5    156638.491 5
  19599272.157     -210826.501 7   -107317.052 8
  23428934.806    -2534704.527 3  -1921686.775 2
  20800688.345   -17433019.615 6 -13510770.088 7
  21461330.751   -10040461.354 6  -7768599.140 6
  22228649.821    -9127732.431 5  -7033572.515 5
  19754613.954   -24801824.609 7 -19167830.131 9
  21076633.782   -17814880.561 6 -13747188.875 7
 95  2 14 21  6 59.9970000  0  8 28 18 16 31 29  2 19 27
  22729400.220    -8569413.436 5    190909.572 5
  19606285.493     -173970.535 7    -78598.145 8
  23419710.665    -2583197.857 3  -1959473.720 2
  20797410.071   -17450244.105 6 -13524191.732 7
  21476408.282    -9961229.648 6  -7706860.227 6
  22213168.970    -9209072.643 5  -7096954.453 5
  19751810.376   -24816552.040 7 -19179306.033 9
  21063606.681   -17883344.391 6 -13800537.277 7
 95  2 14 21  7 29.9970000  0  8 28 18 16 31 29  2 19 27
  22737856.993    -8524955.121 5    225552.387 5
  19613389.118     -136643.111 7    -49511.866 8
  23410569.306    -2631219.890 3  -1996893.419 4
  20794244.501   -17466876.463 6 -13537151.982 7
  21491542.110    -9881702.686 6  -7644891.246 6
  22197738.337    -9290163.993 5  -7160142.488 5
  19749043.868   -24831096.014 7 -19190638.990 9
  21050592.173   -17951732.098 6 -13853826.371 7
 95  2 14 21  7 59.9970000  0  8 28 18 16 31 29  2 19 27
  22746415.220    -8479997.413 5    260584.357 5
  19620585.923      -98817.885 7    -20037.694 8
  23401525.876    -2678731.333 3  -2033915.239 2
  20791196.720   -17482910.699 6 -13549646.162 7
  21506738.610    -9801842.254 6  -7582662.413 6
  22182362.040    -9370980.047 5  -7223115.987 6
  19746311.618   -24845445.199 7 -19201820.172 9
  21037598.892   -18020008.754 6 -13907028.927 7
 95  2 14 21  8 29.9970000  0  8 28 18 16 31 29  2 19 27
  22755061.642    -8434555.857 5    295993.357 5
  19627877.923      -60495.240 7      9824.077 8
  23392581.923    -2725735.952 3  -2070542.160 3
  20788252.196   -17498369.801 6 -13561692.196 7
  21521997.853    -9721659.601 6  -7520182.506 6
  22167031.712    -9451537.512 5  -7285887.999 6
  19743616.618   -24859619.626 7 -19212865.170 9
  21024623.149   -18088191.725 6 -13960158.472 7
 95  2 14 21  8 59.9970000  0  8 28 18 16 31 29  2 19 27
  22763799.509    -8388621.904 5    331786.044 5
  19635269.431      -21657.809 7     40086.979 8
  23383734.751    -2772232.761 3  -2106773.349 2
  20785425.368   -17513231.028 6 -13573272.355 7
  21537319.298    -9641136.711 6  -7457437.482 6
  22151752.563    -9531833.452 6  -7348456.229 6
  19740952.821   -24873606.435 7 -19223763.977 9
  21011667.384   -18156276.273 6 -14013211.327 7
 95  2 14 21  9 29.9970000  0  8 28 18 16 31 29  2 19 27
  22772635.243    -8342206.979 5    367953.504 5
  19642757.329       17695.076 7     70751.533 8
  23374980.188    -2818232.068 3  -2142616.909 2
  20782708.524   -17527495.780 6 -13584387.713 7
  21552705.493    -9560290.645 6  -7394440.623 6
  22136520.353    -9611873.828 5  -7410825.303 6
  19738330.329   -24887402.675 7 -19234514.293 9
  20998728.712   -18224272.665 6 -14066195.486 7
 95  2 14 21  9 59.9970000  0  8 28 18 16 31 29  2 19 27
  22781554.024    -8295322.469 5    404486.880 5
  19650345.485       57565.523 7    101819.381 8
  23366319.884    -2863743.196 3  -2178080.069 2
  20780107.571   -17541160.812 6
  21568146.298    -9479151.436 6  -7331215.355 6
  22121333.360    -9691681.236 6  -7473012.836 6
  19735739.157   -24901017.834 7
  20985801.056   -18292207.742 6 -14119131.864 7
 95  2 14 21 10 29.9970000  0  8 28 18 16 31 29  2 19 27
  22790571.478    -8247957.218 5    441394.850 5
  19658029.571       97951.259 7    133288.756 8
  23357757.993    -2908767.432 4  -2213163.848 2
  20777628.376   -17554202.323 6 -13605197.992 7
  21583640.329    -9397720.056 6  -7267762.418 6
  22106190.970    -9771253.625 5  -7535017.233 6
  19733183.431   -24914437.902 7 -19255580.708 9
  20972886.126   -18360074.779 6 -14172015.222 7
 95  2 14 21 10 59.9970000  0  8 28 18 16 31 29  2 19 27
  22799674.493    -8200109.041 5    478679.114 5
  19665811.267      138843.103 7    165152.501 8
  23349280.251    -2953295.564 4  -2247861.042 2
  20775269.384   -17566598.240 6 -13614857.142 7
  21599192.571    -9315997.552 6  -7204082.630 6
  22091093.696    -9850589.448 6  -7596837.286 6
  19730668.110   -24927657.807 7 -19265881.933 9
  20959987.806   -18427857.083 6 -14224832.554 7
 95  2 14 21 11 29.9970000  0  8 28 18 16 31 29  2 19 27
  22808872.884    -8151806.224 5    516317.652 5
  19673683.149      180210.096 7    197386.491 8
  23340897.017    -2997344.231 3  -2282184.612 2
  20773026.860   -17578394.135 6 -13624048.747 7
  21614791.681    -9234021.589 6  -7140205.333 6
  22076039.712    -9929712.562 6  -7658491.586 6
  19728183.360   -24940704.686 7 -19276048.335 9
  20947101.767   -18495569.379 6 -14277595.324 7
 95  2 14 21 11 59.9970000  0  8 28 18 16 31 29  2 19 27
  22818151.353    -8103016.443 5    554335.637 5
  19681648.438      222066.608 7    230001.926 8
  23332611.556    -3040881.023 4  -2316109.352 2
  20770900.118   -17589562.289 6 -13632751.215 7
  21630451.056    -9151737.183 6  -7076087.701 6
  22061029.353   -10008576.024 6  -7719943.545 6
  19725741.071   -24953550.398 7 -19286057.983 9
  20934237.470   -18563164.136 6 -14330266.515 7
 95  2 14 21 12 29.9970000  0  8 28 18 16 31 29  2 19 27
  22827529.056    -8053740.921 5    592732.102 5
  19689707.407      264412.022 7    262998.325 8
  23324424.923    -3083904.557 3  -2349634.125 3
  20768891.720   -17600100.697 6 -13640962.970 7
  21646168.704    -9069137.396 6  -7011724.322 6
  22046072.048   -10087166.757 6  -7781182.983 6
  19723338.524   -24966181.153 7 -19295900.125 9
  20921402.720   -18630627.764 6 -14382835.524 7
 95  2 14 21 12 59.9960000  0  8 28 18 16 31 29  2 19 27
  22836987.660    -8004004.348 5    631487.855 5
  19697856.637      307238.900 7    296369.891 8
  23316331.879    -3126427.408 3  -2382768.777 2
  20767001.301   -17610050.523 6 -13648716.077 7
  21661942.340    -8986247.361 6  -6947134.778 6
  22031168.887   -10165496.660 6  -7842219.176 6
  19720971.473   -24978611.545 7 -19305586.136 9
  20908584.684   -18697979.914 6 -14435317.673 7
 95  2 14 21 13 29.9960000  0  8 28 18 16 31 29  2 19 27
  22846549.715    -7953795.709 5    670611.437 5
  19706098.215      350555.602 7    330123.137 8
  23308339.105    -3168445.820 3  -2415510.359 2
  20765220.168   -17619417.868 6 -13656015.296 7
  21677774.129    -8903048.651 6  -6882304.702 6
  22016314.207   -10243556.536 6  -7903044.956 6
  19718645.824   -24990831.115 7 -19315107.867 9
  20895788.707   -18765220.411 6 -14487712.829 7
 95  2 14 21 13 59.9960000  0  8 28 18 16 31 29  2 19 27
  22856191.270    -7903119.614 5    710099.261 5
  19714433.566      394353.057 7    364251.002 8
  23300440.035    -3209950.505 3  -2447851.673 2
  20763550.707   -17628189.441 6 -13662850.281 7
  21693662.676    -8819549.058 6  -6817240.178 6
  22001508.840   -10321353.784 6  -7963666.090 6
  19716360.074   -25002843.650 7 -19324468.283 9
  20883014.645   -18832352.214 6 -14540023.290 7
 95  2 14 21 14 29.9960000  0  8 28 18 16 31 29  2 19 27
  22865923.176    -7851985.099 5    749944.292 5
  19722858.238      438624.204 7    398747.976 8
  23292638.309    -3250939.891 4  -2479791.416 1
  20761990.895   -17636368.848 6 -13669223.830 7
  21709605.871    -8735769.425 6  -6751957.441 6
  21986750.176   -10398917.426 6  -8024105.192 6
  19714113.566   -25014660.423 7 -19333676.151 9
  20870255.879   -18899399.773 6 -14592268.109 7
 95  2 14 21 14 59.9960000  0  8 28 18 16 31 29  2 19 27
  22875739.699    -7800376.985 5    790158.382 5
  19731372.293      483366.129 7    433611.789 8
  23284943.598    -3291392.711 4  -2511313.084 2
  20760552.356   -17643946.994 6 -13675128.861 7
  21725607.480    -8651686.572 6  -6686438.423 6
  21972038.199   -10476232.428 6  -8084350.536 6
  19711899.879   -25026281.107 7 -19342731.222 9
  20857516.184   -18966344.984 6 -14644433.180 7
 95  2 14 21 15 29.9960000  0  8 28 18 16 31 29  2 19 27
  22885650.301    -7748309.505 5    830730.404 5
  19739970.012      528549.370 7    468819.482 8
  23277345.543    -3331317.905 4  -2542423.598 1
  20759225.777   -17650919.038 6 -13680561.605 7
  21741664.184    -8567308.830 6  -6620689.628 6
  21957370.535   -10553306.317 6  -8144408.007 6
  19709722.059   -25037723.575 7 -19351647.421 9
  20844795.488   -19033194.868 6 -14696523.976 7
 95  2 14 21 15 59.9960000  0  8 28 18 16 31 29  2 19 27
  22895645.457    -7695765.294 5    871673.915 5
  19748658.645      574210.515 7    504399.572 8
  23269851.731    -3370696.426 4  -2573108.149 2
  20758017.895   -17657261.368 6 -13685503.660 7
  21757778.918    -8482622.021 6  -6554700.009 6
  21942752.973   -10630130.899 6  -8204271.214 6
  19707585.082   -25048958.350 7 -19360401.777 9
  20832096.145   -19099932.998 6 -14748527.698 7
 95  2 14 21 16 29.9960000  0  8 28 18 16 31 29  2 19 27
  22905735.832    -7642763.412 5    912974.066 5
  19757437.231      620342.450 7    540346.510 8
  23262452.035    -3409561.006 3  -2603392.200 2
  20756924.457   -17662995.214 6 -13689971.564 7
  21773949.465    -8397639.308 6  -6488479.809 6
  21928180.941   -10706705.790 6  -8263939.873 6
  19705484.871   -25059995.719 7 -19369002.310 9
  20819414.848   -19166571.378 6 -14800453.689 7
 95  2 14 21 16 59.9960000  0  8 28 18 16 31 29  2 19 27
  22915906.074    -7589309.258 5    954626.625 5
  19766308.863      666956.399 7    576669.042 8
  23255147.395    -3447936.692 3  -2633295.311 3
  20755948.824   -17668122.360 6 -13693966.718 7
  21790175.668    -8312374.638 6  -6422039.911 6
  21913660.520   -10783015.473 6  -8323401.878 6
  19703423.254   -25070835.676 7 -19377449.017 9
  20806753.879   -19233099.946 6 -14852294.115 7
 95  2 14 21 17 29.9960000  0  8 28 18 16 31 29  2 19 27
  22926167.395    -7535393.338 5    996639.006 5
  19775276.191      714084.944 7    613392.552 8
  23247943.668    -3485818.474 4  -2662813.570 2
  20755094.309   -17672621.425 6 -13697472.460 7
  21806454.238    -8226832.248 6  -6355383.605 6
  21899189.965   -10859051.270 6  -8382650.466 6
  19701401.504   -25081455.101 7 -19385723.888 9
  20794115.387   -19299516.370 6 -14904047.158 7
 95  2 14 21 17 59.9960000  0  8 28 18 16 31 29  2 19 27
  22936513.684    -7481027.395 5   1039002.055 5
  19784343.645      761733.091 7    650520.959 8
  23240825.113    -3523223.668 4  -2691960.451 3
  20754352.277   -17676505.529 6 -13700499.019 7
  21822780.074    -8141039.044 6  -6288531.853 5
  21884767.793   -10934828.712 6  -8441697.751 6
  19699421.730   -25091861.684 7 -19393832.907 9
  20781496.863   -19365831.635 6 -14955721.373 7
 95  2 14 21 18 29.9960000  0  8 28 18 16 31 29  2 19 27
  22946942.637    -7426205.640 5   1081720.270 5
  19793510.191      809894.649 7    688049.411 8
  23233801.840    -3560142.513 4  -2720728.379 3
  20753736.426   -17679763.832 6 -13703037.944 7
  21839154.973    -8054987.946 5  -6221479.148 6
  21870401.871   -11010328.675 6  -8500528.812 6
  19697477.191   -25102071.754 7 -19401788.799 9
  20768900.809   -19432030.173 6 -15007304.625 7
 95  2 14 21 18 59.9960000  0  8 28 18 16 31 29  2 19 27
  22957462.637    -7370932.910 5   1124789.879 5
  19802770.598      858565.672 7    725974.855 8
  23226868.621    -3596563.309 4  -2749108.223 4
  20753233.574   -17682406.023 6 -13705096.781 7
  21855577.871    -7968684.668 5  -6154229.948 5
  21856081.824   -11085574.658 6  -8559161.976 6
  19695569.059   -25112092.881 7 -19409597.463 9
  20756323.121   -19498118.893 6 -15058802.308 7
 95  2 14 21 19 29.9960000  0  8 28 18 16 31 29  2 19 27
  22968068.043    -7315207.685 5   1168212.086 5
  19812125.988      907732.867 7    764286.926 8
  23220041.270    -3632455.093 4  -2777075.843 3
  20752845.301   -17684441.996 6 -13706683.243 7
  21872051.488    -7882116.997 6  -6086774.716 5
  21841808.855   -11160579.374 6  -8617607.135 6
  19693698.762   -25121923.446 7 -19417257.638 9
  20743769.254   -19564095.007 6 -15110212.242 7
 95  2 14 21 19 59.9960000  0  8 28 18 16 31 29  2 19 27
  22978755.863    -7259039.722 5   1211979.302 5
  19821570.848      957362.787 7    802959.565 8
  23213308.027    -3667822.484 4  -2804634.833 3
  20752571.527   -17685891.569 6 -13707812.767 7
  21888578.457    -7795277.102 6  -6019107.385 5
  21827584.043   -11235343.686 6  -8675864.967 6
  19691863.371   -25131575.597 7 -19424778.788 9
  20731233.480   -19629959.503 6 -15161535.198 7
 95  2 14 21 20 29.9960000  0  8 28 18 16 31 29  2 19 27
  22989527.230    -7202416.932 5   1256100.911 5
  19831103.035     1007454.508 7    841992.041 8
  23206681.941    -3702653.657 4  -2831775.989 3
  20752406.449   -17686742.033 6 -13708475.451 7
  21905161.348    -7708130.120 5  -5951200.744 5
  21813404.668   -11309848.712 6  -8733920.759 6
  19690062.934   -25141029.956 7 -19432145.817 9
  20718724.863   -19695703.432 6 -15212764.203 7
 95  2 14 21 20 59.9960000  0  8 28 18 16 31 29  2 19 27
  23000389.285    -7145345.384 5   1300572.200 5
  19840721.590     1057998.740 7    881377.132 8
  23200151.856    -3736952.465 4  -2858502.345 3
  20752356.785   -17686997.599 6
  21921801.340    -7620684.402 5  -5883061.336 5
  21799274.293   -11384095.661 6  -8791775.453 6
  19688307.816   -25150261.615 7 -19439339.315 9
  20706233.449   -19761339.610 6 -15263909.246 7
 95  2 14 21 21 29.9960000  0  8 28 18 16 31 29  2 19 27
  23011337.113    -7087836.502 5   1345384.266 5
  19850422.262     1108975.448 7    921099.208 8
  23193726.348    -3770733.744 4  -2884825.405 1
  20752424.965   -17686655.648 6
  21938498.496    -7532942.113 5  -5814690.836 5
  21785199.551   -11458076.887 6  -8849423.087 6
  19686590.684   -25159282.235 7 -19446368.361 9
  20693762.801   -19826871.979 6 -15314973.399 7
 95  2 14 21 21 59.9960000  0  8 28 18 16 31 29  2 19 27
  23022364.082    -7029890.244 5   1390537.120 5
  19860207.465     1160399.506 7    961169.870 8
  23187392.816    -3804010.433 4  -2910755.272 2
  20752609.309   -17685692.366 6 -13707657.477 7
  21955248.488    -7444912.500 5  -5746096.454 5
  21771173.809   -11531770.867 6  -8906846.896 6
  19684917.660   -25168078.811 7 -19453222.822 9
  20681313.645   -19892296.720 6 -15365953.685 7
 95  2 14 21 22 29.9960000  0  8 28 18 16 31 29  2 19 27
  23033467.738    -6971507.129 5   1436030.399 5
  19870082.965     1212292.636 7   1001606.042 8
  23181155.957    -3836780.215 4  -2936290.142 3
  20752909.606   -17684093.844 6 -13706411.856 7
  21972052.957    -7356612.250 5  -5677291.177 5
  21757203.496   -11605182.301 6  -8964050.541 6
  19683286.598   -25176651.897 7 -19459903.150 9
  20668884.582   -19957609.982 6 -15416847.110 7
 95  2 14 21 22 59.9960000  0  8 28 18 16 31 29  2 19 27
  23044660.480    -6912687.931 5   1481863.480 5
  19880049.496     1264668.469 7   1042418.347 9
  23175024.238    -3869031.111 4  -2961420.679 2
  20753334.184   -17681866.845 6 -13704676.505 7
  21988903.270    -7268064.695 5  -5608293.196 5
  21743288.520   -11678311.885 6  -9021034.570 6
  19681696.348   -25185010.120 7 -19466416.044 9
  20656479.965   -20022799.555 6 -15467644.148 7
 95  2 14 21 23 29.9960000  0  8 28 18 16 31 29  2 19 27
  23055937.418    -6853438.927 5   1528031.489 5
  19890109.473     1317530.802 7   1083609.744 8
  23168982.199    -3900770.154 4  -2986152.377 4
  20753878.238   -17679010.227 6 -13702450.546 7
  22005795.652    -7179290.123 5  -5539118.332 5
  21729425.363   -11751165.351 6  -9077803.442 6
  19680141.449   -25193176.579 7 -19472779.507 9
  20644099.356   -20087855.724 7 -15518337.244 7
 95  2 14 21 23 59.9960000  0  8 28 18 16 31 29  2 19 27
  23067295.465    -6793760.011 5   1574534.497 5
  19900260.559     1370882.988 7   1125182.845 8
  23163037.965    -3931989.290 4  -3010478.943 4
  20754542.879   -17675524.779 6 -13699734.586 7
  22022728.902    -7090306.129 5  -5469780.273 5
  21715610.887   -11823754.735 6  -9134366.538 6
  19678623.160   -25201147.524 7 -19478990.626 9
  20631745.660   -20152780.211 7 -15568927.722 7
 95  2 14 21 24 29.9960000  0  8 28 18 16 31 29  2 19 27
  23078733.238    -6733646.163 5   1621376.408 5
  19910506.191     1424717.829 7   1167132.043 8
  23157203.965    -3962675.225 4  -3034390.041 4
  20755323.231   -17671422.435 6 -13696537.925 7
  22039705.231    -7001095.413 5  -5400265.550 5
  21701845.066   -11896092.277 6  -9190733.392 6
  19677142.848   -25208925.198 7 -19485051.150 9
  20619417.949   -20217561.197 7 -15619406.384 8
 95  2 14 21 24 59.9960000  0  8 28 18 16 31 29  2 19 27
  23090257.199    -6673101.811 5   1668553.795 5
  19920838.762     1479018.807 7   1209444.461 8
  23151463.965    -3992825.115 4  -3057883.463 4
  20756219.168   -17666706.840 6 -13692863.408 7
  22056727.785    -6911644.620 5  -5330563.756 5
  21688127.293   -11968180.555 6  -9246906.031 6
  19675702.418   -25216499.635 7 -19490953.301 9
  20607114.309   -20282211.876 7 -15669783.514 8
 95  2 14 21 25 29.9960000  0  8 28 18 16 31 29  2 19 27
  23101858.723    -6612128.801 5   1716065.201 5
  19931257.785     1533774.490 7   1252111.189 8
  23145826.793    -4022437.816 5  -3080958.264 4
  20757236.777   -17661367.619 6 -13688702.962 7
  22073801.293    -6821931.469 5  -5260657.525 5
  21674458.520   -12040020.218 6  -9302884.928 6
  19674302.207   -25223858.923 7 -19496687.806 9
  20594833.902   -20346748.826 7 -15720072.024 8
 95  2 14 21 25 59.9960000  0  8 28 18 16 31 29  2 19 27
  23113541.512    -6550737.845 5   1763902.293 5
  19941762.199     1588969.052 7   1295119.907 9
  23140292.590    -4051523.421 4  -3103622.363 4
  20758363.551   -17655428.995 6 -13684075.455 7
  22090922.707    -6731933.156 5  -5190529.088 5
  21660832.231   -12111623.155 6  -9358679.373 6
  19672945.473   -25230997.532 7 -19502250.361 9
  20582571.238   -20411189.330 7 -15770285.378 8
 95  2 14 21 26 29.9960000  0  8 28 18 16 31 29  2 19 27
  23125300.582    -6488937.630 5   1812058.297 5
  19952347.387     1644596.850 7   1338466.207 8
  23134857.582    -4080098.297 4  -3125888.491 3
  20759606.160   -17648901.191 6 -13678988.843 7
  22108107.387    -6641648.140 5  -5120177.243 5
  21647253.137   -12182980.054 6  -9414282.104 6
  19671627.488   -25237924.267 7 -19507647.819 9
  20570325.582   -20475544.442 7 -15820432.192 8
 95  2 14 21 26 59.9960000  0  8 28 18 16 31 29  2 19 27
  23137142.106    -6426722.202 5   1860537.842 5
  19963019.270     1700673.484 7   1382162.251 8
  23129514.340    -4108161.323 4  -3147755.791 3
  20760965.840   -17641759.833 6 -13673424.143 7
  22125341.574    -6551081.843 5  -5049606.223 5
  21633725.809   -12254069.981 6  -9469676.808 6
  19670351.598   -25244625.261 7 -19512869.376 9
  20558096.738   -20539805.357 7 -15870505.615 8
 95  2 14 21 27 29.9960000  0  8 28 18 16 31 29  2 19 27
  23149058.902    -6364098.017 5   1909335.876 5
  19973774.355     1757194.981 7   1426204.942 8
  23124271.473    -4135727.314 4  -3169235.775 3
  20762438.762   -17634018.706 6 -13667392.080 7
  22142625.285    -6460254.536 5  -4978831.815 5
  21620248.629   -12324893.493 6  -9524863.916 6
  19669115.340   -25251127.318 7 -19517935.911 9
  20545889.848   -20603947.338 7 -15920486.364 8
 95  2 14 21 27 59.9960000  0  8 28 18 16 31 29  2 19 27
  23161053.793    -6301052.791 4   1958462.003 5
  19984617.434     1814176.045 7   1470605.735 8
  23119118.699    -4162792.587 4  -3190325.594 3
  20764030.652   -17625660.814 6 -13660879.430 7
  22159955.918    -6369178.578 5  -4907863.672 5
  21606827.160   -12395422.150 6  -9579821.278 6
  19667914.598   -25257422.187 7 -19522841.015 9
  20533714.309   -20667937.439 7 -15970348.766 8
 95  2 14 21 28 29.9960000  0  8 28 18 16 31 29  2 19 27
  23173127.043    -6237599.930 4   2007905.779 5
  19995546.051     1871606.621 7   1515356.796 8
  23114061.879    -4189365.079 4  -3211031.421 4
  20765739.340   -17616684.602 6 -13653884.983 7
  22177326.504    -6277892.205 5  -4836731.548 5
  21593459.348   -12465662.129 6  -9634553.691 6
  19666753.176   -25263521.492 7 -19527593.738 9
  20521565.606   -20731780.178 7 -16020096.341 8
 95  2 14 21 28 59.9960000  0  8 28 18 16 31 29  2 19 27
  23185280.488    -6173738.484 4   2057667.909 4
  20006560.762     1929487.069 7   1560458.406 8
  23109104.105    -4215432.397 4  -3231343.607 4
  20767567.574   -17607079.472 6 -13646400.460 7
  22194739.051    -6186394.449 5  -4765434.723 5
  21580148.691   -12535615.641 6  -9689062.878 6
  19665632.551   -25269413.674 7 -19532185.046 9
  20509444.605   -20795470.860 7 -16069725.427 8
 95  2 14 21 29 29.9960000  0  8 28 18 16 31 29  2 19 27
  23197512.973    -6109459.838 5   2107755.111 4
  20017660.652     1987816.637 7   1605909.978 8
  23104241.527    -4240977.009 4  -3251248.473 4
  20769513.434   -17596847.462 6 -13638427.458 8
  22212192.027    -6094677.473 5  -4693967.076 5
  21566891.277   -12605277.011 6  -9743344.440 6
  19664554.324   -25275087.809 7 -19536606.457 9
  20497353.801   -20859012.464 7 -16119238.348 8
 95  2 14 21 29 59.9960000  0  8 28 18 16 31 29  2 19 27
  23209819.340    -6044777.805 4   2158156.665 2
  20028843.426     2046586.663 7   1651704.761 8
  23099477.027    -4266005.116 4  -3270750.861 3
  20771577.121   -17586000.278 6 -13629975.095 7
  22229686.887    -6002742.226 5  -4622329.338 5
  21553687.418   -12674665.050 6  -9797413.008 6
  19663518.645   -25280528.636 7 -19540846.070 9
  20485284.402   -20922443.271 7 -16168664.933 8
 95  2 14 21 30 29.9960000  0  8 28 18 16 31 29  2 19 27
  23222205.129    -5979706.451 5   2208861.555 3
  20040109.457     2105786.975 7   1697834.839 8
  23094814.457    -4290524.785 4  -3289857.083 2
  20773754.730   -17574556.123 6 -13621057.552 7
  22247223.316    -5910588.633 5  -4550521.467 5
  21540526.777   -12743824.309 6  -9851303.306 6
  19662527.168   -25285746.037 7 -19544911.586 9
  20473230.051   -20985779.517 7 -16218017.832 8
 95  2 14 21 30 59.9960000  0  8 28 18 16 31 29  2 19 27
  23234663.027    -5914232.679 5   2259880.022 2
  20051458.191     2165431.254 7   1744310.871 8
  23090245.481    -4314527.676 4  -3308560.609 4
  20776045.020   -17562513.831 6 -13611673.928 7
  22264801.043    -5818196.143 5  -4478527.436 5
  21527413.051   -12812751.478 6  -9905012.750 6
  19661578.449   -25290730.905 7 -19548795.906 9
  20461197.535   -21049009.310 7 -16267287.779 8
 95  2 14 21 31 29.9960000  0  8 28 18 16 31 29  2 19 27
  23247197.965    -5848353.553 5   2311214.361 3
  20062894.668     2225525.781 7   1791137.739 8
  23085776.020    -4338015.587 4  -3326862.864 5
  20778451.199   -17549884.632 6 -13601832.964 7
  22282430.738    -5725568.296 5  -4406350.022 5
  21514339.168   -12881440.314 6  -9958536.475 6
  19660673.363   -25295473.520 7 -19552491.455 9
  20449191.230   -21112110.966 7 -16316457.875 8
 95  2 14 21 31 59.9960000  0  8 28 18 16 31 29  2 19 27
  23259811.746    -5782072.263 5   2362862.097 4
  20074419.926     2286085.578 7   1838327.155 8
  23081402.785    -4360987.798 4  -3344763.259 3
  20780965.504   -17536655.386 6 -13591524.437 7
  22300101.809    -5632705.552 5  -4333989.555 5
  21501315.559   -12949891.214 6 -10011874.795 6
  19659819.059   -25299977.641 7 -19556001.169 9
  20437210.207   -21175066.457 7 -16365514.073 8
 95  2 14 21 32 29.9960000  0  8 28 18 16 31 29  2 19 27
  23272503.910    -5715389.607 5   2414822.548 3
  20086031.668     2347110.066 7   1885878.668 8
  23077133.582    -4383438.676 4  -3362257.441 2
  20783600.566   -17522815.806 6 -13580740.330 7
  22317815.449    -5539623.923 5  -4261458.542 5
  21488334.301   -13018096.759 6 -10065021.927 6
  19659005.824   -25304254.109 7 -19559333.490 9
  20425261.684   -21237857.319 6 -16414441.983 8
 95  2 14 21 32 59.9960000  0  8 28 18 16 31 29  2 19 27
  23285265.637    -5648314.032 5   2467089.193 4
  20097731.059     2408588.957 7   1933784.264 8
  23072960.395    -4405360.722 4  -3379339.534 3
  20786348.480   -17508375.174 6 -13569487.861 7
  22335568.629    -5446335.868 5  -4188766.677 5
  21475409.480   -13086029.923 6 -10117956.810 7
  19658232.012   -25308313.797 7 -19562496.883 9
  20413341.918   -21300487.703 7 -16463244.838 9
 95  2 14 21 33 29.9960000  0  8 28 18 16 31 29  2 19 27
  23298102.082    -5580847.446 5   2519660.534 4
  20109517.910     2470530.467 7   1982050.340 8
  23068893.480    -4426735.650 4  -3395995.325 3
  20789211.684   -17493317.872 6 -13557754.863 7
  22353357.340    -5352848.268 5  -4115919.323 5
  21462534.418   -13153675.876 6 -10170667.887 7
  19657502.465   -25312157.762 7 -19565492.178 9
  20401457.441   -21362953.826 7 -16511919.701 8
 95  2 14 21 33 59.9960000  0  8 28 18 16 31 29  2 19 27
  23311020.027    -5512990.766 5   2572535.846 4
  20121391.973     2532935.621 7   2030677.703 8
  23064928.215    -4447555.058 4  -3412218.242 3
  20792200.621   -17477631.400 6 -13545531.603 7
  22371188.926    -5259149.786 5  -4042907.643 5
  21449718.551   -13221029.948 6 -10223151.521 6
  19656808.152   -25315798.697 7 -19568329.269 9
  20389597.699   -21425274.045 7 -16560480.875 8
 95  2 14 21 34 29.9960000  0  8 28 18 16 31 29  2 19 27
  23324002.207    -5444750.255 5   2625710.251 4
  20133352.363     2595785.681 7   2079651.746 8
  23061074.215    -4467824.798 4  -3428012.836 3
  20795299.621   -17461341.510 6 -13532838.144 7
  22389058.441    -5165246.935 5  -3969736.726 5
  21436958.754   -13288085.777 6 -10275402.760 7
  19656150.871   -25319248.552 7 -19571017.456 9
  20377758.137   -21487479.981 7 -16608953.000 8
 95  2 14 21 34 59.9960000  0  8 28 18 16 31 29  2 19 27
  23337065.145    -5376123.740 5   2679185.433 4
  20145398.012     2659080.164 7   2128972.095 8
  23057318.629    -4487547.075 4  -3443380.844 3
  20798514.887   -17444446.742 6 -13519673.355 7
  22406968.801    -5071124.686 5  -3896394.853 3
  21424256.988   -13354832.629 6 -10327413.239 7
  19655532.473   -25322499.811 7 -19573550.894 9
  20365942.168   -21549577.192 7 -16657340.404 8
 95  2 14 21 35 29.9960000  0  8 28 18 16 31 29  2 19 27
  23350193.246    -5307116.136 5   2732957.586 5
  20157526.137     2722817.599 7   2178637.597 8
  23053667.090    -4506743.066 4  -3458338.749 3
  20801842.434   -17426944.604 6 -13506035.286 7
  22424922.051    -4976779.436 5  -3822879.184 5
  21411608.754   -13421295.391 6 -10379202.348 7
  19654953.387   -25325546.022 7 -19575924.548 9
  20354144.465   -21611572.353 7 -16705648.284 8
 95  2 14 21 35 59.9960000  0  8 28 18 16 31 29  2 19 27
  23363395.098    -5237732.142 5   2787023.011 4
  20169736.676     2786979.818 7   2228634.103 8
  23050111.855    -4525434.463 4  -3472903.480 3
  20805290.270   -17408843.033 6 -13491930.122 7
  22442916.309    -4882208.199 5  -3749187.456 5
  21399012.223   -13487487.832 6 -10430780.820 7
  19654409.676   -25328383.434 7 -19578135.499 9
  20342367.387   -21673469.991 7 -16753880.174 8
 95  2 14 21 36 29.9960000  0  8 28 18 16 31 29  2 19 27
  23376674.457    -5167974.673 5   2841379.476 5
  20182022.926     2851549.529 7   2278948.135 8
  23046649.168    -4543640.335 4  -3487089.863 3
  20808844.668   -17390152.031 6 -13477365.673 7
  22460957.941    -4787417.054 5  -3675324.360 4
  21386465.426   -13553419.529 6 -10482156.121 7
  19653915.856   -25330996.901 7 -19580171.949 9
  20330608.738   -21735258.967 7 -16802027.402 8
 95  2 14 21 36 59.9960000  0  8 28 18 16 31 29  2 19 27
  23390017.816    -5097838.486 5   2896031.044 5
  20194391.059     2916535.834 7   2329586.785 8
  23043277.598    -4561355.373 4  -3500893.783 2
  20812519.340   -17370851.999 6 -13462326.664 7
  22479035.770    -4692403.146 5  -3601287.672 4
  21373969.863   -13619096.859 6 -10533333.200 7
  19653461.301   -25333365.374 7 -19582017.496 9
  20318877.348   -21796903.699 7 -16850062.235 8
 95  2 14 21 37 29.9960000  0  8 28 18 16 31 29  2 19 27
  23403433.621    -5027330.567 4   2950972.272 5
  20206834.871     2981931.576 7   2380544.477 8
  23039997.629    -4578588.391 4  -3514322.081 4
  20816305.324   -17350946.944 6 -13446816.200 7
  22497159.199    -4597181.691 5  -3527089.263 4
  21361515.816   -13684527.858 6 -10584318.353 7
  19653057.324   -25335489.647 7 -19583672.756 9
  20307175.957   -21858404.005 7 -16897984.526 8
 95  2 14 21 37 59.9960000  0  8 28 18 16 31 29  2 19 27
  23416925.145    -4956464.102 5   3006192.879 5
  20219352.207     3047717.601 7   2431806.281 8
  23036804.668    -4595343.824 4  -3527378.227 3
  20820205.598   -17330453.165 6 -13430846.986 7
  22515308.965    -4501780.147 5  -3452750.534 4
  21349115.449   -13749709.719 6 -10635109.363 7
  19652702.004   -25337373.009 7 -19585140.292 9
  20295497.668   -21919766.300 7 -16945799.272 8
 95  2 14 21 38 29.9960000  0  8 28 18 16 31 29  2 19 27
  23430475.543    -4885232.851 5   3061697.744 5
  20231948.832     3113910.895 7   2483385.442 8
  23033715.520    -4611600.102 5  -3540045.443 3
  20824218.504   -17309360.820 6 -13414411.354 7
  22533500.715    -4406192.838 5  -3378267.036 4
  21336760.090   -13814618.614 6 -10685687.675 7
  19652390.887   -25339002.971 7 -19586410.377 9
  20283851.980   -21980973.592 7 -16993493.242 8
 95  2 14 21 38 59.9960000  0  8 28 18 16 31 29  2 19 27
  23444098.426    -4813635.870 5   3117487.606 5
  20244626.871     3180528.238 7   2535295.029 8
  23030720.598    -4627330.068 5  -3552302.525 2
  20828348.348   -17287655.532 6 -13397498.115 7
  22551725.551    -4310418.444 5  -3303637.771 5
  21324461.824   -13879250.849 6 -10736050.414 7
  19652130.395   -25340378.804 7 -19587482.437 9
  20272234.941   -22042019.258 7 -17041061.266 8
 95  2 14 21 39 29.9960000  0  8 28 18 16 31 29  2 19 27
  23457796.215    -4741667.409 5   3173566.926 5
  20257385.113     3247572.284 7   2587537.110 8
  23027827.246    -4642528.007 4  -3564145.063 4
  20832595.723   -17265335.887 6 -13380106.155 7
  22569991.410    -4214437.526 5  -3228847.570 4
  21312220.793   -13943591.665 6 -10786186.077 7
  19651917.574   -25341491.415 7 -19588349.399 9
  20260648.707   -22102897.193 7 -17088498.591 8
 95  2 14 21 39 59.9960000  0  8 28 18 16 31 29  2 19 27
  23471557.301    -4669349.757 4   3229918.341 5
  20270219.527     3315023.832 7   2640096.725 8
  23025034.356    -4657203.465 4  -3575580.452 3
  20836955.418   -17242436.438 6 -13362262.406 7
  22588295.059    -4118259.558 5  -3153903.822 4
  21300028.027   -14007660.324 6 -10836109.669 7
  19651750.199   -25342374.349 7 -19589037.391 9
  20249092.012   -22163628.010 7 -17135821.274 9
 95  2 14 21 40 29.9960000  0  8 28 18 16 31 29  2 19 27
  23485387.441    -4596667.215 4   3286554.084 5
  20283136.012     3382897.796 7   2692985.492 8
  23022346.613    -4671337.445 4  -3586593.943 3
  20841427.316   -17218936.112 6 -13343950.460 7
  22606638.324    -4021857.429 5  -3078785.397 4
  21287888.590   -14071448.379 6 -10885814.608 7
  19651623.379   -25343029.219 7 -19589547.667 9
  20237568.730   -22224186.838 7 -17183009.943 8
 95  2 14 21 40 59.9960000  0  8 28 18 16 31 29  2 19 27
  23499288.106    -4523624.949 3   3343470.149 4
  20296130.559     3451187.322 7   2746198.074 8
  23019755.356    -4684948.813 4  -3597200.170 4
  20846009.504   -17194848.696 6 -13325181.033 7
  22625023.309    -3925247.276 5  -3003504.872 4
  21275799.996   -14134976.136 6 -10935316.720 7
  19651542.887   -25343473.563 7 -19589893.898 9
  20226076.496   -22284579.282 7 -17230068.965 8
 95  2 14 21 41 29.9960000  0  8 28 18 16 31 29  2 19 27
  23513253.473    -4450233.233 3   3400658.498 5
  20309202.020     3519873.931 7   2799720.064 8
  23017263.426    -4698058.079 4  -3607415.159 4
  20850701.145   -17170197.833 6 -13305972.566 7
  22643445.387    -3828441.567 5  -2928071.982 4
  21263759.160   -14198249.577 6 -10984620.661 7
  19651490.887   -25343722.673 7
  20214614.426   -22344820.680 7 -17277010.291 8
 95  2 14 21 41 59.9960000  0  8 28 18 16 31 29  2 19 27
  23527291.488    -4376489.569 3   3458121.097 5
  20322348.191     3588965.720 7   2853557.789 8
  23014863.207    -4710652.704 4  -3617229.124 4
  20855500.738   -17144978.450 6 -13286321.101 7
  22661900.074    -3731460.729 5  -2852502.624 5
  21251769.973   -14261264.265 6 -11033722.982 7
  19651482.793   -25343777.148 7
  20203177.207   -22404909.422 7 -17323832.664 8
 95  2 14 21 42 29.9960000  0  8 28 18 16 31 29  2 19 27
  23541389.480    -4302393.083 3   3515858.621 5
  20335575.785     3658470.274 7   2907717.139 8
  23012566.895    -4722740.423 4  -3626648.101 2
  20860410.363   -17119180.817 6 -13266219.059 7
  22680386.426    -3634317.993 5  -2776807.111 5
  21239826.449   -14324023.687 6 -11082626.387 7
  19651510.504   -25343619.912 7
  20191774.199   -22464835.412 7 -17370528.217 8
 95  2 14 21 42 59.9960000  0  8 28 18 16 31 29  2 19 27
  23555553.418    -4227949.183 3   3573866.866 5
  20348880.652     3728389.008 7   2962199.232 8
  23010363.301    -4734322.482 4  -3635673.067 4
  20865426.340   -17092815.757 6 -13245674.875 7
  22698897.270    -3537027.495 5  -2700996.458 4
  21227930.035   -14386523.360 6 -11131327.398 7
  19651583.285   -25343240.807 7
  20180398.996   -22524614.393 7 -17417109.210 8
 95  2 14 21 43 29.9960000  0  8 28 18 16 31 29  2 19 27
  23569782.598    -4153163.922 3   3632141.080 4
  20362265.543     3798720.280 7   3017002.781 8
  23008256.941    -4745378.703 4  -3644288.293 3
  20870554.332   -17065880.157 6 -13224686.123 7
  22717441.566    -3439583.458 5  -2625066.159 4
  21216087.285   -14448753.822 6 -11179818.626 7
  19651698.191   -25342630.231 7 -19589236.731 9
  20169050.660   -22584255.980 7 -17463583.145 8
 95  2 14 21 43 59.9960000  0  8 28 18 16 31 29  2 19 27
  23584076.137    -4078044.392 3   3690675.791 3
  20375726.230     3869467.296 7   3072130.290 8
  23006252.723    -4755912.638 4  -3652496.512 4
  20875790.348   -17038356.293 7 -13203238.976 7
  22736014.738    -3341989.363 5  -2549018.945 3
  21204300.465   -14510711.854 6 -11228097.566 7
  19651861.152   -25341791.733 7 -19588583.352 9
  20157726.855   -22643756.738 7 -17509947.344 8
 95  2 14 21 44 29.9960000  0  8 28 18 16 31 29  2 19 27
  23598436.387    -4002595.035 4   3749467.506 2
  20389267.137     3940624.943 7   3127577.773 8
  23004347.191    -4765927.148 4  -3660300.032 3
  20881140.809   -17010234.613 6 -13181326.006 7
  22754616.887    -3244231.180 4  -2472843.880 4
  21192558.121   -14572402.124 6 -11276167.856 7
  19652062.191   -25340723.203 7 -19587750.722 9
  20146431.637   -22703118.926 7 -17556203.565 8
 95  2 14 21 44 59.9960000  0  8 28 18 16 31 29  2 19 27
  23612855.301    -3926815.050 3   3808516.847 4
  20402885.441     4012181.807 7   3183336.337 8
  23002544.098    -4775407.897 4  -3667687.600 2
  20886606.559   -16981507.543 6 -13158941.304 7
  22773255.965    -3146297.482 5  -2396532.039 2
  21180875.645   -14633810.619 6 -11324018.579 7
  19652313.145   -25339417.579 7 -19586733.348 9
  20135161.004   -22762338.480 7 -17602348.640 8
 95  2 14 21 45 29.9960000  0  8 28 18 16 31 29  2 19 27
  23627344.371    -3850697.382 4   3867829.329 2
  20416578.184     4084138.978 7   3239406.825 8
  23000838.348    -4784360.335 4  -3674663.513 3
  20892192.105   -16952159.271 6 -13136072.544 7
  22791928.637    -3048164.444 4  -2320064.854 2
  21169242.785   -14694926.725 6 -11371641.475 7
  19652608.871   -25337861.116 7 -19585520.511 9
  20123923.981   -22821391.684 7 -17648364.085 8
 95  2 14 21 45 59.9960000  0  8 28 18 16 31 29  2 19 27
  23641886.449    -3774254.887 4   3927394.917 3
  20430343.113     4156476.266 7   3295773.511 8
  22999227.223    -4792815.760 4  -3681252.131 4
  20897892.348   -16922213.615 6 -13112738.286 7
  22810638.480    -2949845.534 4  -2243452.856 4
  21157665.762   -14755760.725 6 -11419044.532 7
  19652949.027   -25336061.316 7 -19584118.063 9
  20112720.934   -22880273.702 7 -17694246.146 8
 95  2 14 21 46 29.9960000  0  7 18 16 31 29  2 19 27
  20444179.926     4229185.156 7   3352429.756 8
  22997716.660    -4800768.581 4  -3687449.116 5
  20903698.113   -16891692.475 6 -13088955.601 7
  22829383.746    -2851340.159 4  -2166695.585 2
  21146144.895   -14816314.670 6 -11466229.368 7
  19653342.848   -25333997.261 7 -19582509.707 9
  20101549.973   -22938972.165 7 -17739985.173 8
 95  2 14 21 46 59.9960000  0  7 18 16 31 29  2 19 27
  20458086.949     4302270.283 7   3409379.176 7
  22996296.574    -4808220.451 4  -3693255.757 5
  20909615.770   -16860601.397 6 -13064728.801 7
  22848160.246    -2752651.732 4  -2089795.629 2
  21134676.699   -14876590.652 6 -11513197.598 7
  19653786.816   -25331658.400 7 -19580687.211 9
  20090415.668   -22997479.734 7 -17785575.452 8
 95  2 14 21 47 29.9960000  0  7 18 16 31 29  2 19 27
  20472067.566     4375739.020 7   3466627.512 7
  22994972.809    -4815179.758 4  -3698678.573 5
  20915640.410   -16828942.089 6 -13040059.221 7
  22866976.652    -2653799.599 4  -2012768.146 1
  21123256.496   -14936605.426 6 -11559962.296 7
  19654285.066   -25329054.687 7 -19578658.349 9
  20079315.887   -23055804.655 7 -17831023.415 9
 95  2 14 21 47 59.9960000  0  7 18 16 31 29  2 19 27
  20486122.457     4449595.386 7   3524177.894 7
  22993746.520    -4821631.298 4  -3703705.738 3
  20921775.910   -16796707.104 7 -13014941.059 7
  22885811.762    -2554808.098 4  -1935632.056 4
  21111884.559   -14996363.520 6 -11606526.986 7
  19654830.926   -25326182.535 7 -19576420.312 9
  20068250.340   -23113954.474 7 -17876334.931 8
 95  2 14 21 48 29.9960000  0  7 18 16 31 29  2 19 27
  20500251.074     4523840.176 7   3582030.945 7
  22992616.332    -4827567.231 4  -3708331.135 5
  20928021.535   -16763871.551 6 -12989354.904 7
  22904670.098    -2455692.423 5  -1858399.202 3
  21100562.293   -15055869.199 6 -11652894.988 7
  19655429.418   -25323040.671 7 -19573972.120 9
  20057217.879   -23171933.189 7 -17921513.123 8
 95  2 14 21 48 59.9960000  0  7 18 16 31 29  2 19 27
  20514454.613     4598482.088 7   3640193.443 7
  22991579.848    -4833001.647 4  -3712565.735 5
  20934387.840   -16730425.824 6 -12963293.289 7
  22923553.410    -2356458.424 5  -1781074.180 2
  21089287.379   -15115113.644 6 -11699059.437 7
  19656072.965   -25319652.506 7 -19571331.996 9
  20046213.012   -23229758.788 7 -17966572.013 9
 95  2 14 21 49 29.9960000  0  7 18 16 31 29  2 19 27
  20528734.231     4673521.302 7   3698665.522 7
  22990642.379    -4837944.316 4  -3716417.147 4
  20940866.238   -16696375.364 6 -12936760.454 7
  22942462.715    -2257096.511 5  -1703649.459 2
  21078065.699   -15174072.926 6 -11745001.682 7
  19656765.895   -25316021.296 7 -19568502.485 9
  20035240.074   -23287428.764 7 -18011509.631 9
 95  2 14 21 49 59.9960000  0  7 18 16 31 29  2 19 27
  20543085.606     4748937.418 7   3757431.293 7
  22989792.035    -4842410.187 4  -3719897.027 4
  20947454.715   -16661744.746 6 -12909775.548 7
  22961396.512    -2157600.881 5  -1626120.556 3
  21066897.410   -15232748.074 6 -11790722.526 7
  19657502.043   -25312159.127 7 -19565493.002 8
  20024297.426   -23344941.016 7 -18056324.359 9
 95  2 14 21 50 29.9960000  0  7 18 16 31 29  2 19 27
  20557508.566     4824734.111 7   3816493.625 7
  22989030.223    -4846411.263 5  -3723014.755 4
  20954155.488   -16626542.601 6 -12882345.293 7
  22980360.238    -2057948.034 5  -1548469.156 2
  21055787.199   -15291145.729 6 -11836227.138 7
  19658274.668   -25308086.741 7 -19562319.723 9
  20013382.152   -23402290.470 7 -18101012.230 9
 95  2 14 21 50 59.9960000  0  7 18 16 31 29  2 19 27
  20572006.582     4900919.188 7   3875858.581 7
  22988354.707    -4849947.709 5  -3725770.407 3
  20960960.957   -16590781.625 6 -12854479.589 7
  22999358.816    -1958109.491 5  -1470673.042 3
  21044729.152   -15349262.434 6 -11881512.834 7
  19659089.043   -25303809.482 7 -19558986.795 8
  20002499.145   -23459478.308 7 -18145574.163 9
 95  2 14 21 51 29.9960000  0  7 18 16 31 29  2 19 27
  20586571.566     4977460.691 7   3935501.280 7
  22987770.043    -4853011.084 4  -3728157.447 4
  20967871.371   -16554466.719 6 -12826182.243 7
  23018391.434    -1858100.087 5  -1392743.803 2
  21033716.605   -15407123.702 6 -11926599.483 7
  19659939.434   -25299326.833 7 -19555493.828 8
  19991650.316   -23516502.921 7 -18190008.907 9
 95  2 14 21 51 59.9960000  0  7 18 16 31 29  2 19 27
  20601200.645     5054341.394 6   3995408.288 7
  22987283.441    -4855590.143 5  -3730167.075 5
  20974888.652   -16517592.076 6 -12797448.747 7
  23037448.090    -1757944.200 4  -1314700.446 3
  21022750.566   -15464756.803 6 -11971508.356 7
  19660831.871   -25294647.401 7 -19551847.522 9
  19980826.238   -23573374.190 7 -18234324.169 9
 95  2 14 21 52 29.9960000  0  7 18 16 31 29  2 19 27
  20615898.598     5131579.800 7   4055594.035 7
  22986890.832    -4857661.682 5  -3731781.254 3
  20982017.152   -16480131.996 6 -12768259.049 7
  23056539.277    -1657633.788 5  -1236536.655 3
  21011830.332   -15522138.500 6 -12016221.312 7
  19661764.262   -25289745.578 7 -19548027.930 8
  19970035.355   -23630084.566 7 -18278514.044 9
 95  2 14 21 52 59.9960000  0  7 18 16 31 29  2 19 27
  20630664.512     5209167.520 7   4116051.967 7
  22986596.816    -4859203.622 5  -3732982.758 2
  20989253.441   -16442095.442 6 -12738620.159 7
  23075653.598    -1557191.498 4  -1158270.120 4
  21000960.863   -15579251.456 6 -12060724.871 7
  19662747.137   -25284584.620 7 -19544006.399 8
  19959276.004   -23686627.893 7 -18322573.743 9
 95  2 14 21 53 29.9960000  0  7 18 16 31 29  2 19 27
  20645493.645     5287102.870 7   4176780.787 7
  22986405.215    -4860211.736 5  -3733768.282 4
  20996601.504   -16403490.788 6 -12708538.598 7
  23094788.387    -1456636.094 4  -1079915.462 3
  20990146.176   -15636097.540 6 -12105020.469 7
  19663781.004   -25279149.420 7 -19539771.180 8
  19948549.238   -23742984.253 7 -18366487.762 9
 95  2 14 21 53 59.9960000  0  7 18 16 31 29  2 19 27
  20660396.840     5365411.167 7   4237800.209 7
  22986312.348    -4860694.110 4
  21004049.590   -16364338.866 6 -12678030.594 7
  23113945.879    -1355963.546 3  -1001469.509 5
  20979379.207   -15692666.124 6 -12149099.839 7
  19664869.199   -25273436.370 7 -19535319.449 8
  19937862.652   -23799151.122 7 -18410254.128 9
 95  2 14 21 54 29.9960000  0  7 18 16 31 29  2 19 27
  20675370.723     5444109.289 7   4299123.390 7
  22986324.262    -4860650.800 5
  21011601.738   -16324652.395 6 -12647106.062 7
  23133125.559    -1255164.975 3   -922925.365 4
  20968668.926   -15748942.059 6 -12192951.170 7
  19666012.668   -25267431.324 7 -19530640.186 8
  19927213.520   -23855114.783 7 -18453862.141 9
 95  2 14 21 54 59.9960000  0  7 18 16 31 29  2 19 27
  20690422.020     5523193.374 7   4360747.324 7
  22986432.324    -4860088.671 5
  21019255.113   -16284440.026 6 -12615771.743 7
  23152331.965    -1154250.292 3   -844290.773 3
  20958013.637   -15804940.087 6 -12236585.945 7
  19667209.090   -25261138.048 7 -19525736.323 8
  19916604.238   -23910869.044 7 -18497306.988 9
 95  2 14 21 55 29.9960000  0  7 18 16 31 29  2 19 27
  20705544.090     5602660.559 7   4422669.779 7
  22986626.793    -4859033.719 5  -3732850.295 4
  21027007.246   -16243694.688 6 -12584022.118 7
  23171554.832    -1053216.902 3   -765563.666 3
  20947408.981   -15860669.899 6
  19668455.520   -25254591.899 7 -19520635.418 8
  19906032.301   -23966420.994 7
 95  2 14 21 55 59.9960000  0  7 18 16 31 29  2 19 27
  20720738.262     5682509.970 7   4484890.069 7
  22986921.629    -4857488.583 5  -3731646.274 4
  21034868.910   -16202396.226 6 -12551841.487 7
  23190800.863     -952059.122 3   -686739.627 2
  20936858.879   -15916122.573 6
  19669748.801   -25247788.087 7 -19515333.736 8
  19895496.379   -24021779.585 7
 95  2 14 21 56 29.9960000  0  7 18 16 31 29  2 19 27
  20736003.363     5762727.774 6   4547397.411 7
  22987314.809    -4855445.363 5  -3730054.143 4
  21042835.160   -16160519.559 6 -12519210.306 7
  23210083.434     -850764.345 3   -607808.848 2
  20926362.168   -15971293.215 6
  19671095.199   -25240717.537 7 -19509824.203 8
  19884999.902   -24076934.644 7
 95  2 14 21 56 59.9960000  0  7 18 16 31 29  2 19 27
  20751333.082     5843287.628 7   4610171.298 7
  22987786.418    -4852946.892 4  -3728107.292 4
  21050911.348   -16118081.324 6 -12486141.555 7
  23229379.566     -749360.013 3   -528792.721 2
  20915907.574   -16026213.605 6
  19672484.543   -25233414.861 7 -19504133.795 8
  19874540.832   -24131910.846 7
 95  2 14 21 57 29.9960000  0  7 18 16 31 29  2 19 27
  20766726.348     5924181.968 6   4673205.816 7
  22988348.230    -4849994.742 4  -3725806.913 2
  21059092.106   -16075089.301 6 -12452641.277 7
  23248697.059     -647835.547 3   -449682.966 2
  20905504.645   -16080873.861 6
  19673917.246   -25225886.677 7 -19498267.651 8
  19864113.402   -24186710.785 7
 95  2 14 21 57 59.9960000  0  7 18 16 31 29  2 19 27
  20782183.066     6005399.514 6   4736492.180 7
  22988997.762    -4846589.521 4  -3723153.493 3
  21067377.113   -16031561.129 6 -12418723.233 7
  23268042.535     -546193.695 3   -370481.747 1
  20895151.027   -16135277.693 6        -0.04417
  19675394.598   -25218117.677 7 -19492213.862 8
  19853718.684   -24241337.021 7 -18754814.305 9
 95  2 14 21 58 29.9960000  0  7 18 16 31 29  2 19 27
  20797701.082     6086949.748 6   4800037.783 7
  22989734.254    -4842722.136 4  -3720139.945 3
  21075761.512   -15987497.393 6 -12384387.860 7
  23287406.512     -444426.797 4   -291183.106 2
  20884852.527   -16189410.396 6    -42181.318 7
  19676918.809   -25210104.639 7 -19485969.915 8
  19843358.465   -24295776.794 7 -18797234.872 9
 95  2 14 21 58 59.9960000  0  7 18 16 31 29  2 19 27
  20813280.801     6168829.541 6   4863840.186 7
  22990554.621    -4838398.197 4  -3716770.628 4
  21084244.238   -15942913.416 6 -12349647.104 7
  23306792.231     -342549.767 4   -211798.618 1
  20874604.277   -16243270.335 6    -84150.050 7
  19678491.902   -25201845.033 7 -19479533.830 8
  19833031.168   -24350037.645 7 -18839516.026 9
 95  2 14 21 59 29.9960000  0  7 18 16 31 29  2 19 27
  20828923.465     6251025.838 6   4927889.209 7
  22991470.293    -4833589.657 4  -3713023.705 3
  21092830.371   -15897794.658 6 -12314489.639 7
  23326201.066     -240555.079 4
  20864406.730   -16296847.713 6   -125898.609 7
  19680113.816   -25193323.702 7 -19472893.827 8
  19822743.871   -24404108.657 7 -18881649.250 9
 95  2 14 21 59 59.9960000  0  7 18 16 31 29  2 19 27
  20844626.840     6333549.060 6   4992192.983 7
  22992482.293    -4828292.489 4  -3708896.044 4
  21101521.996   -15852121.783 6 -12278900.388 7
  23345629.824     -138459.108 4        -0.42511
  20854263.512   -16350144.793 6   -167428.757 8
  19681787.684   -25184525.899 7 -19466038.385 8
  19812491.371   -24457981.100 7 -18923627.746 9
 95  2 14 22  0 29.9960000  0  7 18 16 31 29  2 19 27
  20860393.731     6416401.966 6   5056753.654 7
  22993583.934    -4822491.506 4  -3704375.783 2
  21110321.012   -15805880.796 6 -12242868.463 7
  23365075.316      -36266.442 4     79629.954 1
  20844177.340   -16403165.985 6   -208743.926 7
  19683513.754   -25175455.619 7 -19458970.615 8
  19802277.566   -24511648.206 7 -18965446.249 9
 95  2 14 22  0 59.9960000  0  7 18 16 31 29  2 19 27
  20876217.863     6499562.225 6   5121553.822 7
  22994780.902    -4816197.509 4  -3699471.385 3
  21119227.785   -15759088.190 6 -12206406.702 7
  23384541.285       66006.492 4    159322.902 1
  20834131.504   -16455935.067 6   -249862.650 7
  19685287.980   -25166128.178 7 -19451702.472 8
  19792106.082   -24565110.870 7 -19007105.436 9
 95  2 14 22  1 29.9960000  0  8  7 18 16 31 29  2 19 27
  23396981.848          -0.75713
  20892105.559     6583049.704 6   5186608.957 7
  22996074.848    -4809401.411 4  -3694175.722 4
  21128238.488   -15711727.138 6 -12169502.005 7
  23404019.887      168366.441 4    239083.575 1
  20824143.590   -16508446.947 6   -290780.956 7
  19687113.332   -25156536.390 7 -19444228.344 8
  19781972.254   -24618350.188 7 -19048590.589 9
 95  2 14 22  1 59.9960000  0  8  7 18 16 31 29  2 19 27
  23374944.129     -115814.626 3
  20908057.004     6666872.496 6   5251925.383 7
  22997458.934    -4802116.976 5  -3688499.535 3
  21137354.887   -15663823.541 6 -12132174.544 7
  23423512.527      270806.543 4
  20814195.106   -16560712.527 6   -331507.348 7
  19688987.809   -25146685.373 7 -19436552.215 8
  19771884.215   -24671377.254 7 -19089910.350 9
 95  2 14 22  2 29.9960000  0  8  7 18 16 31 29  2 19 27
  23352908.105     -231603.835 3
  20924069.527     6751024.009 6   5317497.954 6
  22998937.246    -4794350.750 4  -3682447.954 1
  21146571.973   -15615394.299 6 -12094437.493 7
  23443023.668      373347.681 3        -0.41711
  20804296.941   -16612737.258 6   -372046.054 7
  19690911.145   -25136574.844 7 -19428673.872 8
  19761831.379   -24724193.463 7 -19131065.810 9
 95  2 14 22  2 59.9960000  0  8  7 18 16 31 29  2 19 27
  23330879.629     -347363.309 3
  20940147.035     6835511.227 6   5383332.106 7
  23000503.184    -4786118.741 4  -3676033.417 4
  21155886.434   -15566451.158 6 -12056300.006 7
  23462559.207      475992.265 3     79982.043 1
  20794441.371   -16664511.239 6   -412389.369 7
  19692884.301   -25126208.124 7 -19420595.908 8
  19751823.184   -24776799.700 7 -19172057.649 9
 95  2 14 22  3 29.9960000  0  8  7 18 16 31 29  2 19 27
  23308859.996     -463086.418 3        -0.24911
  20956287.629     6920337.102 6   5449430.152 7
  23002161.637    -4777414.429 4  -3669250.835 2
  21165295.074   -15516997.168 6 -12017764.454 7
  23482110.230      578745.221 3    160048.915 2
  20784641.238   -16716027.891 6   -452532.165 7
  19694907.270   -25115580.174 7 -19412314.375 9
  19741847.004   -24829210.850 7 -19212897.480 9
 95  2 14 22  3 59.9960000  0  8  7 18 16 31 29  2 19 27
  23286848.691     -578761.590 3    -90136.458 2
  20972493.043     7005492.087 6   5515784.643 7
  23003905.309    -4768239.727 4  -3662101.726 4
  21174803.457   -15467034.555 6 -11978832.573 7
  23501685.832      681622.945 3    240213.017 1
  20774887.684   -16767274.310 6   -492464.397 8
  19696981.473   -25104684.543 7 -19403824.269 8
  19731911.293   -24881423.185 7 -19253582.385 9
 95  2 14 22  4 29.9960000  0  8  7 18 16 31 29  2 19 27
  23264837.481     -694429.173 3   -180266.776 2
  20988758.051     7090953.217 6   5582377.699 6
  23005740.863    -4758615.950 4  -3654602.705 2
  21184405.941   -15416570.136 6 -11939509.656 7
  23521283.012      784595.819 2    320451.203 1
  20765185.551   -16818248.822 6   -532184.746 8
  19699102.238   -25093539.127 7 -19395139.527 9
  19722015.832   -24933438.577 7 -19294113.825 9
 95  2 14 22  4 59.9960000  0  7  7 18 16 31  2 19 27
  23242821.715     -810112.662 3   -270409.479 2
  21005072.770     7176704.194 6   5649196.604 6
  23007655.512    -4748547.676 4  -3646757.324 3
  21194106.035   -15365602.779 6 -11899794.852 7
  20755541.613   -16868941.830 6   -571685.738 8
  19701268.574   -25082151.078 7 -19386265.715 8
  19712151.738   -24985260.055 7 -19334494.163 9
 95  2 14 22  5 29.9960000  0  7  7 18 16 31  2 19 27
  23220808.738     -925808.149 3   -360561.585 4
  21021449.824     7262753.829 6   5716248.216 6
  23009656.934    -4738026.350 4  -3638558.901 4
  21203902.254   -15314116.440 6 -11859675.641 6
  20745950.059   -16919348.000 6   -610963.228 8
  19703488.043   -25070489.259 7 -19377178.577 8
  19702330.152   -25036871.926 7 -19374711.174 9
 95  2 14 22  5 59.9960000  0  7  7 18 16 31  2 19 27
  23198788.012    -1041528.401 3   -450732.985 3
  21037879.699     7349100.536 6   5783531.324 6
  23011747.074    -4727071.251 4  -3630022.466 2
  21213797.551   -15262115.668 6 -11819155.569 6
  20736410.691   -16969475.420 6   -650023.506 8
  19705756.199   -25058565.011 7 -19367886.949 9
  19692550.824   -25088274.034 7 -19414764.724 9
 95  2 14 22  6 29.9960000  0  7  7 18 16 31  2 19 27
  23176762.824    -1157269.946 3   -540920.961 2
  21054369.043     7435751.291 6   5851051.348 6
  23013906.840    -4715677.808 4  -3621144.452 2
  21223792.941   -15209596.596 6 -11778231.611 6
  20726920.207   -17019338.185 6   -688877.563 8
  19708076.223   -25046377.462 7 -19358390.151 9
  19682810.207   -25139464.851 7 -19454653.635 9
 95  2 14 22  6 59.9960000  0  7  7 18 16 31  2 19 27
  23154736.270    -1272998.577 3   -631098.913 2
  21070917.957     7522717.910 6   5918817.504 6
  23016162.629    -4703837.831 4  -3611918.495 4
  21233882.855   -15156561.560 6 -11736905.599 6
  20717478.293   -17068954.087 6   -727539.254 8
  19710448.488   -25033908.513 7 -19348674.075 9
  19673107.457   -25190452.553 7 -19494384.271 9
 95  2 14 22  7 29.9960000  0  7  7 18 16 31  2 19 27
  23132722.129    -1388694.669 3   -721251.539 3
  21087528.020     7610001.547 6   5986830.673 6
  23018500.207    -4691550.198 4  -3602343.746 5
  21244072.371   -15103017.129 6 -11695182.660 6
  20708080.285   -17118339.370 7   -766021.242 8
  19712873.730   -25021162.455 7 -19338742.071 9
  19663444.043   -25241233.833 7 -19533954.073 9
 95  2 14 22  7 59.9960000  0  7  7 18 16 31  2 19 27
  23110720.723    -1504318.337 3   -811347.731 1
  21104200.152     7697609.777 6   6055096.776 6
  23020923.418    -4678795.447 4
  21254362.754   -15048943.476 6 -11653047.331 6
  20698730.363   -17167469.959 6   -804304.775 8
  19715354.340   -25008133.328 7
  19653823.973   -25291784.645 7 -19573344.278 9
 95  2 14 22  8 29.9960000  0  7  7 18 16 31  2 19 27
  23088731.504    -1619867.323 3   -901385.737 4
  21120926.621     7785513.798 6   6123593.362 6
  23023439.668    -4665586.702 4
  21264748.410   -14994360.033 6 -11610514.762 6
  20689427.176   -17216370.517 6   -842409.058 8
  19717885.801   -24994829.030 7
  19644242.832   -25342126.620 7 -19612571.759 9
 95  2 14 22  8 59.9960000  0  7  7 18 16 31  2 19 27
  23066758.590    -1735325.083 3   -991352.641 3
  21137709.230     7873709.606 6   6192317.310 6
  23026040.910    -4651910.127 4  -3571455.434 5
  21275234.988   -14939262.649 6 -11567581.714 6
  20680169.051   -17265021.622 7   -880318.964 8
  19720470.512   -24981244.587 7 -19307637.204 9
  19634705.926   -25392249.664 7 -19651628.645 9
 95  2 14 22  9 29.9960000  0  7  7 18 16 31  2 19 27
  23044806.465    -1850688.945 4  -1081246.374 2
  21154547.762     7962185.073 6   6261259.186 6
  23028735.543    -4637755.346 4  -3560425.751 3
  21285818.293   -14883635.058 6 -11524235.531 6
  20670963.113   -17313406.317 7   -918021.278 8
  19723106.449   -24967391.227 7 -19296842.365 9
  19625211.035   -25442138.126 7 -19690502.740 9
 95  2 14 22  9 59.9960000  0  7  7 18 16 31  2 19 27
  23022868.902    -1965974.933 4  -1171079.439 4
  21171434.480     8050930.801 6   6330411.635 6
  23031522.230    -4623129.620 4  -3549029.106 3
  21296500.895   -14827494.479 6 -11480489.616 6
  20661804.371   -17361528.681 7   -955519.182 8
  19725792.645   -24953285.180 7 -19285850.633 9
  19615760.223   -25491804.061 7 -19729203.437 9
 95  2 14 22 10 29.9960000  0  7  7 18 16 31  2 19 27
  23000938.770    -2081206.638 4  -1260870.168 2
  21188371.637     8139929.224 6   6399761.002 6
  23034391.238    -4608043.726 4  -3537273.885 3
  21307280.043   -14770865.058 6 -11436362.792 6
  20652695.527   -17409403.434 7   -992824.133 8
  19728521.801   -24938934.888 7 -19274668.576 9
  19606349.293   -25541260.556 7 -19767740.937 9
 95  2 14 22 10 59.9960000  0  7  7 18 16 31  2 19 27
  22979021.168    -2196383.092 4  -1350617.828 3
  21205355.457     8229188.449 6   6469313.588 6
  23037353.426    -4592486.178 4  -3525151.143 2
  21318150.785   -14713731.171 6 -11391842.881 6
  20643636.066   -17457001.705 7  -1029913.651 8
  19731302.480   -24924322.458 7 -19263282.251 9
  19596986.902   -25590462.787 7 -19806080.307 9
 95  2 14 22 11 29.9960000  0  7  7 18 16 31  2 19 27
  22957109.426    -2311531.453 4  -1440343.579 4
  21222391.629     8318711.011 6   6539071.365 6
  23040395.645    -4576485.521 3  -3512683.143 4
  21329114.777   -14656115.725 6 -11346947.745 6
  20634627.402   -17504340.777 7  -1066801.191 8
  19734131.316   -24909456.638 7 -19251698.478 9
  19587669.590   -25639426.824 7 -19844234.074 9
 95  2 14 22 11 59.9960000  0  7  7 18 16 31  2 19 27
  22935205.863    -2426647.958 5  -1530044.465 3
  21239484.387     8408529.789 6   6609059.958 6
  23043522.262    -4560044.276 4  -3499871.801 3
  21340169.465   -14598026.002 6 -11301683.026 6
  20625669.129   -17551410.494 7  -1103478.842 8
  19737012.926   -24894310.116 7 -19239895.971 9
  19578400.387   -25688140.828 7 -19882193.012 9
 95  2 14 22 12 29.9960000  0  7  7 18 16 31  2 19 27
  22913302.074    -2541739.437 4  -1619725.855 2
  21256630.785     8498633.685 6   6679270.728 6
  23046732.918    -4543173.939 4  -3486726.112 3
  21351314.918   -14539453.980 6 -11256042.506 6
  20616762.145   -17598217.635 7  -1139951.892 8
  19739952.934   -24878861.773 7 -19227858.284 9
  19569177.824   -25736602.974 7 -19919955.693 9
 95  2 14 22 12 59.9960000  0  7  7 18 16 31  2 19 27
  22891404.481    -2656813.694 4  -1709393.787 2
  21273829.168     8589018.518 6   6749700.405 6
  23050024.762    -4525879.604 4  -3473250.033 4
  21362548.121   -14480418.809 6 -11210041.091 6
  20607901.598   -17644783.277 7  -1176236.755 8
  19742946.746   -24863128.864 7 -19215598.856 9
  19560001.316   -25784831.080 7 -19957536.008 9
 95  2 14 22 13 29.9960000  0  7  7 18 16 31  2 19 27
  22869514.113    -2771845.184 4  -1799028.371 2
  21291088.418     8679711.139 6   6820369.921 6
  23053401.309    -4508159.905 4  -3459442.495 3
  21373872.277   -14420916.335 6 -11163675.550 6
  20599087.363   -17691104.417 7  -1212331.102 8
  19745997.473   -24847101.917 7 -19203110.312 9
  19550863.113   -25832846.264 7 -19994950.414 9
 95  2 14 22 13 59.9960000  0  7  7 18 16 31  2 19 27
  22847634.356    -2886815.743 3  -1888615.503 1
  21308399.777     8770685.107 6   6891258.659 6
  23056854.160    -4490009.727 4  -3445299.535 4
  21385287.871   -14360935.494 6 -11116937.255 6
  20590321.441   -17737174.309 7  -1248229.669 8
  19749101.590   -24830780.726 7 -19190392.485 9
  19541767.160   -25880640.036 7 -20032192.282 9
 95  2 14 22 14 29.9960000  0  7  7 18 16 31  2 19 27
  22825771.957    -3001705.015 4  -1978139.287 2
  21325762.105     8861923.696 6   6962353.602 6
  23060385.848    -4471428.038 4  -3430820.326 2
  21396793.082   -14300471.790 6 -11069822.692 6
  20581606.691   -17782977.844 7  -1283920.677 8
  19752260.543   -24814182.689 7 -19177458.933 9
  19532713.449   -25928213.951 7 -20069262.830 9
 95  2 14 22 14 59.9960000  0  7  7 18 16 31  2 19 27
  22803930.207    -3116491.654 4  -2067583.108 1
  21343175.059     8953433.231 6   7033659.666 6
  23064008.910    -4452410.746 4  -3416001.682 2
  21408388.957   -14239527.181 6 -11022333.390 6
  20572943.301   -17828500.056 7  -1319392.480 8
  19755468.543   -24797328.493 7 -19164325.782 9
  19523702.355   -25975570.837 7 -20106164.276 9
 95  2 14 22 15 29.9960000  0  7  7 18 16 31  2 19 27
  22782104.840    -3231175.231 4  -2156946.671 3
  21360637.746     9045195.435 6   7105162.620 6
  23067706.840    -4432974.368 4  -3400856.473 4
  21420079.152   -14178099.723 6 -10974467.844 6
  20564333.254   -17873735.111 7  -1354640.525 8
  19758723.004   -24780223.755 7 -19150997.413 9
  19514734.410   -26022707.127 7 -20142893.825 9
 95  2 14 22 15 59.9960000  0  7  7 18 16 31  2 19 27
  22760302.301    -3345756.311 4  -2246230.367 4
  21378142.074     9137185.062 6   7176842.783 6
  23071484.566    -4413110.068 4  -3385377.823 4
  21431860.543   -14116192.359 6 -10926228.340 6
  20555780.355   -17918680.993 7  -1389663.239 8
  19762022.676   -24762881.891 7 -19137484.260 9
  19505809.848   -26069601.184 7 -20179434.625 9
 95  2 14 22 16 29.9960000  0  7  7 18 16 31  2 19 27
  22738515.246    -3460237.156 5  -2335435.987 2
  21395695.832     9229426.206 6   7248718.941 6
  23075347.379    -4392808.228 4  -3369558.249 2
  21443730.606   -14053804.778 6 -10877614.649 6
  20547282.223   -17963348.880 7  -1424469.337 8
  19765373.770   -24745273.422 7 -19123763.370 9
  19496931.012   -26116247.631 7 -20215782.480 9
 95  2 14 22 16 59.9960000  0  7  7 18 16 31  2 19 27
  22716744.582    -3574642.944 5  -2424583.149 2
  21413294.941     9321909.385 6   7320783.693 6
  23079292.512    -4372081.143 4  -3353407.318 2
  21455692.332   -13990945.184 6 -10828633.145 6
  20538828.582   -18007775.504 7  -1459087.443 8
  19768778.902   -24727378.901 7 -19109819.586 9
  19488104.199   -26162641.433 7 -20251933.468 9
 95  2 14 22 17 29.9960000  0  7  7 18 16 31  2 19 27
  22694989.246    -3688967.176 5  -2513666.784 4
  21430943.098     9414650.041 6   7393049.078 6
  23083320.973    -4350924.402 4  -3336921.568 4
  21467743.926   -13927612.357 6 -10779282.886 6
  20530416.973   -18051961.289 7  -1493517.875 8
  19772245.723   -24709163.242 7 -19095625.576 9
  19479329.699   -26208759.719 7 -20287869.767 9
 95  2 14 22 17 59.9960000  0  7  7 18 16 31  2 19 27
  22673246.504    -3803233.582 5  -2602705.382 4
  21448637.457     9507641.454 6   7465509.852 6
  23087420.316    -4329359.587 3  -3320117.842 2
  21479883.582   -13863822.995 6 -10729576.884 6
  20522050.402   -18095931.618 7  -1527780.432 8
  19775771.785   -24690626.292 7 -19081181.204 9
  19470601.316   -26254623.303 7 -20323607.601 9
 95  2 14 22 18 29.9960000  0  7  7 18 16 31  2 19 27
  22651513.457    -3917442.506 5  -2691699.205 3
  21466386.043     9600900.126 6   7538178.892 6
  23091602.848    -4307401.585 4  -3303007.751 2
  21492108.043   -13799576.007 6 -10679514.295 6
  20513724.543   -18139692.829 7  -1561880.030 8
  19779363.520   -24671752.954 7 -19066474.713 9
  19461919.066   -26300237.294 7 -20359150.945 9
 95  2 14 22 18 59.9960000  0  7  7 18 16 31  2 19 27
  22629791.613    -4031580.065 5  -2780637.440 4
  21484182.777     9694429.774 6   7611059.076 6
  23095849.652    -4285048.715 3  -3285589.963 3
  21504422.871   -13734871.710 6 -10629095.365 6
  20505443.863   -18183215.806 7  -1595793.997 8
  19783014.645   -24652573.194 7 -19051529.455 9
  19453288.574   -26345591.707 7 -20394492.027 9
 95  2 14 22 19 29.9960000  0  7  7 18 16 31  2 19 27
  22608085.387    -4145647.273 5  -2869520.838 4
  21502027.941     9788210.096 6   7684134.595 6
  23100181.113    -4262310.897 4  -3267872.203 2
  21516818.207   -13669731.724 6 -10578336.946 6
  20497204.410   -18226501.608 7  -1629523.154 8
  19786717.707   -24633118.442 7 -19036369.923 9
  19444702.199   -26390722.176 7 -20429658.609 9
 95  2 14 22 19 59.9960000  0  7  7 18 16 31  2 19 27
  22586396.355    -4259625.368 5  -2958334.815 5
  21519922.848     9882247.659 6   7757410.561 6
  23104585.215    -4239165.577 3  -3249836.934 2
  21529300.074   -13604136.965 6 -10527224.145 6
  20489015.520   -18269526.970 7  -1663049.370 8
  19790471.199   -24613388.190 7 -19020995.715 9
  19436162.652   -26435608.654 7 -20464635.068 9
 95  2 14 22 20 29.9960000  0  7  7 18 16 31  2 19 27
  22564726.535    -4373502.324 5  -3047069.988 5
  21537866.223     9976536.610 6   7830882.416 6
  23109065.598    -4215608.997 3  -3231481.218 3
  21541867.348   -13538097.578 6 -10475764.884 6
  20480880.426   -18312281.363 7  -1696364.447 8
  19794274.723   -24593396.063 7 -19005417.448 9
  19427667.559   -26480237.116 7 -20499410.470 9
 95  2 14 22 20 59.9960000  0  7  7 18 16 31  2 19 27
  22543074.301    -4487287.052 5  -3135733.290 5
  21555850.848    10071054.483 6   7904532.645 6
  23113627.684    -4191641.276 3  -3212805.126 1
  21554515.832   -13471628.964 6 -10423971.165 6
  20472798.090   -18354765.673 7  -1729469.065 8
  19798125.652   -24573160.269 7 -18989649.315 9
  19419220.207   -26524615.828 7 -20533991.261 9
 95  2 14 22 21 29.9960000  0  7  7 18 16 31  2 19 27
  22521439.668    -4600958.895 5  -3224308.603 5
  21573881.684    10165804.908 6   7978364.096 6
  23118275.996    -4167250.104 4  -3193799.055 2
  21567250.895   -13404703.789 6 -10371821.689 6
  20464764.824   -18396979.890 7  -1762363.214 8
  19802030.566   -24552641.925 7 -18973661.000 9
  19410828.715   -26568720.285 7 -20568358.340 9
 95  2 14 22 21 59.9960000  0  7  7 18 16 31  2 19 27
  22499835.840    -4714512.946 5  -3312792.110 5
  21591957.668    10260790.016 6   8052378.408 6
  23122987.996    -4142443.174 3  -3174469.007 2
  21580073.762   -13337318.240 6 -10319313.477 6
  20456780.559   -18438926.815 7  -1795049.098 8
  19805988.645   -24531841.550 7 -18957452.915 9
  19402494.504   -26612529.025 7 -20602494.996 9
 95  2 14 22 22 29.9960000  0  7  7 18 16 31  2 19 27
  22478247.684    -4827949.348 5  -3401183.930 5
  21610078.738    10356006.074 6   8126572.688 6
  23127790.855    -4117229.819 3  -3154822.278 2
  21592983.832   -13269478.801 6 -10266451.576 6
  20448845.824   -18480619.376 7  -1827536.771 8
  19810001.738   -24510750.006 7 -18941017.945 9
  19394211.293   -26656058.841 7 -20636414.307 9
 95  2 14 22 22 59.9960000  0  7  7 18 16 31  2 19 27
  22456684.301    -4941266.543 5  -3489482.835 5
  21628237.973    10451444.863 6   8200940.516 6
  23132669.207    -4091612.714 3  -3134860.915 2
  21605979.598   -13201182.060 6 -10213233.337 6
  20440959.059   -18522072.725 7  -1859838.044 8
  19814072.020   -24489366.099 7 -18924355.162 9
  19385976.848   -26699325.986 7 -20670128.932 9
 95  2 14 22 23 29.9960000  0  7  7 18 16 31  2 19 27
  22435145.090    -5054447.934 5  -3577675.914 5
  21646442.137    10547101.462 6   8275478.075 6
  23137617.496    -4065591.521 4  -3114584.741 1
  21619062.449   -13132439.945 6 -10159668.058 6
  20433116.590   -18563293.190 7  -1891957.848 8
  19818199.215   -24467678.196 7 -18907455.494 9
  19377793.184   -26742322.826 7 -20703632.931 9
 95  2 14 22 23 59.9960000  0  7  7 18 16 31  2 19 27
  22413633.801    -5167494.750 5  -3665764.122 5
  21664684.988    10642972.225 6   8350182.506 6
  23142638.871    -4039171.403 4  -3093997.647 2
  21632221.887   -13063273.614 6 -10105772.223 6
  20425316.926   -18604280.088 7  -1923895.658 8
  19822381.520   -24445696.335 7 -18890326.766 9
  19369660.520   -26785060.574 7 -20736935.043 9
 95  2 14 22 24 29.9960000  0  7  7 18 16 31  2 19 27
  22392143.340    -5280416.215 5  -3753754.662 5
  21682963.402    10739033.724 6   8425035.562 6
  23147741.309    -4012362.522 3  -3073107.652 2
  21645463.793   -12993693.140 6 -10051553.670 6
  20417562.324   -18645031.530 7  -1955649.996 8
  19826620.027   -24423431.497 7 -18872977.531 9
  19361575.480   -26827549.088 7 -20770042.942 9
 95  2 14 22 24 59.9960000  0  7  7 18 16 31  2 19 27
  22370683.496    -5393194.515 5  -3841633.630 5
  21701284.707    10835302.502 6   8500050.140 6
  23152921.848    -3985144.187 3  -3051898.624 1
  21658787.793   -12923676.575 6  -9996995.318 6
  20409856.754   -18685517.104 7  -1987197.153 8
  19830910.621   -24400877.106 7 -18855402.670 9
  19353544.730   -26869755.004 7 -20802930.636 9
 95  2 14 22 25 29.9960000  0  7  7 18 16 31  2 19 27
  22349248.395    -5505843.028 5  -3929411.475 4
  21719638.965    10931763.977 6   8575214.868 6
  23158176.324    -3957546.552 3  -3030393.997 1
  21672192.379   -12853241.193 6  -9942110.612 6
  20402199.434   -18725751.895 7  -2018548.899 8
  19835254.270   -24378050.138 7 -18837615.403 9
  19345565.520   -26911693.662 7 -20835610.070 9
 95  2 14 22 25 59.9960000  0  7  7 18 16 31  2 19 27
  22327836.301    -5618370.101 5  -4017094.715 5
  21738035.066    11028432.020 6   8650540.549 6
  23163498.863    -3929584.049 3  -3008605.069 1
  21685677.926   -12782373.661 6  -9886889.152 6
  20394589.715   -18765734.936 7  -2049704.482 8
  19839649.066   -24354951.029 7 -18819616.085 8
  19337635.520   -26953367.811 7 -20868083.401 9
 95  2 14 22 26 29.9960000  0  7  7 18 16 31  2 19 27
  22306443.020    -5730781.687 5  -4104687.970 5
  21756473.949    11125325.550 6   8726041.938 6
  23168889.387    -3901253.013 3  -2986528.957 2
  21699243.371   -12711073.843 6  -9831330.859 6
  20387028.152   -18805471.119 7  -2080667.702 8
  19844097.574   -24331575.360 7 -18801401.263 9
  19329755.152   -26994778.813 7 -20900351.686 9
 95  2 14 22 26 59.9960000  0  7  7 18 16 31  2 19 27
  22285076.887    -5843067.865 5  -4192183.509 5
  21774956.645    11222463.794 6   8801734.018 5
  23174353.566    -3872547.778 3  -2964161.260 2
  21712893.418   -12639348.761 6  -9775441.209 6
  20379511.980   -18844972.449 7  -2111447.922 8
  19848602.332   -24307906.229 7 -18782957.775 8
  19321923.910   -27035927.985 7 -20932415.954 9
 95  2 14 22 27 29.9960000  0  7  7 18 16 31  2 19 27
  22263735.426    -5955211.311 5  -4279567.826 5
  21793488.340    11319836.753 6   8877608.990 5
  23179882.699    -3843473.659 3  -2941506.118 1
  21726621.066   -12567206.714 6  -9719226.653 6
  20372037.129   -18884253.455 7  -2142056.460 8
  19853164.262   -24283933.598 7 -18764277.788 8
  19314142.191   -27076820.529 7 -20964280.251 9
 95  2 14 22 27 59.9960000  0  7  7 18 16 31  2 19 27
  22242423.645    -6067204.457 5  -4366835.040 5
  21812064.285    11417445.101 6   8953667.382 6
  23185494.223    -3814000.342 3  -2918539.938 2
  21740428.621   -12494643.318 6  -9662683.765 6
  20364606.887   -18923298.402 7  -2172481.063 8
  19857785.637   -24259646.842 7 -18745353.028 8
  19306412.910   -27117436.268 7 -20995928.857 9
 95  2 14 22 28 29.9960000  0  7  7 18 16 31  2 19 27
  22221138.129    -6179055.726 5  -4453991.709 5
  21830671.918    11515243.161 6   9029873.607 6
  23191173.824    -3784136.743 3  -2895269.646 1
  21754313.043   -12421686.677 6  -9605834.450 6
  20357219.816   -18962121.869 7  -2202733.077 8
  19862463.902   -24235067.313 7 -18726200.140 8
  19298733.590   -27157788.616 7 -21027372.229 9
 95  2 14 22 28 59.9960000  0  7  7 18 16 31  2 19 27
  22199882.348    -6290770.444 5  -4541041.981 5
  21849309.465    11613178.278 6   9106186.625 5
  23196931.848    -3753906.206 3  -2871713.392 2
  21768270.387   -12348347.061 6  -9548686.719 6
  20349872.699   -19000727.024 7  -2232814.987 8
  19867194.035   -24210206.203 7 -18706827.851 8
  19291106.606   -27197874.886 7 -21058608.270 9
 95  2 14 22 29 29.9960000  0  7  7 18 16 31  2 19 27
  22178647.598    -6402341.470 5  -4627980.280 5
  21867971.402    11711244.645 6   9182601.915 5
  23202752.371    -3723305.499 3  -2847868.732 1
  21782297.520   -12274614.882 6  -9491233.090 6
  20342569.754   -19039097.548 7  -2262714.066 8
  19871980.434   -24185052.391 7 -18687227.472 8
  19283533.043   -27237672.744 7 -21089619.579 9
 95  2 14 22 29 59.9960000  0  7  7 18 16 31  2 19 27
  22157441.848    -6513783.869 5  -4714818.358 5
  21886661.637    11809465.121 6   9259137.291 5
  23208646.746    -3692325.689 3  -2823728.644 1
  21796404.363   -12200495.305 6  -9433477.601 6
  20335317.137   -19077213.000 7  -2292414.398 8
  19876825.051   -24159589.257 7 -18667386.073 8
  19276019.590   -27277160.776 7 -21120389.459 9
 95  2 14 22 30 29.9960000  0  7  7 18 16 31  2 19 27
  22136256.238    -6625117.054 5  -4801571.317 5
  21905380.746    11907839.395 6   9335792.522 5
  23214604.418    -3661006.861 3  -2799324.410 1
  21810579.684   -12126008.155 6  -9375435.692 6
  20328112.168   -19115081.922 7  -2321922.636 8
  19881728.527   -24133826.273 7 -18647311.019 8
  19268561.199   -27316350.278 7 -21150926.725 9
 95  2 14 22 30 59.9960000  0  7  7 18 16 31  2 19 27
  22115090.434    -6736336.864 5  -4888235.935 5
  21924136.121    12006398.846 6   9412592.038 5
  23220629.410    -3629354.929 3  -2774660.583 1
  21824824.207   -12051145.872 6  -9317101.466 6
  20320955.199   -19152706.351 7  -2351240.342 8
  19886689.012   -24107758.668 7 -18626998.605 8
  19261158.215   -27355243.861 7 -21181233.404 9
 95  2 14 22 31 29.9960000  0  7  7 18 16 31  2 19 27
  22093952.965    -6847419.591 5  -4974793.733 5
  21942937.410    12105185.316 6   9489568.450 5
  23226720.160    -3597348.407 3  -2749720.465 2
  21839143.309   -11975902.271 6  -9258470.111 5
  20313842.871   -19190081.633 7  -2380363.919 8
  19891708.465   -24081382.025 7 -18606445.379 8
  19253813.590   -27393837.878 7 -21211306.655 9
 95  2 14 22 31 59.9960000  0  7  7 18 16 31  2 19 27
  22072848.231    -6958353.968 5  -5061235.938 5
  21961773.793    12204196.562 6   9566720.021 5
  23232883.535    -3564990.340 4  -2724506.426 2
  21853534.832   -11900275.325 6  -9199540.049 6
  20306777.207   -19227199.787 7  -2409287.136 8
  19896783.395   -24054715.361 7 -18585666.166 8
  19246528.066   -27432133.891 7 -21241147.692 9
 95  2 14 22 32 29.9960000  0  7  7 18 16 31  2 19 27
  22051767.145    -7069119.986 5  -5147546.943 5
  21980652.762    12303402.773 6   9644023.499 5
  23239099.207    -3532290.992 4  -2699026.449 1
  21868000.355   -11824252.621 6  -9140301.586 6
  20299760.957   -19264066.197 7  -2438014.196 8
  19901909.082   -24027774.144 7 -18564673.017 8
  19239295.895   -27470148.489 7 -21270769.435 9
 95  2 14 22 32 59.9960000  0  7  7 18 16 31  2 19 27
  22030723.629    -7179695.119 5  -5233709.209 5
  21999564.535    12402778.900 6   9721459.376 5
  23245395.387    -3499225.306 4  -2673260.980 3
  21882542.746   -11747836.497 6  -9080756.587 6
  20292794.262   -19300687.678 7  -2466550.387 8
  19907088.184   -24000563.473 7 -18543469.906 8
  19232113.481   -27507877.462 7 -21300168.616 9
 95  2 14 22 33 29.9960000  0  7  7 18 16 31  2 19 27
  22009719.191    -7290069.127 5  -5319714.728 5
  22018505.168    12502301.384 6   9799009.304 5
  23251757.809    -3465780.316 3  -2647200.018 2
  21897160.082   -11671023.938 6  -9020902.671 6
  20285874.113   -19337056.586 7  -2494889.762 8
  19912319.832   -23973061.970 7 -18522040.172 8
  19224991.676   -27545301.905 7 -21329330.496 9
 95  2 14 22 33 59.9960000  0  7  7 18 16 31  2 19 27
  21988753.606    -7400248.347 5  -5405568.475 5
  22037466.652    12601952.679 6   9876659.588 5
  23258195.762    -3431960.576 3  -2620847.000 1
  21911854.832   -11593803.315 6  -8960730.770 6
  20278998.270   -19373170.740 7  -2523030.634 8
  19917613.270   -23945254.777 7 -18500372.237 8
  19217931.051   -27582416.087 7 -21358250.618 9
 95  2 14 22 34 29.9960000  0  7  7 18 16 31  2 19 27
  21967817.832    -7510256.237 5  -5491288.709 5
  22056453.230    12701723.063 5   9954402.680 5
  23264700.824    -3397773.158 3  -2594207.477 1
  21926623.652   -11516190.155 6  -8900253.016 6
  20272170.848   -19409070.586 7  -2551004.509 8
  19922961.973   -23917141.719 7 -18478465.965 8
  19210920.191   -27619242.843 7 -21386946.769 9
 95  2 14 22 34 59.9960000  0  7  7 18 16 31  2 19 27
  21946920.527    -7620077.716 5  -5576863.665 5
  22075470.715    12801653.697 5  10032270.631 5
  23271274.730    -3363203.869 3  -2567270.388 1
  21941469.020   -11438178.692 6  -8839464.885 6
  20265377.176   -19444756.360 7  -2578811.576 8
  19928373.051   -23888706.379 7 -18456308.561 8
  19203974.285   -27655754.149 7 -21415397.107 9
 95  2 14 22 35 29.9960000  0  7  7 18 16 31  2 19 27
  21926052.371    -7729731.671 5  -5662308.097 5
  22094519.277    12901757.624 5  10110273.618 4
  23277922.160    -3328293.506 3  -2540067.546 1
  21956388.910   -11359775.742 6  -8778371.694 5
  20258627.340   -19480242.736 7  -2606463.254 8
  19933844.449   -23859952.660 7 -18433903.063 8
  19197080.645   -27691970.960 7 -21443617.967 9
 95  2 14 22 35 59.9960000  0  7  7 18 16 31  2 19 27
  21905214.262    -7839235.141 5  -5747635.247 5
  22113602.270    13002046.910 5  10188421.046 5
  23284626.246    -3293059.352 3  -2512612.390 2
  21971378.090   -11281001.816 6  -8716989.439 5
  20251908.105   -19515532.679 7  -2633961.878 8
  19939373.793   -23830898.709 7 -18411263.619 8
  19190246.480   -27727904.575 7 -21471618.158 9
 95  2 14 22 36 29.9960000  0  7  7 18 16 31  2 19 27
  21884410.777    -7948568.961 5  -5832830.201 5
  22132726.770    13102549.111 5  10266734.370 5
  23291396.879    -3257501.970 3  -2484905.348 2
  21986437.160   -11201862.046 6  -8655322.103 5
  20245235.855   -19550611.399 7  -2661295.901 8
  19944961.262   -23801531.978 7 -18388380.452 8
  19183460.926   -27763539.887 7 -21499385.908 9
 95  2 14 22 36 59.9960000  0  7  7 18 16 31  2 19 27
  21863633.566    -8057737.693 5  -5917896.520 5
  22151887.988    13203239.137 5  10345194.048 5
  23298218.293    -3221656.545 4  -2456973.873 2
  22001560.863   -11122386.899 6  -8593393.427 5
  20238602.152   -19585468.337 7  -2688457.112 8
  19950607.754   -23771863.036 7 -18365261.797 8
  19176735.809   -27798891.162 7 -21526932.327 9
 95  2 14 22 37 29.9960000  0  7  7 18 16 31  2 19 27
  21842895.449    -8166727.466 5  -6002823.412 5
  22171082.137    13304099.064 5  10423786.124 5
  23305096.098    -3185504.908 4  -2428803.795 2
  22016752.441   -11042558.686 6  -8531189.634 5
  20232013.731   -19620078.949 7  -2715426.376 8
  19956315.363   -23741871.228 7 -18341891.552 8
  19170068.356   -27833941.741 7 -21554244.441 9
 95  2 14 22 37 59.9960000  0  7  7 18 16 31  2 19 27
  21822188.934    -8275542.048 5  -6087613.787 5
  22190300.824    13405097.507 5  10502486.127 5
  23312034.012    -3149044.189 4  -2400392.874 2
  22032009.676   -10962388.006 6  -8468718.985 5
  20225471.934   -19654463.445 7  -2742219.450 8
  19962078.371   -23711581.797 7 -18318289.396 8
  19163455.285   -27868681.143 7 -21581314.086 9
 95  2 14 22 38 29.9960000  0  7  7 18 16 31  2 19 27
  21801520.996    -8384148.175 5  -6172241.738 5
  22209544.684    13506227.767 5  10581288.849 5
  23319032.871    -3112261.602 3  -2371731.143 2
  22047332.473   -10881855.962 6  -8405966.764 5
  20218974.652   -19688612.420 7  -2768828.999 8
  19967898.027   -23680997.704 7 -18294457.635 8
  19156904.910   -27903096.283 7 -21608131.054 9
